[[{"header":{"parameterUnit":"m.s-1","parameterCategory":1,"la1":30.6,"la2":29.2853,"lo1":-89.7004,"lo2":-87.6739,"dy":0.0162,"dx":0.0183,"nx":112,"ny":82,"refTime":"2025-02-24T06:00:00:Z","depth":0,"parameterNumber":2,"parameterNumberName":"U-component_of_WINDS"},"data":[0.0,0.0,0.0,0.0,0.0,0.0,0.0,0.0,0.0,0.0,0.0,0.0,0.0,0.0,0.0,0.0,0.0,0.0,0.0,0.0,0.0,0.0,0.0,0.0,0.0,0.0,0.0,0.0,0.0,0.0,0.0,0.0,0.0,0.0,0.0,0.0,0.0,0.0,0.0,0.0,0.0,0.0,0.0,0.0,0.0,0.0,0.0,0.0,0.0,0.0,0.0,0.0,0.0,0.0,0.0,0.0,0.0,0.0,0.0,0.0,0.0,0.0,0.0,0.0,0.0,0.0,0.0,0.0,0.0,0.0,0.0,0.0,0.0,0.0,0.0,0.0,0.0,0.0,0.0,0.0,0.0,0.0,0.0,0.0,0.0,0.0,0.0,0.0,0.0,0.0,-1.6709,-1.7235,-1.9285,-2.0905,-2.1646,-2.0104,-1.8036,-1.5558,0.0,0.0,0.0,0.0,0.0,0.0,0.0,0.0,0.0,0.0,0.0,0.0,0.0,0.0,0.0,0.0,0.0,0.0,0.0,0.0,0.0,0.0,0.0,0.0,0.0,0.0,0.0,0.0,0.0,0.0,0.0,0.0,0.0,0.0,0.0,0.0,0.0,0.0,0.0,0.0,0.0,0.0,0.0,0.0,0.0,0.0,0.0,0.0,0.0,0.0,0.0,0.0,0.0,0.0,0.0,0.0,0.0,0.0,0.0,0.0,0.0,0.0,0.0,0.0,0.0,0.0,0.0,0.0,0.0,0.0,0.0,0.0,0.0,0.0,0.0,0.0,0.0,0.0,0.0,0.0,0.0,0.0,0.0,0.0,0.0,0.0,0.0,0.0,0.0,0.0,0.0,0.0,0.0,0.0,0.0,0.0,0.0,0.0,0.0,0.0,0.0,0.0,0.0,0.0,-1.6729,-1.9696,-2.0359,-2.0652,-2.0789,-1.9208,-1.7392,-1.5519,0.0,0.0,0.0,0.0,0.0,0.0,0.0,0.0,0.0,0.0,0.0,0.0,0.0,0.0,0.0,0.0,0.0,0.0,0.0,0.0,0.0,0.0,0.0,0.0,0.0,0.0,0.0,0.0,0.0,0.0,0.0,0.0,0.0,0.0,0.0,0.0,0.0,0.0,0.0,0.0,0.0,0.0,0.0,0.0,0.0,0.0,0.0,0.0,0.0,0.0,0.0,0.0,0.0,0.0,0.0,0.0,0.0,0.0,0.0,0.0,0.0,0.0,0.0,0.0,0.0,0.0,0.0,0.0,0.0,0.0,0.0,0.0,0.0,0.0,0.0,0.0,0.0,0.0,0.0,0.0,0.0,0.0,0.0,0.0,0.0,0.0,0.0,0.0,0.0,0.0,0.0,0.0,0.0,0.0,0.0,0.0,0.0,0.0,0.0,0.0,0.0,0.0,0.0,-1.6143,-1.7256,-2.0281,-2.0594,-2.0594,-2.0594,-1.8993,-1.7256,-1.5519,-1.4172,0.0,0.0,0.0,0.0,0.0,0.0,0.0,0.0,0.0,0.0,0.0,0.0,0.0,0.0,0.0,0.0,0.0,0.0,0.0,0.0,0.0,0.0,0.0,0.0,0.0,0.0,0.0,0.0,0.0,0.0,0.0,0.0,0.0,0.0,0.0,0.0,0.0,0.0,0.0,0.0,0.0,0.0,0.0,0.0,0.0,0.0,0.0,0.0,0.0,0.0,0.0,0.0,0.0,0.0,0.0,0.0,0.0,0.0,0.0,0.0,0.0,0.0,0.0,0.0,0.0,0.0,0.0,0.0,0.0,0.0,0.0,0.0,0.0,0.0,0.0,0.0,0.0,0.0,0.0,0.0,0.0,0.0,0.0,0.0,0.0,0.0,0.0,0.0,0.0,0.0,0.0,0.0,0.0,0.0,0.0,0.0,0.0,0.0,0.0,0.0,0.0,0.0,-1.7528,-1.8387,-2.0398,-2.0594,-2.0594,-2.0594,-1.8817,-1.7041,-1.5499,-1.3626,0.0,0.0,0.0,0.0,0.0,0.0,0.0,0.0,0.0,0.0,0.0,0.0,0.0,0.0,0.0,0.0,0.0,0.0,0.0,0.0,0.0,0.0,0.0,0.0,0.0,0.0,0.0,0.0,0.0,0.0,0.0,0.0,0.0,0.0,0.0,0.0,0.0,0.0,0.0,0.0,0.0,0.0,0.0,0.0,0.0,0.0,0.0,0.0,0.0,0.0,0.0,0.0,0.0,0.0,0.0,0.0,0.0,0.0,0.0,0.0,0.0,0.0,0.0,0.0,0.0,0.0,0.0,0.0,0.0,0.0,0.0,0.0,0.0,0.0,0.0,0.0,0.0,0.0,0.0,0.0,0.0,0.0,0.0,0.0,0.0,0.0,0.0,0.0,0.0,0.0,0.0,0.0,0.0,0.0,0.0,0.0,0.0,0.0,0.0,0.0,0.0,0.0,-1.8368,-2.0398,-2.0574,-2.0594,-2.0594,-2.0594,-1.8251,-1.6396,-1.546,-1.3078,0.0,0.0,0.0,0.0,0.0,0.0,0.0,0.0,0.0,0.0,0.0,0.0,0.0,0.0,0.0,0.0,0.0,0.0,0.0,0.0,0.0,0.0,0.0,0.0,0.0,0.0,0.0,0.0,0.0,0.0,0.0,0.0,0.0,0.0,0.0,0.0,0.0,0.0,0.0,0.0,0.0,0.0,0.0,0.0,0.0,0.0,0.0,0.0,0.0,0.0,0.0,0.0,0.0,0.0,0.0,0.0,0.0,0.0,0.0,0.0,0.0,0.0,0.0,0.0,0.0,0.0,0.0,0.0,0.0,0.0,0.0,0.0,0.0,0.0,0.0,0.0,0.0,0.0,0.0,0.0,0.0,0.0,0.0,0.0,0.0,0.0,0.0,0.0,0.0,0.0,0.0,0.0,0.0,0.0,0.0,0.0,0.0,0.0,0.0,0.0,0.0,0.0,-1.7491,-1.9403,-2.0477,-2.0594,-2.0379,-1.9832,-1.8387,-1.667,-1.4718,0.0,0.0,0.0,0.0,0.0,0.0,0.0,0.0,0.0,0.0,0.0,0.0,0.0,0.0,0.0,0.0,0.0,0.0,0.0,0.0,0.0,0.0,0.0,0.0,0.0,0.0,0.0,0.0,0.0,0.0,0.0,0.0,0.0,0.0,0.0,0.0,0.0,0.0,0.0,0.0,0.0,0.0,0.0,0.0,0.0,0.0,0.0,0.0,0.0,0.0,0.0,0.0,0.0,0.0,0.0,0.0,0.0,0.0,0.0,0.0,0.0,0.0,0.0,0.0,0.0,0.0,0.0,0.0,0.0,0.0,0.0,0.0,0.0,0.0,0.0,0.0,0.0,0.0,0.0,0.0,0.0,0.0,0.0,0.0,0.0,0.0,0.0,0.0,0.0,0.0,0.0,0.0,0.0,0.0,0.0,0.0,0.0,0.0,0.0,0.0,0.0,0.0,-1.5226,-1.7158,-1.8973,-2.0437,-2.0594,-2.0242,-1.9362,-1.8251,-1.6591,-1.4249,0.0,0.0,0.0,0.0,0.0,0.0,0.0,0.0,0.0,0.0,0.0,0.0,0.0,0.0,0.0,0.0,0.0,0.0,0.0,0.0,0.0,0.0,0.0,0.0,0.0,0.0,0.0,0.0,0.0,0.0,0.0,0.0,0.0,0.0,0.0,0.0,0.0,0.0,0.0,0.0,0.0,0.0,0.0,0.0,0.0,0.0,0.0,0.0,0.0,0.0,0.0,0.0,0.0,0.0,0.0,0.0,0.0,0.0,0.0,0.0,0.0,0.0,0.0,0.0,0.0,0.0,0.0,0.0,0.0,0.0,0.0,0.0,0.0,0.0,0.0,0.0,0.0,0.0,0.0,0.0,0.0,0.0,0.0,0.0,0.0,0.0,0.0,0.0,0.0,0.0,0.0,0.0,0.0,0.0,0.0,0.0,0.0,0.0,0.0,0.0,0.0,0.0,-1.5285,-1.7684,-1.9636,-2.0516,-2.0594,-2.0242,-1.9362,-1.7703,-1.5947,0.0,0.0,0.0,0.0,0.0,0.0,0.0,0.0,0.0,0.0,0.0,0.0,0.0,0.0,0.0,0.0,0.0,0.0,0.0,0.0,0.0,0.0,0.0,0.0,0.0,0.0,0.0,0.0,0.0,0.0,0.0,0.0,0.0,0.0,0.0,0.0,0.0,0.0,0.0,0.0,0.0,0.0,0.0,0.0,0.0,0.0,0.0,0.0,0.0,0.0,0.0,0.0,0.0,0.0,0.0,0.0,0.0,0.0,0.0,0.0,0.0,0.0,0.0,0.0,0.0,0.0,0.0,0.0,0.0,0.0,0.0,0.0,0.0,0.0,0.0,0.0,0.0,0.0,0.0,0.0,0.0,0.0,0.0,0.0,0.0,0.0,0.0,0.0,0.0,0.0,0.0,0.0,0.0,0.0,0.0,0.0,0.0,0.0,0.0,0.0,0.0,0.0,0.0,-1.5285,-1.7684,-1.9636,-2.0516,-2.0594,-2.0008,-1.8505,-1.7353,-1.5713,-1.3391,0.0,0.0,0.0,0.0,0.0,0.0,0.0,0.0,0.0,0.0,0.0,0.0,0.0,0.0,0.0,0.0,0.0,0.0,0.0,0.0,0.0,0.0,0.0,0.0,0.0,0.0,0.0,0.0,0.0,0.0,0.0,0.0,0.0,0.0,0.0,0.0,0.0,0.0,0.0,0.0,0.0,0.0,0.0,0.0,0.0,0.0,0.0,0.0,0.0,0.0,0.0,0.0,0.0,0.0,0.0,0.0,0.0,0.0,0.0,0.0,0.0,0.0,0.0,0.0,0.0,0.0,0.0,0.0,0.0,0.0,0.0,0.0,0.0,0.0,0.0,0.0,0.0,0.0,0.0,0.0,0.0,0.0,0.0,0.0,0.0,0.0,0.0,0.0,0.0,0.0,0.0,0.0,0.0,0.0,0.0,0.0,0.0,0.0,0.0,0.0,0.0,0.0,-1.5246,-1.7373,-1.9246,-2.0477,-2.0594,-1.9891,-1.8154,-1.7529,-1.5987,-1.3079,0.0,0.0,0.0,0.0,0.0,0.0,0.0,0.0,0.0,0.0,0.0,0.0,0.0,0.0,0.0,0.0,0.0,0.0,0.0,0.0,0.0,0.0,0.0,0.0,0.0,0.0,0.0,0.0,0.0,0.0,0.0,0.0,0.0,0.0,0.0,0.0,0.0,0.0,0.0,0.0,0.0,0.0,0.0,0.0,0.0,0.0,0.0,0.0,0.0,0.0,0.0,0.0,0.0,0.0,0.0,0.0,0.0,0.0,0.0,0.0,0.0,0.0,0.0,0.0,0.0,0.0,0.0,0.0,0.0,0.0,0.0,0.0,0.0,0.0,0.0,0.0,0.0,0.0,0.0,0.0,0.0,0.0,0.0,0.0,0.0,0.0,0.0,0.0,0.0,0.0,0.0,0.0,0.0,0.0,0.0,0.0,0.0,0.0,0.0,0.0,0.0,0.0,-1.5187,-1.6924,-1.8661,-2.0418,-2.0594,-1.9891,-1.8154,-1.7939,-1.6456,-1.3118,0.0,0.0,0.0,0.0,0.0,0.0,0.0,0.0,0.0,0.0,0.0,0.0,0.0,0.0,0.0,0.0,0.0,0.0,0.0,0.0,0.0,0.0,0.0,0.0,0.0,0.0,0.0,0.0,0.0,0.0,0.0,0.0,0.0,0.0,0.0,0.0,0.0,0.0,0.0,0.0,0.0,0.0,0.0,0.0,0.0,0.0,0.0,0.0,0.0,0.0,0.0,0.0,0.0,0.0,0.0,0.0,0.0,0.0,0.0,0.0,-1.508,-1.3754,0.0,0.0,0.0,0.0,0.0,0.0,0.0,0.0,0.0,0.0,0.0,0.0,0.0,0.0,0.0,0.0,0.0,0.0,0.0,0.0,0.0,0.0,0.0,0.0,0.0,0.0,0.0,0.0,0.0,0.0,0.0,0.0,0.0,0.0,0.0,0.0,0.0,0.0,0.0,0.0,-1.5187,-1.6924,-1.8661,-2.0418,-2.0594,-1.9891,-1.8154,-1.7372,-1.5811,-1.3079,-1.1614,0.0,0.0,0.0,0.0,0.0,0.0,0.0,0.0,0.0,0.0,0.0,0.0,0.0,0.0,0.0,0.0,0.0,0.0,0.0,0.0,0.0,0.0,0.0,0.0,0.0,0.0,0.0,0.0,0.0,0.0,0.0,0.0,0.0,0.0,0.0,0.0,0.0,0.0,0.0,0.0,0.0,0.0,0.0,0.0,0.0,0.0,0.0,0.0,0.0,0.0,0.0,0.0,0.0,0.0,0.0,0.0,0.0,0.0,0.0,-1.7877,-1.6796,0.0,0.0,0.0,0.0,0.0,0.0,0.0,0.0,0.0,0.0,0.0,0.0,0.0,0.0,0.0,0.0,0.0,0.0,0.0,0.0,0.0,0.0,0.0,0.0,0.0,0.0,0.0,0.0,0.0,0.0,0.0,0.0,0.0,0.0,0.0,0.0,0.0,0.0,0.0,0.0,-1.5753,-1.7178,-1.8661,-2.0418,-2.0594,-1.9891,-1.8154,-1.7588,-1.6221,-1.3645,-1.2259,0.0,0.0,0.0,0.0,0.0,0.0,0.0,0.0,0.0,0.0,0.0,0.0,0.0,0.0,0.0,0.0,0.0,0.0,0.0,0.0,0.0,0.0,0.0,0.0,0.0,0.0,0.0,0.0,0.0,0.0,0.0,0.0,0.0,0.0,0.0,0.0,0.0,0.0,0.0,0.0,0.0,0.0,0.0,0.0,0.0,0.0,0.0,0.0,0.0,0.0,0.0,0.0,0.0,-2.0896,-2.1391,-2.1388,-2.1388,-2.1745,-2.2291,-2.0918,-2.0467,-2.0526,-1.8283,0.0,0.0,0.0,0.0,0.0,0.0,0.0,0.0,0.0,0.0,0.0,0.0,0.0,0.0,0.0,0.0,0.0,0.0,0.0,0.0,0.0,0.0,-1.6896,-1.7457,-1.7587,-1.7165,-1.5566,0.0,0.0,0.0,0.0,0.0,0.0,0.0,0.0,0.0,0.0,0.0,-1.6396,-1.7587,-1.8837,-2.0437,-2.0594,-1.9891,-1.8154,-1.7997,-1.6885,-1.4269,-1.3489,-1.2337,0.0,0.0,0.0,0.0,0.0,0.0,0.0,0.0,0.0,0.0,0.0,0.0,0.0,0.0,0.0,0.0,0.0,0.0,0.0,0.0,0.0,0.0,0.0,0.0,0.0,0.0,0.0,0.0,0.0,0.0,0.0,0.0,-1.4817,-1.5697,0.0,0.0,0.0,0.0,0.0,0.0,0.0,0.0,0.0,0.0,0.0,0.0,0.0,-1.9903,-1.9903,-2.1636,-2.2493,-2.2515,-2.4152,-2.4927,-2.4924,-2.4924,-2.498,-2.5074,-2.4849,0.0,-2.1464,-2.0359,0.0,0.0,0.0,0.0,0.0,0.0,0.0,0.0,0.0,0.0,0.0,0.0,0.0,0.0,0.0,0.0,0.0,0.0,0.0,0.0,0.0,0.0,-2.1926,-2.1282,-2.1122,-2.0876,-1.9941,-1.7361,-1.4934,-1.3956,-1.3859,-1.341,0.0,0.0,0.0,0.0,0.0,0.0,-1.6454,-1.8113,-1.9519,-2.0496,-2.0594,-1.9891,-1.8154,-1.7997,-1.6885,-1.4269,-1.3995,-1.3195,-1.1497,-1.0696,0.0,0.0,0.0,0.0,0.0,0.0,0.0,0.0,0.0,0.0,0.0,0.0,0.0,0.0,0.0,0.0,0.0,0.0,0.0,0.0,0.0,0.0,0.0,0.0,0.0,0.0,0.0,0.0,0.0,-1.4836,-1.6604,-1.6991,-1.7085,-1.6972,0.0,0.0,0.0,0.0,0.0,0.0,0.0,0.0,0.0,-2.0481,-2.1862,-2.258,-2.258,-2.4272,-2.4913,-2.4488,-2.5692,-2.6016,-2.5535,-2.5535,-2.5544,-2.5543,-2.5543,-2.4897,-2.3731,-2.2414,-2.1148,-1.9949,0.0,0.0,0.0,0.0,-1.8852,-1.8954,-2.0422,-2.0614,-2.0184,-2.0068,0.0,0.0,0.0,0.0,0.0,0.0,0.0,-1.935,-1.9971,-2.1257,-2.239,-2.2497,-2.2523,-2.2438,-2.2088,-2.0819,-1.8895,-1.6103,-1.5967,-1.544,-1.2786,-1.2708,0.0,0.0,0.0,-1.5635,-1.7879,-1.8835,-1.9636,-2.0516,-2.0594,-1.9891,-1.8154,-1.7997,-1.708,-1.4952,-1.4366,-1.3761,-1.3039,-1.1731,-1.0618,0.0,0.0,0.0,0.0,0.0,0.0,0.0,0.0,0.0,0.0,0.0,0.0,0.0,0.0,0.0,0.0,0.0,0.0,0.0,0.0,0.0,0.0,0.0,0.0,0.0,0.0,0.0,0.0,-1.6514,-1.8043,-1.8486,-1.9072,-1.9145,0.0,0.0,0.0,0.0,0.0,0.0,-2.1263,-2.2125,-2.2694,-2.2903,-2.4423,-2.524,-2.524,-2.6482,-2.6812,-2.6214,-2.6812,-2.6763,-2.6141,-2.6141,-2.6142,-2.6149,-2.6149,-2.6014,-2.5685,-2.3996,-2.2912,-2.2256,-2.1399,-2.1078,-2.1135,-2.1792,-2.1754,-2.1651,-2.3591,-2.3844,-2.3239,-2.2809,-2.2383,-2.1671,-1.9772,0.0,0.0,0.0,0.0,-2.083,-2.2135,-2.2622,-2.2953,-2.3614,-2.3767,-2.3707,-2.3473,-2.3436,-2.2291,-1.8446,-1.8212,-1.7646,-1.4426,-1.4367,0.0,-1.4776,-1.5518,-1.6846,-1.9011,-1.9499,-1.9871,-2.0535,-2.0594,-1.9891,-1.8154,-1.7997,-1.7256,-1.5519,-1.4796,-1.4327,-1.4112,-1.2708,-1.1516,-1.0657,0.0,0.0,0.0,0.0,0.0,0.0,0.0,0.0,0.0,0.0,0.0,0.0,0.0,0.0,0.0,0.0,0.0,0.0,0.0,0.0,0.0,0.0,0.0,0.0,0.0,0.0,0.0,0.0,0.0,-2.0916,-2.1157,0.0,0.0,0.0,0.0,-2.1393,-2.1572,-2.233,-2.3921,-2.4825,-2.5657,-2.6416,-2.7333,-2.7802,-2.7802,-2.7898,-2.7922,-2.7883,-2.7922,-2.7918,-2.7879,-2.7879,-2.7879,-2.7875,-2.7875,-2.7406,-2.6513,-2.4838,-2.4105,-2.3996,-2.3179,-2.2865,-2.2868,-2.2917,-2.3392,-2.4032,-2.4156,-2.418,-2.4277,-2.5051,-2.4233,-2.2901,-2.2785,-2.2212,0.0,0.0,-2.2856,-2.416,-2.4257,-2.4881,-2.5504,-2.5563,-2.5563,-2.5348,-2.4507,-2.4335,-2.3559,-2.0925,-2.0437,-1.9637,-1.6962,0.0,-1.6571,-1.6571,-1.7314,-1.8212,-1.9187,-2.0027,-2.0555,-2.0594,-2.0594,-1.9891,-1.8154,-1.7997,-1.7256,-1.5519,-1.5363,-1.4952,-1.4132,-1.3294,-1.2415,-1.1555,-0.9858,0.0,0.0,0.0,0.0,0.0,0.0,0.0,0.0,0.0,0.0,0.0,0.0,0.0,0.0,0.0,0.0,0.0,0.0,0.0,0.0,0.0,0.0,0.0,0.0,0.0,0.0,0.0,0.0,-2.2774,-2.3475,0.0,-2.3491,-2.4051,-2.4555,-2.4869,-2.546,-2.6052,-2.6617,-2.6939,-2.7249,-2.7522,-2.7836,-2.7991,-2.7991,-2.8552,-2.8552,-2.801,-2.8571,-2.8533,-2.7991,-2.7991,-2.7991,-2.7991,-2.7991,-2.7817,-2.7484,-2.6888,-2.6002,-2.5008,-2.4714,-2.4605,-2.4615,-2.4601,-2.4791,-2.5043,-2.5031,-2.5047,-2.5089,-2.5406,-2.5127,-2.4671,-2.4668,-2.447,-2.4248,-2.429,-2.4764,-2.5231,-2.5231,-2.5465,-2.5699,-2.5699,-2.5708,-2.5613,-2.5308,-2.5234,-2.4799,-2.3326,-2.2584,-2.1393,-1.8816,-1.8836,-1.8836,-1.7705,-1.829,-1.9148,-2.0027,-2.0418,-2.0594,-2.0594,-2.0594,-1.9891,-1.8154,-1.7997,-1.7256,-1.5519,-1.4874,-1.4425,-1.4112,-1.2786,-1.1927,-1.1614,-1.0442,-0.9564,0.0,0.0,0.0,0.0,0.0,0.0,0.0,0.0,0.0,0.0,0.0,0.0,0.0,0.0,0.0,0.0,0.0,0.0,0.0,0.0,0.0,0.0,0.0,0.0,0.0,-2.1271,-2.272,-2.4134,-2.5367,-2.6014,-2.576,-2.659,-2.7131,-2.7131,-2.7702,-2.8055,-2.7991,-2.8281,-2.8436,-2.8436,-2.8726,-2.8881,-2.8881,-2.9457,-2.9457,-2.8881,-2.9457,-2.9442,-2.8881,-2.8881,-2.8881,-2.8881,-2.8881,-2.8707,-2.8436,-2.8436,-2.7604,-2.6304,-2.601,-2.5739,-2.5507,-2.5507,-2.5507,-2.5507,-2.5507,-2.5499,-2.5499,-2.5508,-2.5557,-2.5607,-2.56,-2.5608,-2.5612,-2.5673,-2.5699,-2.5699,-2.5699,-2.5699,-2.5699,-2.5699,-2.5702,-2.5703,-2.5694,-2.5702,-2.5526,-2.4954,-2.4128,-2.2817,-2.0573,-2.0651,-2.0554,-1.9091,-1.9363,-1.9949,-2.0535,-2.0594,-2.0594,-2.0594,-2.0594,-1.9891,-1.8154,-1.7997,-1.7256,-1.5519,-1.4855,-1.4405,-1.4112,-1.2766,-1.1907,-1.1614,-1.0735,-0.9875,-0.8995,0.0,0.0,0.0,0.0,0.0,0.0,0.0,0.0,0.0,0.0,0.0,0.0,0.0,0.0,0.0,0.0,0.0,0.0,0.0,0.0,0.0,0.0,0.0,-2.2583,-2.3387,-2.4295,-2.5136,-2.6839,-2.7619,-2.68,-2.7531,-2.8088,-2.8088,-2.8088,-2.8088,-2.8088,-2.8881,-2.9345,-2.9345,-3.0153,-3.0598,-3.0598,-3.0598,-3.0598,-3.0598,-3.0598,-3.0598,-3.0598,-3.0598,-3.0598,-3.0598,-3.0598,-3.0114,-2.9345,-2.9345,-2.8823,-2.7952,-2.7073,-2.6261,-2.5588,-2.555,-2.5511,-2.5492,-2.5492,-2.5503,-2.5499,-2.5499,-2.556,-2.561,-2.56,-2.5591,-2.5615,-2.5673,-2.5699,-2.5699,-2.5699,-2.5699,-2.5699,-2.5699,-2.5701,-2.5698,-2.5699,-2.57,-2.5702,-2.5702,-2.5013,-2.3929,-2.225,-2.1958,-2.1646,-2.0769,-2.0613,0.0,-2.0594,-2.0594,-2.0594,-2.0594,-2.0594,-1.991,-1.8193,-1.8017,-1.7276,-1.5558,-1.5382,-1.4972,-1.4132,-1.3333,-1.2494,-1.1614,-1.0793,-0.993,-0.9042,0.0,0.0,0.0,0.0,0.0,0.0,0.0,0.0,0.0,0.0,0.0,0.0,0.0,0.0,0.0,0.0,0.0,0.0,0.0,0.0,0.0,-2.3105,-2.44,-2.4443,-2.5185,-2.6285,-2.7824,-2.8494,-2.8983,-2.9324,-2.9685,-2.9882,-2.9882,-2.9882,-2.9882,-2.9882,-3.0114,-3.023,-3.023,-3.0482,-3.0598,-3.0598,-3.0598,-3.0598,-3.0598,-3.0598,-3.0598,-3.0598,-3.0598,-3.0598,-3.0598,-3.0598,-3.0462,-3.023,-3.023,-2.9727,-2.8861,-2.7987,-2.7507,-2.7241,-2.6668,-2.6074,-2.5573,-2.5573,-2.5579,-2.5568,-2.5568,-2.5622,-2.5663,-2.5669,-2.5671,-2.5671,-2.5697,-2.5699,-2.5699,-2.5699,-2.5699,-2.5699,-2.5699,-2.5705,-2.5697,-2.5696,-2.5695,-2.5703,-2.5703,-2.5501,-2.5003,-2.3909,-2.3188,-2.2486,-2.1666,-2.1003,-2.0594,-2.0594,-2.0594,-2.0594,-2.0594,-2.0594,-2.0145,-1.9031,-1.8368,-1.7529,-1.6416,-1.5167,-1.4347,-1.4112,-1.3333,-1.2492,-1.1628,-1.1939,-1.1407,0.0,0.0,0.0,0.0,0.0,0.0,0.0,0.0,0.0,0.0,0.0,0.0,0.0,0.0,0.0,0.0,0.0,0.0,0.0,0.0,0.0,0.0,-2.5272,-2.6638,-2.6739,-2.7226,-2.7956,-2.9025,-2.951,-2.9974,-3.0432,-3.05,-3.053,-3.053,-3.053,-3.0684,-3.1032,-3.1081,-3.1275,-3.1637,-3.1657,-3.1657,-3.1657,-3.1657,-3.1657,-3.1637,-3.1275,-3.1101,-3.1101,-3.0752,-3.0598,-3.0598,-3.0598,-3.0598,-3.0598,-3.0598,-3.0308,-2.9766,0.0,0.0,0.0,0.0,-2.6791,-2.6104,-2.6104,-2.5882,-2.5608,-2.5608,-2.5643,-2.5699,-2.5699,-2.5699,-2.5699,-2.5699,-2.5699,-2.5699,-2.5699,-2.5699,-2.5699,-2.5699,-2.5699,-2.5707,-2.5694,-2.5693,-2.5702,-2.5703,-2.5696,0.0,-2.5023,-2.3911,-2.2818,-2.1978,-2.1139,-2.0594,-2.0594,-2.0594,-2.0594,-2.0594,-2.0594,-2.0242,-1.9362,-1.8836,0.0,0.0,0.0,-1.4854,-1.4131,-1.3333,0.0,0.0,0.0,0.0,0.0,0.0,0.0,0.0,-1.0325,-1.0531,0.0,0.0,0.0,0.0,0.0,0.0,0.0,0.0,0.0,0.0,0.0,0.0,0.0,0.0,0.0,0.0,-2.7221,-2.8803,-2.9008,-2.9275,-2.9429,-2.9333,-3.008,-3.0617,-3.0685,-3.0609,-3.0585,-3.0681,-3.0681,-3.1033,-3.1821,-3.1911,0.0,0.0,0.0,-3.3107,-3.3107,-3.3107,-3.3107,-3.3088,-3.2314,-3.1947,-3.1927,-3.112,-3.0733,-3.0733,-3.0636,-3.0598,-3.0598,-3.0598,-3.0598,-3.052,-2.9747,-2.89,-2.8154,-2.8158,-2.7644,-2.6941,-2.6847,0.0,0.0,-2.5632,-2.5645,-2.5699,-2.5699,-2.5699,-2.5699,-2.5699,-2.5699,-2.5699,-2.5699,-2.5699,-2.5699,-2.5699,-2.5699,-2.5707,-2.5694,-2.5693,-2.5702,-2.5703,-2.5696,-2.5707,-2.5707,-2.4341,-2.2955,-2.2075,-2.1257,-2.0711,-2.0613,-2.0594,-2.0594,-2.0594,-2.0594,0.0,-1.9519,-1.9362,-1.864,-1.7098,-1.6903,-1.6103,-1.4463,-1.3704,-1.3275,-1.3177,-1.3274,-1.3302,-1.3249,-1.4032,-1.4003,-1.3156,-1.2087,-1.2063,0.0,0.0,0.0,0.0,0.0,0.0,0.0,0.0,0.0,0.0,0.0,0.0,0.0,0.0,0.0,-2.6773,-2.8061,-2.9089,-2.9777,-3.0546,-3.081,-3.017,-3.0292,-3.0681,-3.1271,-3.1391,-3.1715,-3.237,-3.2428,-3.254,-3.281,-3.2845,-3.2933,-3.3088,-3.3107,-3.3107,-3.3107,-3.3107,-3.3107,-3.3107,-3.2933,0.0,-3.2817,-3.1966,-3.156,-3.1521,-3.0888,-3.0598,-3.0598,-3.0598,-3.0598,-3.0578,-3.0404,-2.9823,-2.9063,-2.9101,-2.8612,-2.7826,-2.7111,-2.6775,-2.655,-2.5888,-2.5695,-2.5699,-2.5699,-2.5699,0.0,-2.5699,-2.5699,-2.5699,-2.5699,-2.5699,-2.5699,-2.5699,-2.5699,-2.5707,-2.5694,-2.5693,-2.5702,-2.5703,-2.5696,-2.5707,-2.5707,-2.4847,-2.3852,-2.2974,-2.2154,-2.1392,-2.0691,-2.0594,-2.0594,-2.0594,-2.0594,-2.0535,-2.0359,-1.9694,-1.9167,-1.8816,-1.8133,-1.7275,-1.6239,-1.6045,-1.5634,-1.4928,-1.5607,-1.5952,-1.5942,-1.6706,-1.6962,-1.6734,-1.4467,-1.3831,0.0,0.0,0.0,0.0,0.0,0.0,0.0,0.0,0.0,0.0,0.0,-2.2722,-2.36,0.0,-2.7138,-2.7953,-2.8833,-2.9688,-3.0524,-3.1055,-3.1252,-3.0944,-3.1322,-3.1751,-3.2119,-3.2205,-3.241,-3.2814,-3.291,-3.3157,-3.3627,-3.371,-3.3944,-3.4389,-3.4408,-3.4408,-3.4408,-3.4408,-3.4408,-3.4408,-3.3963,-3.375,-3.3712,-3.2856,-3.2217,-3.1773,-3.1386,-3.0965,-3.0598,-3.0598,-3.0598,-3.0598,-3.0598,-3.0341,-2.9956,-2.9982,-2.9499,-2.8679,-2.7831,-2.7266,-2.6768,-2.5952,-2.5699,-2.5699,-2.5699,-2.5699,-2.5699,-2.5699,-2.5699,-2.5699,-2.5699,-2.5699,-2.5699,-2.5699,-2.5699,-2.5707,-2.5694,-2.5693,-2.5702,-2.5703,-2.5696,-2.5707,-2.5707,-2.5335,-2.4613,-2.3306,-2.2427,-2.1588,-2.0711,-2.0594,-2.0594,-2.0594,-2.0594,-2.0594,-2.0594,-1.9793,-1.9304,-1.9304,-1.8485,-1.7802,-1.7372,-1.7353,-1.7157,-1.6706,-1.7134,-1.7314,-1.7255,-1.7616,-1.7766,-1.7667,-1.6357,-1.5974,0.0,0.0,0.0,0.0,0.0,0.0,0.0,-2.0462,-2.1206,-2.2002,-2.3386,-2.47,-2.5572,-2.7339,-2.8817,-2.9139,-2.9726,-3.0446,-3.1299,-3.1591,-3.1743,-3.1912,-3.2436,-3.2852,-3.3003,-3.3032,-3.3118,-3.3311,-3.3404,-3.3749,-3.4447,-3.4588,-3.4974,-3.5684,-3.5704,-3.5704,-3.5704,-3.5704,-3.5704,-3.5684,-3.4993,-3.4645,-3.4626,-3.375,-3.2972,-3.23,-3.1947,-3.1347,-3.0598,-3.0598,-3.0598,-3.0598,-3.0598,-3.0598,-3.0602,-3.0602,-3.0215,-2.9512,-2.8538,-2.7746,-2.6983,-2.603,-2.5699,-2.5699,-2.5699,-2.5699,-2.5699,-2.5699,-2.5699,-2.5699,-2.5699,-2.5699,-2.5699,-2.5699,-2.5699,-2.5707,-2.5694,-2.569,-2.57,-2.5703,-2.5698,-2.5691,-2.5707,-2.5707,-2.516,-2.3599,-2.2661,-2.1822,-2.0964,-2.0691,-2.0594,-2.0594,-2.0594,-2.0594,-2.0594,-1.9968,-1.9558,-1.9558,-1.8895,-1.8427,-1.8251,-1.8251,-1.8251,-1.8249,-1.8251,-1.829,-1.8313,-1.8297,-1.823,-1.8129,-1.8094,-1.7994,-2.0845,-2.0028,-1.9826,-2.0552,-2.0903,-2.1623,0.0,-2.4378,-2.4662,-2.5477,-2.6406,-2.7316,-2.8135,-2.8514,-2.9196,-3.0673,-3.0995,-3.1336,-3.2151,-3.2937,-3.342,-3.3447,-3.3073,-3.3068,-3.3707,-3.3823,-3.4239,-3.5136,-3.51,-3.5192,-3.5513,-3.5549,-3.5607,-3.5704,-3.5704,-3.5704,-3.5704,-3.5704,-3.5704,-3.5704,-3.5607,-3.5549,-3.5535,-3.4645,-3.42,-3.4026,-3.2474,-3.1347,-3.0598,-3.0598,-3.0598,-3.0598,-3.0598,-3.0598,-3.0612,-3.0677,-3.0632,-3.0331,-2.8754,-2.813,-2.7782,-2.6205,-2.5699,-2.5699,-2.5699,-2.5699,-2.5699,-2.5699,-2.5699,-2.5699,-2.5699,-2.5699,-2.5699,-2.5699,-2.5699,-2.5707,-2.5694,-2.5701,-2.5691,-2.5703,-2.5702,-2.57,-2.5709,-2.5707,-2.5375,-2.4398,-2.352,-2.2662,-2.1861,-2.1081,-2.0594,-2.0594,-2.0594,-2.0594,-2.0594,-2.0516,-2.0457,-2.0457,-2.0359,-1.9968,-1.9187,-1.9148,-1.9145,-1.9156,-1.9145,-1.9508,-2.02,-2.0082,-2.0003,-1.9993,-1.9886,-1.9448,-2.3303,-2.2806,-2.2686,-2.3105,-2.362,-2.4336,-2.5444,-2.6084,-2.6546,-2.6887,-2.7619,-2.8294,-2.8646,-2.9082,-2.9783,-3.0995,-3.1204,-3.1667,-3.2975,-3.3032,-3.3126,-3.3638,-3.3108,-3.3172,-3.4364,-3.459,-3.4802,-3.5247,-3.5281,-3.5388,-3.5565,-3.559,-3.5614,-3.5704,-3.5704,-3.5704,-3.5704,-3.5704,-3.5704,-3.5704,-3.5704,-3.5704,-3.5684,-3.5322,-3.4601,-3.3576,-3.2333,-3.1347,-3.0598,-3.0598,-3.0598,-3.0598,-3.0598,-3.0598,-3.0607,-3.0633,-3.0672,-3.0526,-2.9363,-2.8627,-2.7996,-2.6788,-2.6089,-2.5699,-2.5699,-2.5699,-2.5699,-2.5699,-2.5699,-2.5699,-2.5699,-2.5699,-2.5699,-2.5699,-2.5699,-2.5703,-2.5696,-2.571,-2.5704,-2.5696,-2.5703,-2.5702,-2.5699,-2.5693,-2.559,-2.5218,-2.4418,-2.3559,-2.2701,-2.1862,-2.1159,-2.0652,-2.0594,-2.0594,-2.0594,-2.0594,-2.0594,-2.0594,-2.0594,-2.0437,-2.0066,-2.0066,-2.0064,-2.0061,-2.0064,-2.0192,-2.049,-2.04,-2.0338,-2.0292,-2.0205,-1.9987,-2.447,-2.4623,-2.496,-2.4847,-2.5653,-2.6503,-2.6543,-2.7221,-2.7828,-2.7828,-2.8464,-2.9025,-2.9025,-2.9518,-3.0257,-3.1355,-3.1526,-3.2122,-3.3809,-3.3297,-3.2994,-3.3619,-3.3025,-3.3088,-3.4443,-3.4694,-3.4893,-3.5136,-3.5211,-3.5296,-3.5437,-3.5443,-3.5509,-3.5645,-3.5631,-3.5662,-3.5704,-3.5704,-3.5704,-3.5704,-3.5704,-3.5704,-3.5704,-3.5704,-3.4756,-3.3068,-3.243,-3.156,-3.0598,-3.0598,-3.0598,-3.0598,-3.0598,-3.0598,-3.0602,-3.0595,-3.0637,-3.0563,-2.9742,-2.8918,-2.8065,-2.7188,-2.6355,-2.5699,-2.5699,-2.5699,-2.5699,-2.5699,-2.5699,-2.5699,-2.5699,-2.5699,-2.5699,-2.5699,-2.5699,-2.5699,-2.5699,-2.5696,-2.5692,-2.5698,-2.5699,-2.5703,-2.5703,-2.5696,-2.5707,-2.5707,-2.5159,-2.4437,-2.3579,-2.2739,-2.19,-2.1042,-2.0964,-2.0866,-2.0613,-2.0594,-2.0594,-2.0594,-2.0594,-2.0594,-2.0594,-2.0594,-2.0592,-2.057,-2.0592,-2.0562,-2.0508,-2.0424,-2.0385,-2.0334,-2.0237,-2.0192,-2.3638,-2.4679,-2.5791,-2.5065,-2.6185,-2.7449,-2.7456,-2.8085,-2.8665,-2.8665,-2.9309,-2.9859,-2.9859,-2.9878,-3.0446,-3.2094,-3.236,-3.2956,-3.4624,-3.4169,-3.3676,-3.3695,-3.2937,-3.2766,-3.3657,-3.3866,-3.4304,-3.5235,-3.5179,-3.5163,-3.5308,-3.5315,-3.5374,-3.549,-3.5515,-3.5578,-3.5704,-3.5704,-3.5704,-3.5704,-3.5704,-3.5704,-3.5704,-3.5704,-3.4756,-3.3107,-3.3068,-3.2121,-3.0598,-3.0598,-3.0598,-3.0598,-3.0598,-3.0598,-3.0598,-3.0598,-3.061,-3.0498,-2.9686,-2.8867,-2.8054,-2.7179,-2.6359,-2.5699,-2.5699,-2.5699,-2.5699,-2.5699,-2.5699,-2.5699,-2.5699,-2.5699,-2.5699,-2.5699,-2.5699,-2.5699,-2.5699,-2.5699,-2.5708,-2.5696,-2.5694,-2.5702,-2.5703,-2.5696,-2.5707,-2.5707,-2.5687,-2.5355,-2.4475,-2.3598,-2.276,-2.1958,-2.1861,-2.1529,-2.0672,-2.0594,-2.0594,-2.0594,-2.0594,-2.0594,-2.0594,-2.0594,-2.0569,-2.0499,-2.0569,-2.0564,-2.0498,-2.0428,-2.0402,-2.0385,-2.0257,-2.0192,-2.5064,-2.5887,-2.6889,-2.7261,-2.781,-2.8391,-2.896,-2.929,-2.9499,-2.9499,-2.9707,-2.9897,-2.9897,-2.9897,-3.0446,-3.2132,-3.2397,-3.2994,-3.4661,-3.4207,-3.3695,-3.3695,-3.2937,-3.2747,-3.3619,-3.374,-3.4108,-3.4969,-3.4991,-3.5027,-3.5163,-3.5163,-3.5227,-3.5367,-3.545,-3.5528,-3.5578,-3.5656,-3.5704,-3.5704,-3.5704,-3.5704,-3.5704,-3.5704,-3.4756,-3.3107,-3.3107,-3.214,-3.0598,-3.0598,-3.0598,-3.0598,-3.0598,-3.0598,-3.0598,-3.0598,-3.0607,-3.0576,-3.0339,-2.9353,-2.8154,-2.7861,-2.6821,-2.5699,-2.5699,-2.5699,-2.5699,-2.5699,-2.5699,-2.5699,-2.5699,-2.5699,-2.5699,-2.5699,-2.5699,-2.5699,-2.5699,-2.5699,-2.5703,-2.5692,-2.5706,-2.57,-2.5702,-2.57,-2.5707,-2.5707,-2.5707,-2.5395,-2.4514,-2.4144,-2.3637,-2.2799,-2.2701,-2.2369,-2.1529,-2.1451,-2.1217,-2.0633,-2.0594,-2.0594,-2.0594,-2.0594,-2.0592,-2.0569,-2.0592,-2.0565,-2.0498,-2.0437,-2.0388,-2.0328,-2.0246,-2.0506,-2.5784,-2.6703,-2.7792,-2.8441,-2.8841,-2.9215,-2.9767,-2.9688,-2.948,-2.948,-2.9233,-2.9033,-2.9033,-2.9033,-2.9696,-3.164,-3.1962,-3.2672,-3.4624,-3.4207,-3.3695,-3.3695,-3.2937,-3.2747,-3.3619,-3.3695,-3.4036,-3.4832,-3.4908,-3.5059,-3.5464,-3.5198,-3.5221,-3.5679,-3.5476,-3.539,-3.5509,-3.559,-3.5656,-3.5704,-3.5704,-3.5704,-3.5704,-3.5704,-3.4756,-3.3107,-3.3107,-3.214,-3.0598,-3.0598,-3.0598,-3.0598,-3.0598,-3.0598,-3.0598,-3.0598,-3.0598,-3.0607,-3.0649,-2.977,-2.8585,-2.8274,-2.7242,-2.6089,-2.5796,-2.5699,-2.5699,-2.5699,-2.5699,-2.5699,-2.5699,-2.5699,-2.5699,-2.5699,-2.5699,-2.5699,-2.5699,-2.5699,-2.5699,-2.5699,-2.5702,-2.57,-2.57,-2.5701,-2.5707,-2.5707,-2.5707,-2.5492,-2.4945,-2.4867,-2.4535,-2.3656,-2.3559,-2.3227,-2.2407,-2.2075,-2.1666,-2.11,-2.0769,-2.0594,-2.0594,-2.0594,-2.0594,-2.0594,-2.0594,-2.0588,-2.0535,-2.0449,-2.0534,-2.0797,-2.0704,-2.1128,-2.5899,-2.7182,-2.8489,-2.8623,-2.9274,-2.9888,-2.9888,-2.9282,-2.8703,-2.8703,-2.8066,-2.7494,-2.7494,-2.7532,-2.8358,-3.0795,-3.1223,-3.2122,-3.4567,-3.4245,-3.3752,-3.3752,-3.3032,-3.2861,-3.3676,-3.3752,-3.4093,-3.4908,-3.4965,-3.5325,-3.6168,-3.542,-3.5391,-3.6365,-3.5554,-3.5227,-3.547,-3.5483,-3.5553,-3.5698,-3.5704,-3.5704,-3.5704,-3.5704,-3.4756,-3.3107,-3.3107,-3.214,-3.0598,-3.0598,-3.0598,-3.0598,-3.0598,-3.0598,-3.0598,-3.0598,-3.0598,-3.0598,-3.0598,-3.0035,-2.9191,-2.8376,-2.7523,-2.6691,-2.5933,-2.5699,-2.5699,-2.5699,-2.5699,-2.5699,-2.5699,-2.5699,-2.5699,-2.5699,-2.5699,-2.5699,-2.5699,-2.5699,-2.5699,-2.5699,-2.5702,-2.57,-2.5701,-2.57,-2.5707,-2.5707,-2.5707,-2.5707,-2.5707,-2.5707,-2.5375,-2.4553,-2.4475,-2.4105,-2.3247,-2.2466,-2.2017,-2.1958,-2.1198,-2.0711,-2.0672,-2.0672,-2.0672,-2.0672,-2.0652,-2.0671,-2.0729,-2.0597,-2.0956,-2.1756,-2.1625,-2.1991,-2.7503,-2.8493,-2.9373,-2.941,-2.9622,-2.9834,-2.9834,-2.9242,-2.8703,-2.8703,-2.8066,-2.7494,-2.7494,-2.7991,-2.9006,-3.0882,-3.1696,-3.2747,-3.4643,-3.4718,-3.4586,-3.4586,-3.4396,-3.4358,-3.4567,-3.4586,-3.4946,-3.5799,-3.5874,-3.5979,-3.6187,-3.5998,-3.5989,-3.6236,-3.5501,-3.5138,-3.5203,-3.5409,-3.5522,-3.5547,-3.5656,-3.5704,-3.5704,-3.5704,-3.4756,-3.3107,-3.3107,-3.214,-3.0598,-3.0598,-3.0598,-3.0598,-3.0598,-3.0598,-3.0598,-3.0598,-3.0598,-3.0598,-3.0598,-2.9646,-2.8403,-2.8223,-2.7159,-2.5892,-2.5753,-2.5699,-2.5699,-2.5699,-2.5699,-2.5699,-2.5699,-2.5699,-2.5699,-2.5699,-2.5699,-2.5699,-2.5699,-2.5699,-2.5699,-2.5699,-2.5702,-2.5702,-2.5699,-2.5692,-2.5707,-2.5707,-2.5707,-2.5707,-2.5707,-2.5707,-2.5609,-2.5395,-2.5374,-2.5023,-2.4144,-2.387,-2.3481,-2.2838,-2.2584,-2.2193,-2.1588,-2.1568,-2.1568,-2.1568,-2.1529,-2.1815,-2.2462,-2.2373,-2.2436,-2.2582,-2.2455,-2.2853,-2.809,-2.8895,-2.9598,-2.9598,-2.971,-2.9677,-2.9284,-2.8661,-2.8043,-2.7622,-2.6923,-2.638,-2.6325,-2.7021,-2.8275,-3.0294,-3.1336,-3.2577,-3.4605,-3.4908,-3.4908,-3.4908,-3.4908,-3.504,-3.542,-3.5476,-3.5817,-3.6661,-3.6396,-3.6529,-3.7268,-3.6927,-3.6737,-3.6737,-3.5979,-3.5425,-3.5096,-3.5374,-3.5509,-3.549,-3.5645,-3.5704,-3.5684,-3.5303,-3.4389,-3.3088,-3.2701,-3.1792,-3.0598,-3.0598,-3.0598,-3.0598,-3.0598,-3.0598,-3.0598,-3.0598,-3.0598,-3.0598,-3.0598,-2.9721,-2.8578,-2.8265,-2.7518,-2.6603,-2.5907,-2.5699,-2.5699,-2.5699,-2.5699,-2.5699,-2.5699,-2.5699,-2.5699,-2.5699,-2.5699,-2.5699,-2.5699,-2.5699,-2.5707,-2.5692,-2.5692,-2.5703,-2.5692,-2.5707,-2.5707,-2.5707,-2.5707,-2.5707,-2.5707,-2.5707,-2.5707,-2.5707,-2.5707,-2.5492,-2.5003,-2.4613,-2.4183,-2.3696,-2.3306,-2.2896,-2.2446,-2.2427,-2.2427,-2.2427,-2.2388,-2.2617,-2.3095,-2.3037,-2.3154,-2.3476,-2.3321,-2.3725,-2.8244,-2.8872,-2.9501,-2.9501,-2.9542,-2.9397,-2.8565,-2.7819,-2.7048,-2.6183,-2.545,-2.491,-2.4813,-2.5558,-2.699,-2.9483,-3.0627,-3.2065,-3.4548,-3.4908,-3.4908,-3.4908,-3.4908,-3.5192,-3.595,-3.613,-3.6529,-3.7344,-3.6756,-3.704,-3.8614,-3.7874,-3.7306,-3.7078,-3.6396,-3.5714,-3.507,-3.5319,-3.5457,-3.5489,-3.5608,-3.5673,-3.5665,-3.48,-3.3924,-3.3049,-3.2179,-3.1347,-3.0598,-3.0598,-3.0598,-3.0598,-3.0598,-3.0598,-3.0598,-3.0598,-3.0598,-3.0598,-3.0598,-3.0037,-2.9165,-2.8352,-2.8064,-2.7723,-2.6178,-2.5699,-2.5699,-2.5699,-2.5699,-2.5699,-2.5699,-2.5699,-2.5699,-2.5699,-2.5699,-2.5699,-2.5699,-2.5699,-2.5697,-2.5696,-2.57,-2.5703,-2.5692,-2.5707,-2.5707,-2.5707,-2.5707,-2.5707,-2.5707,-2.5707,-2.5707,-2.5707,-2.5707,-2.5707,-2.5707,-2.5003,-2.4573,-2.4573,-2.3853,-2.3384,-2.3287,-2.3267,-2.3267,-2.3267,-2.3267,-2.3326,-2.3443,-2.3385,-2.3695,-2.4374,-2.4229,-2.4535,-2.8969,-2.9287,-2.9427,-2.9427,-2.8977,-2.8521,-2.8362,-2.7244,-2.6202,-2.6046,-2.534,-2.4746,-2.4723,-2.5469,-2.6926,-2.9408,-3.0602,-3.2065,-3.4548,-3.4908,-3.4908,-3.4908,-3.4908,-3.4965,-3.5116,-3.578,-3.6529,-3.7344,-3.7268,-3.7628,-3.8652,-3.7874,-3.6765,-3.5382,-3.5192,-3.505,-3.4945,-3.5096,-3.5227,-3.5345,-3.5463,-3.5596,-3.5665,-3.48,-3.3924,-3.3049,-3.2179,-3.1347,-3.0598,-3.0598,-3.0598,-3.0598,-3.0598,-3.0598,-3.0598,-3.0598,-3.0598,-3.0598,-3.0598,-3.0037,-2.9165,-2.8352,-2.7618,-2.6876,-2.5977,-2.5699,-2.5699,-2.5699,-2.5699,-2.5699,-2.5699,-2.5699,-2.5699,-2.5699,-2.5699,-2.5699,-2.5699,-2.5699,-2.5697,-2.5696,-2.57,-2.5703,-2.5692,-2.5707,-2.5707,-2.5707,-2.5707,-2.5707,-2.5707,-2.5707,-2.5707,-2.5707,-2.5707,-2.5707,-2.5707,-2.5551,-2.5473,-2.5473,-2.5336,-2.4926,-2.4203,-2.4164,-2.4164,-2.4164,-2.4164,-2.4535,-2.5258,-2.5186,-2.5192,-2.5263,-2.5135,-2.5111,-2.9285,-2.9396,-2.9396,-2.9396,-2.8845,-2.8166,-2.769,-2.6762,-2.5845,-2.5323,-2.4934,-2.4692,-2.4653,-2.541,-2.6564,-2.82,-2.923,-3.0717,-3.3204,-3.3573,-3.3922,-3.4794,-3.4908,-3.523,-3.6121,-3.6196,-3.6718,-3.7988,-3.7666,-3.778,-3.8652,-3.7476,-3.6415,-3.559,-3.5135,-3.4908,-3.4908,-3.5035,-3.513,-3.5195,-3.5409,-3.5534,-3.5538,-3.429,-3.3494,-3.303,-3.1734,-3.0965,-3.0598,-3.0598,-3.0598,-3.0598,-3.0598,-3.0598,-3.0598,-3.0598,-3.0598,-3.054,-3.0075,-2.965,-2.9087,-2.7824,-2.7149,-2.6653,-2.5918,-2.5699,-2.5699,-2.5699,-2.5699,-2.5699,-2.5699,-2.5699,-2.5699,-2.5699,-2.5699,-2.5699,-2.5699,-2.5699,-2.5697,-2.5696,-2.57,-2.5703,-2.5692,-2.5707,-2.5707,-2.5707,-2.5707,-2.5707,-2.5707,-2.5707,-2.5707,-2.5707,-2.5707,-2.5707,-2.5707,-2.5707,-2.5707,-2.5707,-2.5707,-2.5512,-2.5081,-2.5081,-2.5081,-2.5081,-2.5081,-2.5277,-2.5707,-2.5639,-2.5549,-2.5447,-2.536,-2.526,-2.9341,-2.9396,-2.9396,-2.9396,-2.8686,-2.7811,-2.7074,-2.6262,-2.546,-2.4664,-2.4582,-2.4637,-2.459,-2.5198,-2.6013,-2.7017,-2.7949,-2.9374,-3.1712,-3.2381,-3.3118,-3.4491,-3.4794,-3.542,-3.6727,-3.6472,-3.6756,-3.8064,-3.7533,-3.7438,-3.8121,-3.6927,-3.6112,-3.5941,-3.5249,-3.4908,-3.4908,-3.5,-3.507,-3.5105,-3.5311,-3.5347,-3.5162,-3.3724,-3.297,-3.2739,-3.1255,-3.0598,-3.0598,-3.0598,-3.0598,-3.0598,-3.0598,-3.0598,-3.0578,-3.0385,-3.0327,-3.0192,-2.9326,-2.8896,-2.8522,-2.7219,-2.6796,-2.6653,-2.5918,-2.5699,-2.5699,-2.5699,-2.5699,-2.5699,-2.5699,-2.5699,-2.5699,-2.5699,-2.5699,-2.5699,-2.5699,-2.5699,-2.5697,-2.5696,-2.57,-2.5703,-2.5692,-2.5707,-2.5707,-2.5707,-2.5707,-2.5707,-2.5707,-2.5707,-2.5707,-2.5707,-2.5707,-2.5707,-2.5707,-2.5707,-2.5707,-2.5707,-2.5707,-2.5707,-2.5707,-2.5707,-2.5707,-2.5707,-2.5707,-2.5707,-2.5707,-2.5647,-2.5556,-2.5395,-2.5352,-2.5274,-2.9174,-2.9396,-2.9396,-2.9396,-2.8199,-2.7018,-2.6907,-2.5735,-2.461,-2.4518,-2.4508,-2.4525,-2.4517,-2.464,-2.524,-2.6846,-2.7844,-2.9069,-3.0939,-3.2458,-3.3488,-3.3781,-3.4453,-3.4965,-3.5116,-3.578,-3.6263,-3.6415,-3.6358,-3.6358,-3.6434,-3.6282,-3.5836,-3.504,-3.4946,-3.4908,-3.4908,-3.4898,-3.4973,-3.5105,-3.513,-3.4856,-3.4295,-3.3339,-3.2543,-3.1869,-3.0984,-3.0598,-3.0598,-3.0598,-3.0598,-3.0598,-3.0598,-3.0598,-3.0501,-2.9708,-2.9422,-2.9287,-2.8416,-2.76,-2.6912,-2.6831,-2.6796,-2.6653,-2.5918,-2.5699,-2.5699,-2.5699,-2.5699,-2.5699,-2.5699,-2.5699,-2.5699,-2.5699,-2.5699,-2.5699,-2.5699,-2.5699,-2.5697,-2.5696,-2.57,-2.5703,-2.5692,-2.5707,-2.5707,-2.5707,-2.5707,-2.5707,-2.5707,-2.5707,-2.5707,-2.5707,-2.5707,-2.5707,-2.5707,-2.5707,-2.5707,-2.5707,-2.5707,-2.5707,-2.5707,-2.5707,-2.5707,-2.5707,-2.5707,-2.5707,-2.5707,-2.5685,-2.5588,-2.5399,-2.5392,-2.5318,-2.8523,-2.8988,-2.9396,-2.9396,-2.8133,-2.6907,-2.6907,-2.5671,-2.45,-2.45,-2.45,-2.45,-2.45,-2.4525,-2.4756,-2.5425,-2.5867,-2.673,-2.8461,-2.97,-3.0998,-3.2543,-3.3467,-3.4372,-3.5352,-3.5334,-3.5239,-3.5239,-3.5239,-3.5239,-3.5239,-3.5351,-3.5249,-3.4908,-3.4908,-3.4908,-3.4908,-3.4908,-3.4936,-3.4982,-3.4604,-3.4301,-3.4049,-3.2804,-3.2085,-3.1753,-3.0946,-3.0598,-3.0598,-3.0598,-3.0598,-3.0598,-3.0598,-3.0598,-3.0482,-2.9611,-2.9306,-2.9089,-2.7696,-2.6996,-2.6621,-2.6214,-2.6084,-2.6037,-2.5782,-2.5699,-2.5699,-2.5699,-2.5699,-2.5699,-2.5699,-2.5699,-2.5699,-2.5699,-2.5699,-2.5699,-2.5699,-2.5699,-2.5697,-2.5696,-2.57,-2.5703,-2.5692,-2.5707,-2.5707,-2.5707,-2.5707,-2.5707,-2.5707,-2.5707,-2.5707,-2.5707,-2.5707,-2.5707,-2.5707,-2.5707,-2.5707,-2.5707,-2.5707,-2.5707,-2.5707,-2.5707,-2.5707,-2.5707,-2.5707,-2.5707,-2.5707,-2.5707,-2.5591,-2.5399,-2.5447,-2.5367,-2.7966,-2.8542,-2.9025,-2.9025,-2.7947,-2.6832,-2.6591,-2.5485,-2.45,-2.45,-2.45,-2.45,-2.45,-2.45,-2.45,-2.45,-2.4737,-2.5422,-2.6894,-2.8033,-2.9392,-3.1166,-3.235,-3.3458,-3.4604,-3.4631,-3.4612,-3.4612,-3.4612,-3.4612,-3.4612,-3.474,-3.4831,-3.486,-3.4889,-3.4908,-3.4908,-3.4908,-3.4908,-3.4889,-3.423,-3.3815,-3.3595,-3.2306,-3.1611,-3.1405,-3.0849,-3.0598,-3.0598,-3.0598,-3.0598,-3.0598,-3.0598,-3.0443,-3.0114,-2.9248,-2.8741,-2.8315,-2.6841,-2.6358,-2.6254,-2.5751,-2.5601,-2.5613,-2.5684,-2.5699,-2.5699,-2.5699,-2.5699,-2.5699,-2.5699,-2.5699,-2.5699,-2.5699,-2.5699,-2.5699,-2.5699,-2.5699,-2.5697,-2.5696,-2.57,-2.5703,-2.5692,-2.5707,-2.5707,-2.5707,-2.5707,-2.5707,-2.5707,-2.5707,-2.5707,-2.5707,-2.5707,-2.5707,-2.5707,-2.5707,-2.5707,-2.5707,-2.5707,-2.5707,-2.5707,-2.5707,-2.5707,-2.5707,-2.5707,-2.5707,-2.5707,-2.5707,-2.5618,-2.5453,-2.5486,-2.5379,-2.7668,-2.8114,-2.8114,-2.8114,-2.7501,-2.6684,-2.5894,-2.5076,-2.45,-2.45,-2.45,-2.45,-2.45,-2.45,-2.45,-2.45,-2.5169,-2.6023,-2.6961,-2.8475,-2.9541,-2.9701,-3.1139,-3.2116,-3.2135,-3.3617,-3.4612,-3.4612,-3.4612,-3.4612,-3.4612,-3.4594,-3.4666,-3.4788,-3.4879,-3.4908,-3.4908,-3.4908,-3.4908,-3.4889,-3.4093,-3.3399,-3.2783,-3.1908,-3.1179,-3.0617,-3.0598,-3.0598,-3.0598,-3.0598,-3.0598,-3.0598,-3.0598,-3.0075,-2.921,-2.8339,-2.7464,-2.6609,-2.5797,-2.5507,-2.5523,-2.558,-2.5601,-2.5613,-2.5684,-2.5699,-2.5699,-2.5699,-2.5699,-2.5699,-2.5699,-2.5699,-2.5699,-2.5699,-2.5699,-2.5699,-2.5699,-2.5699,-2.5697,-2.5696,-2.57,-2.5703,-2.5692,-2.5707,-2.5707,-2.5707,-2.5707,-2.5707,-2.5707,-2.5707,-2.5707,-2.5707,-2.5707,-2.5707,-2.5707,-2.5707,-2.5707,-2.5707,-2.5707,-2.5707,-2.5707,-2.5707,-2.5707,-2.5707,-2.5707,-2.5707,-2.5707,-2.5707,-2.5651,-2.5604,-2.5529,-2.5387,-2.6312,-2.6851,-2.7278,-2.7278,-2.6665,-2.6024,-2.5764,-2.5076,-2.45,-2.45,-2.45,-2.45,-2.45,-2.45,-2.4685,-2.5224,-2.554,-2.581,-2.6106,-2.7522,-2.8779,-2.9415,-3.1885,-3.3545,-3.3545,-3.403,-3.4328,-3.4328,-3.4328,-3.4328,-3.4328,-3.4397,-3.4517,-3.4655,-3.4678,-3.473,-3.482,-3.4234,-3.3989,-3.4055,-3.274,-3.2022,-3.1821,-3.1072,-3.0631,-3.0479,-3.0554,-3.0598,-3.0598,-3.0598,-3.0598,-3.0598,-3.0598,-3.0075,-2.919,-2.832,-2.7445,-2.6586,-2.5778,-2.5507,-2.5503,-2.558,-2.5601,-2.5613,-2.5684,-2.5699,-2.5699,-2.5699,-2.5699,-2.5699,-2.5699,-2.5699,-2.5699,-2.5699,-2.5699,-2.5699,-2.5699,-2.5699,-2.5697,-2.5696,-2.5694,-2.5696,-2.5702,-2.57,-2.57,-2.57,-2.5694,-2.5707,-2.5707,-2.5707,-2.5707,-2.5707,-2.5707,-2.5707,-2.5707,-2.5707,-2.5707,-2.5707,-2.5707,-2.5707,-2.5707,-2.5707,-2.5707,-2.5707,-2.5707,-2.5707,-2.5707,-2.5707,-2.5642,-2.5524,-2.5466,-2.5365,-2.4838,-2.5652,-2.6338,-2.6338,-2.6015,-2.5615,-2.5317,-2.4853,-2.45,-2.45,-2.45,-2.45,-2.45,-2.45,-2.4667,-2.5169,-2.5243,-2.5466,-2.608,-2.7018,-2.8207,-2.9675,-3.1886,-3.3398,-3.3714,-3.4011,-3.4197,-3.4197,-3.4197,-3.4067,-3.3751,-3.3834,-3.3765,-3.3545,-3.395,-3.4193,-3.4266,-3.3418,-3.3034,-3.3157,-3.1872,-3.1332,-3.1408,-3.0689,-3.04,-3.0485,-3.0559,-3.0598,0.0,-3.0598,-3.0598,-3.0578,-3.023,-2.9573,-2.8707,-2.7832,-2.6981,-2.6184,-2.5662,-2.5507,-2.5499,-2.5544,-2.5582,-2.5609,-2.5689,-2.5699,-2.5699,-2.5699,-2.5699,-2.5699,-2.5699,-2.5699,-2.5699,-2.5699,-2.5699,-2.5699,-2.5699,-2.5708,-2.5708,-2.5697,-2.5698,-2.57,-2.5701,-2.5699,-2.5699,-2.5699,-2.5694,-2.5707,-2.5707,-2.5707,-2.5707,-2.5707,-2.5707,-2.5707,-2.5707,-2.5707,-2.5707,-2.5707,-2.5707,-2.5707,-2.5707,-2.5707,-2.5707,-2.5707,-2.5707,-2.5707,-2.5707,-2.5707,-2.5639,-2.5501,-2.5466,-2.5382,0.0,-2.4328,-2.5102,-2.513,-2.5273,-2.5216,-2.4482,-2.4324,0.0,-2.4314,-2.4314,-2.4351,-2.4407,-2.4407,-2.4444,-2.4574,-2.4592,-2.5132,-2.6684,-2.7055,-2.804,-3.04,-3.144,-3.2258,-3.302,-3.3751,-3.4179,-3.4123,-3.4104,-3.3751,-3.2953,-3.2908,-3.2574,-3.1831,-3.2703,-3.3231,-3.3298,-3.2434,-3.207,-3.2185,-3.1336,-3.1075,-3.1345,-3.0624,-3.039,-3.0583,-3.0593,-3.0598,-3.0598,-3.0598,-3.0559,-3.0424,-2.9611,-2.8726,-2.7817,-2.6996,-2.6184,-2.5507,-2.5507,-2.5507,-2.5496,-2.5505,-2.5546,-2.5615,-2.5673,-2.5699,-2.5699,-2.5699,-2.5699,-2.5699,-2.5699,-2.5699,-2.5699,-2.5699,-2.5699,-2.5699,-2.5701,-2.5704,-2.5705,-2.5699,-2.5703,-2.5701,-2.5692,-2.5709,-2.5728,-2.5787,-2.5747,-2.5746,-2.5863,-2.5824,-2.5824,-2.5883,-2.5883,-2.5863,-2.5805,-2.5746,-2.5707,-2.5707,-2.5707,-2.5707,-2.5707,-2.5707,-2.5707,-2.5707,-2.5707,-2.5707,-2.5707,-2.5707,-2.5639,-2.5501,-2.5501,-2.5425,-2.0456,0.0,-2.2288,-2.2391,-2.2529,-2.2609,0.0,-2.2514,-2.2598,-2.2598,-2.2598,-2.2784,-2.3397,-2.3508,-2.3925,-2.5197,-2.5429,-2.5764,-2.6758,-2.8523,-3.0177,-3.1385,-3.2778,-3.3714,-3.39,-3.4086,-3.3937,-3.3324,-3.328,-3.2915,-3.2128,-3.2072,-3.1998,-3.1812,-3.144,-3.159,-3.232,-3.1468,-3.1107,-3.1224,-3.0451,-3.0115,-3.0208,-3.0268,-3.0337,-3.0386,-3.0525,-3.0598,-3.0598,-3.0598,-3.0211,-2.9592,-2.9384,-2.8354,-2.6977,-2.6783,-2.6184,-2.5507,-2.5507,-2.5507,-2.5503,-2.5551,-2.5612,-2.5673,-2.5697,-2.5699,-2.5699,-2.5699,-2.5699,-2.5699,-2.5699,-2.5699,-2.5699,-2.5699,-2.5699,-2.5705,-2.5707,-2.5696,-2.5708,-2.5703,-2.5703,-2.5703,-2.5702,-2.57,-2.5934,-2.6598,-2.6123,-2.6175,-2.7522,-2.7113,-2.6957,-2.762,-2.7698,-2.7425,-2.6742,-2.6078,-2.5707,-2.5707,-2.5707,-2.5707,-2.5707,-2.5707,-2.5707,-2.5707,-2.5707,-2.5707,-2.5707,-2.5707,-2.5639,-2.5501,-2.5501,-2.5425,-1.8926,-2.0269,-2.1732,-2.18,-2.1947,-2.2081,-2.2155,-2.197,-2.1782,-2.1815,-2.1824,-2.208,-2.2943,-2.3108,-2.356,-2.4937,-2.515,-2.5559,-2.6721,-2.9341,-3.131,-3.1756,-3.289,-3.364,-3.364,-3.3324,-3.2927,-3.2481,-3.2462,-3.2109,-3.1292,-3.1255,-3.1087,-3.0716,-3.027,-3.0501,-3.1389,-3.0534,-3.0193,-3.033,-2.988,-2.9718,-2.9813,-3.0071,-3.0235,-3.0305,-3.0514,-3.0366,-2.9998,-2.9998,-2.9495,-2.8668,-2.8257,-2.7538,-2.6663,-2.63,-2.5874,-2.5507,-2.5507,-2.5507,-2.5503,-2.558,-2.5624,-2.5651,-2.5693,-2.5699,-2.5699,-2.5699,-2.5699,-2.5699,-2.5699,-2.5699,-2.5699,-2.5699,-2.5699,-2.5703,-2.5699,-2.6004,-2.6291,-2.6308,-2.6621,-2.6894,-2.689,-2.6889,-2.7044,-2.7532,-2.7195,-2.7229,-2.8186,-2.7893,-2.7776,-2.8244,-2.8303,-2.8108,-2.764,-2.6801,-2.6136,-2.5726,-2.5707,-2.5707,-2.5707,-2.5707,-2.5707,-2.5707,-2.5707,-2.5707,-2.5707,-2.5707,-2.5639,-2.5501,-2.5501,-2.5425,-1.8166,-2.0018,-2.1859,-2.1661,-2.1935,-2.2252,-2.2217,0.0,0.0,0.0,0.0,-2.1871,-2.283,-2.3078,-2.3492,-2.4511,-2.489,-2.554,-2.6888,-2.9694,-3.1626,-3.1626,-3.2332,-3.2816,-3.2816,-3.2202,-3.1756,-3.1626,-3.1626,-3.1273,-3.0456,-3.0418,-3.0103,-2.9415,-2.9396,-2.9764,-3.0519,-2.9785,-2.95,-2.9664,-2.9589,-2.9636,-2.982,-3.003,-3.0196,-3.031,-3.0365,-2.9979,-2.9287,-2.9171,-2.8591,-2.7739,-2.6996,-2.6625,-2.6435,-2.5758,-2.5507,-2.5507,-2.5507,-2.5496,-2.5511,-2.558,-2.5604,-2.5618,-2.5687,-2.5699,-2.5699,-2.5699,-2.5699,-2.5699,-2.5699,-2.5699,-2.5699,-2.5699,-2.5699,-2.574,-2.5868,-2.647,-2.7035,-2.7166,-2.7793,-2.8297,-2.8305,-2.8303,-2.8342,-2.8479,-2.8381,-2.8381,-2.8654,-2.8576,-2.8557,-2.8674,-2.8674,-2.8635,-2.8518,-2.7816,-2.7035,-2.6156,-2.5844,-2.5707,-2.5707,-2.5707,-2.5707,-2.5707,-2.5707,-2.5707,-2.5707,-2.5707,-2.5696,-2.5695,-2.5695,-2.5696,-1.8011,-1.9411,-2.0391,-1.9206,-2.0075,-2.1069,-2.0528,-2.0969,0.0,0.0,0.0,0.0,-2.2831,-2.3417,-2.4151,-2.5319,-2.6665,-2.7631,-2.7873,-2.9564,-3.0772,-3.0772,-3.1496,-3.1979,-3.1979,-3.1868,-3.1515,-3.0846,-3.0772,-3.0437,-2.9619,-2.9582,-2.9527,-2.9396,-2.9396,-2.9485,-2.9679,-2.9557,-2.9511,-2.9522,-2.9673,-2.9763,-2.9806,-3.013,-3.0286,-3.0273,-2.9737,-2.9418,-2.9248,-2.8494,-2.7696,-2.6899,-2.6745,-2.6281,-2.5662,-2.5546,-2.5507,-2.5507,-2.5507,-2.5495,-2.5511,-2.5589,-2.5599,-2.5608,-2.5671,-2.5699,-2.5699,-2.5699,-2.5699,-2.5699,-2.5699,-2.5699,-2.5699,-2.5699,-2.5699,-2.5909,-2.6649,-2.6908,-2.7225,-2.7962,-2.821,-2.8306,-2.8303,-2.8303,-2.8557,-2.93,-2.8771,-2.881,-3.0234,-2.9826,-2.965,-3.0332,-3.041,-3.0138,-2.9456,-2.928,-2.8831,-2.7952,-2.6527,-2.5707,-2.5707,-2.5707,-2.5707,-2.5707,-2.5707,-2.5707,-2.5707,-2.5707,-2.6006,-2.6605,-2.6605,-2.6912,-1.7449,-1.8362,-1.9159,-1.8903,-2.01,-2.1266,-2.1068,-2.1081,0.0,0.0,0.0,0.0,-2.2685,-2.3479,-2.4481,-2.608,-2.7334,-2.8096,-2.8096,-2.9545,-3.0604,-3.0604,-3.092,-3.1143,-3.1143,-3.0753,-3.0344,-2.9973,-2.9954,-2.9787,-2.9415,-2.9396,-2.9396,-2.9396,-2.9396,-2.9409,-2.945,-2.9491,-2.954,-2.9617,-2.9636,-2.9682,-2.9746,-2.9536,-2.9452,-2.9455,-2.8813,-2.8304,-2.7866,-2.7464,-2.6803,-2.6048,-2.6048,-2.5836,-2.5507,-2.5507,-2.5507,-2.5507,-2.5507,-2.5503,-2.551,-2.5583,-2.559,-2.5612,-2.5689,-2.5699,-2.5699,-2.5699,-2.5699,-2.5699,-2.5699,-2.5699,-2.5699,-2.5699,-2.5699,-2.5946,-2.68,-2.7332,-2.7924,-2.8824,-2.9348,-2.9659,-2.9651,-2.9649,-2.9786,-3.0196,-2.9904,-2.9922,-3.0703,-3.0489,-3.0392,-3.0761,-3.08,-3.0644,-3.0274,-2.9846,-2.9221,-2.8362,-2.7542,-2.7093,-2.7093,-2.7093,-2.7093,-2.7093,-2.7093,-2.7093,-2.7093,-2.7093,-2.7236,-2.7505,-2.7498,-2.7652,-1.7449,-1.7862,-1.8424,-1.9326,-2.0464,-2.1465,-2.1796,-2.1458,-2.1156,-2.1497,-2.1597,-2.1892,-2.2811,-2.3888,-2.5162,-2.6807,-2.7823,-2.8393,-2.8393,-2.9508,-3.0326,-3.0326,-3.0326,-3.0326,-3.0326,-2.975,-2.9396,-2.9396,-2.9396,-2.9304,-2.9099,-2.9099,-2.9006,-2.882,-2.8802,-2.8802,-2.8802,-2.8864,-2.9064,-2.9382,-2.9326,-2.9242,-2.9181,-2.8673,-2.8479,-2.8504,-2.7879,-2.7248,-2.6683,-2.6493,-2.6068,-2.5507,-2.5507,-2.5507,-2.5507,-2.5507,-2.5507,-2.5507,-2.5507,-2.5507,-2.5503,-2.558,-2.5601,-2.5613,-2.5684,-2.5699,-2.5699,-2.5699,-2.5699,-2.5699,-2.5699,-2.5699,-2.5701,-2.5708,-2.5866,-2.6247,-2.7114,-2.7957,-2.8804,-2.9704,-3.0386,-3.0795,-3.0803,-3.08,-3.08,-3.08,-3.08,-3.08,-3.08,-3.08,-3.08,-3.08,-3.08,-3.08,-3.08,-3.0235,-2.9591,-2.8928,-2.8518,-2.8303,-2.8303,-2.8303,-2.8303,-2.8303,-2.8303,-2.8303,-2.8303,-2.8303,-2.8335,-2.8407,-2.8382,-2.8439,-1.8741,-1.8683,-1.8545,-1.9975,-2.05,-2.0871,-2.1626,-2.1861,-2.2113,-2.2815,-2.3053,-2.3194,-2.341,-2.5124,-2.6728,-2.7442,-2.8539,-2.9304,-2.9304,-2.9396,-2.9489,-2.9489,-2.9489,-2.9489,-2.9489,-2.9434,-2.9396,-2.9396,-2.9396,-2.9043,-2.8244,-2.8189,-2.7854,-2.7092,-2.7074,-2.7074,-2.7074,-2.7083,-2.755,-2.8491,-2.8608,-2.8304,-2.7669,-2.7671,-2.772,-2.7737,-2.701,-2.6708,-2.6644,-2.5894,-2.5546,-2.5507,-2.5507,-2.5507,-2.5507,-2.5507,-2.5507,-2.5507,-2.5507,-2.5507,-2.5503,-2.558,-2.5601,-2.5613,-2.5684,-2.5699,-2.5699,-2.5699,-2.5699,-2.5699,-2.5699,-2.5699,-2.5707,-2.5692,-2.6323,-2.7153,-2.8027,-2.8886,-2.9743,-3.0552,-3.0764,-3.0803,-3.08,-3.08,-3.08,-3.08,-3.08,-3.08,-3.08,-3.08,-3.08,-3.08,-3.08,-3.08,-3.08,-3.0742,-3.0683,-3.0625,-2.9162,-2.8303,-2.8303,-2.8303,-2.8303,-2.8303,-2.8303,-2.8303,-2.8303,-2.8303,-2.8657,-2.9294,-2.9233,-2.9606,-1.7036,-1.7311,-1.7811,-1.9344,-2.0096,0.0,0.0,-2.2556,-2.3344,-2.3701,-2.4297,-2.4821,-2.5075,-2.5976,-2.6904,-2.7499,-2.8511,-2.9218,-2.9218,-2.9218,-2.9262,-2.9386,-2.8913,-2.8597,-2.8597,-2.8133,-2.7854,-2.7854,-2.7854,-2.7706,-2.7371,-2.7352,-2.7204,-2.6907,-2.6907,-2.6907,-2.6907,-2.6907,-2.686,-2.68,-2.7386,-2.7556,-2.7354,-2.6888,-2.6764,-2.6912,-2.6093,-2.5813,-2.5932,-2.5623,-2.5507,-2.5507,-2.5507,-2.5507,-2.5507,-2.5507,-2.5507,-2.5507,-2.5507,-2.5507,-2.5503,-2.558,-2.5601,-2.5613,-2.5684,-2.5699,-2.5699,-2.5699,-2.5699,-2.5699,-2.5699,-2.5699,-2.5707,-2.5694,-2.6364,-2.7233,-2.8105,-2.8982,-2.9839,-3.0648,-3.08,-3.08,-3.08,-3.08,-3.08,-3.08,-3.08,-3.08,-3.08,-3.08,-3.08,-3.08,-3.08,-3.08,-3.08,-3.08,-3.08,-3.08,-3.0215,-2.9844,-2.9844,-2.9844,-2.9844,-2.9844,-2.9844,-2.9844,-2.9844,-2.9844,-2.9986,-3.0219,-3.0137,-3.0257,-1.6622,-1.6812,-1.738,-1.8913,0.0,0.0,-2.1529,-2.2703,-2.3701,-2.4091,-2.4747,-2.5336,-2.562,-2.6132,-2.6662,-2.705,-2.8192,-2.8941,-2.8728,-2.8684,-2.8676,-2.8614,-2.8077,-2.7724,-2.7724,-2.7222,-2.6907,-2.6907,-2.6907,-2.6795,-2.6535,-2.6516,-2.6405,-2.6145,-2.6145,-2.6145,-2.6145,-2.6145,-2.5884,-2.5405,-2.5992,-2.6349,-2.6456,-2.5925,-2.5827,-2.6027,-2.545,-2.5303,-2.5507,-2.5507,-2.5507,-2.5507,-2.5507,-2.5507,-2.5507,-2.5507,-2.5507,-2.5507,-2.5507,-2.5507,-2.5499,-2.5548,-2.5573,-2.5607,-2.5647,-2.5687,-2.5697,-2.5671,-2.5675,-2.5699,-2.5699,-2.5707,-2.5761,-2.6042,-2.6788,-2.7652,-2.8514,-2.9389,-3.0147,-3.0686,-3.08,-3.08,-3.08,-3.08,-3.08,-3.08,-3.08,-3.08,-3.08,-3.08,-3.08,-3.08,-3.08,-3.08,-3.08,-3.08,-3.08,-3.08,-3.08,-3.08,-3.08,-3.08,-3.08,-3.08,-3.08,-3.08,-3.08,-3.08,-3.0771,-3.0728,-3.0659,-3.0609,-1.8183,-1.7604,-1.738,-1.8913,0.0,0.0,-2.1423,-2.2181,-2.2976,-2.3928,-2.4334,-2.4566,-2.4688,-2.547,-2.6092,-2.6092,-2.761,-2.8534,-2.7886,-2.7797,-2.7577,-2.698,-2.6888,-2.6888,-2.6888,-2.6869,-2.6869,-2.6869,-2.6869,-2.6535,-2.5726,-2.5689,-2.5317,-2.4537,-2.45,-2.45,-2.45,-2.45,-2.45,-2.45,-2.45,-2.4566,-2.4707,-2.4757,-2.4908,-2.5096,-2.5165,-2.5303,-2.5507,-2.5507,-2.5507,-2.5507,-2.5507,-2.5507,-2.5507,-2.5507,-2.5507,-2.5507,-2.5507,-2.5507,-2.5496,-2.5501,-2.5557,-2.5601,-2.5601,-2.5642,-2.5695,-2.5615,-2.5645,-2.5699,-2.5699,-2.5702,-2.5924,-2.6797,-2.7674,-2.8532,-2.94,-3.0235,-3.08,-3.08,-3.08,-3.08,-3.08,-3.08,-3.08,-3.08,-3.08,-3.08,-3.08,-3.08,-3.08,-3.08,-3.08,-3.08,-3.08,-3.08,-3.08,-3.08,-3.08,-3.08,-3.08,-3.08,-3.08,-3.08,-3.08,-3.08,-3.08,-3.08,-3.08,-3.08,-3.073,-3.0661,-1.657,-1.7191,-1.808,-1.9062,-2.0682,-2.2078,-2.2319,-2.294,0.0,-2.553,-2.5924,-2.587,-2.5536,-2.5817,-2.5877,-2.5213,-2.6123,-2.6825,-2.6636,-2.6731,-2.6811,-2.6767,-2.6339,-2.6061,-2.6061,-2.554,-2.5206,-2.5206,-2.5206,-2.5113,-2.4871,-2.4853,-2.4741,-2.4518,-2.45,-2.45,-2.45,-2.45,-2.45,-2.45,-2.45,-2.4559,-2.4621,-2.47,-2.4861,-2.509,-2.5116,-2.5268,-2.5507,-2.5507,-2.5507,-2.5507,-2.5507,-2.5507,-2.5507,-2.5507,-2.5507,-2.5507,-2.5507,-2.5507,-2.5496,-2.5501,-2.5557,-2.5601,-2.5601,-2.5642,-2.5695,-2.5615,-2.5642,-2.5693,-2.5707,-2.5698,-2.5917,-2.6796,-2.7676,-2.8532,-2.94,-3.0235,-3.08,-3.08,-3.08,-3.08,-3.08,-3.08,-3.08,-3.08,-3.08,-3.08,-3.08,-3.08,-3.08,-3.08,-3.08,-3.08,-3.08,-3.08,-3.08,-3.08,-3.08,-3.08,-3.08,-3.08,-3.08,-3.08,-3.08,-3.08,-3.08,-3.08,-3.08,-3.08,-3.073,-3.0682,-1.6337,-1.7449,-1.8803,-1.955,-2.1009,-2.2337,-2.263,-2.3338,-2.433,-2.5761,-2.5848,-2.5592,-2.5331,-2.5379,-2.5297,-2.4778,-2.5416,-2.5889,-2.5654,-2.58,-2.5865,-2.5729,-2.5421,-2.5224,-2.5224,-2.4778,-2.45,-2.45,-2.45,-2.45,-2.45,-2.45,-2.45,-2.45,-2.45,-2.45,-2.45,-2.45,-2.45,-2.45,-2.45,-2.4525,-2.4557,-2.4621,-2.4775,-2.4981,-2.5121,-2.5269,-2.5417,-2.548,-2.5507,-2.5507,-2.5507,-2.5507,-2.5507,-2.5507,-2.5507,-2.5507,-2.5507,-2.5507,-2.5496,-2.5503,-2.5534,-2.556,-2.5564,-2.5607,-2.5649,-2.5615,-2.5634,-2.5675,-2.5691,-2.5702,-2.6015,-2.7226,-2.7927,-2.8625,-2.9828,-3.047,-3.08,-3.08,-3.08,-3.08,-3.08,-3.08,-3.08,-3.08,-3.08,-3.08,-3.08,-3.08,-3.08,-3.08,-3.08,-3.08,-3.08,-3.08,-3.08,-3.08,-3.08,-3.08,-3.08,-3.08,-3.08,-3.08,-3.08,-3.08,-3.08,-3.08,-3.08,-3.08,-3.0764,-3.0726,-1.6964,-1.8138,-1.9481,-2.0308,-2.1113,-2.1871,-2.2543,-2.3353,-2.4185,-2.4934,-2.4711,-2.4417,-2.4486,-2.4511,-2.4513,-2.4581,-2.5158,-2.5403,-2.4851,-2.494,-2.4837,-2.4236,-2.433,-2.4465,-2.4474,-2.4482,-2.4482,-2.45,-2.45,-2.45,-2.45,-2.45,-2.45,-2.45,-2.45,-2.45,-2.45,-2.45,-2.45,-2.45,-2.45,-2.45,-2.45,-2.4574,-2.4689,-2.4836,-2.5165,-2.5293,-2.5293,-2.5444,-2.5507,-2.5507,-2.5507,-2.5507,-2.5507,-2.5507,-2.5507,-2.5507,-2.5507,-2.5507,-2.5507,-2.5507,-2.5499,-2.5508,-2.5503,-2.5547,-2.5601,-2.5607,-2.5598,-2.5623,-2.5681,-2.5759,-2.6247,-2.7896,-2.8303,-2.8752,-3.0449,-3.08,-3.08,-3.08,-3.08,-3.08,-3.08,-3.08,-3.08,-3.08,-3.08,-3.08,-3.08,-3.08,-3.08,-3.08,-3.08,-3.08,-3.08,-3.08,-3.08,-3.08,-3.08,-3.08,-3.08,-3.08,-3.08,-3.08,-3.08,-3.08,-3.08,-3.08,-3.08,-3.08,-3.08,-3.0768,-1.6669,-1.8127,-1.9631,-2.0992,-2.1906,-2.2492,-2.2664,-2.2863,-2.3257,-2.4155,-2.4683,-2.49,-2.4567,-2.4511,-2.4335,-2.385,-2.3898,-2.3945,-2.3819,-2.3927,-2.3966,-2.3816,-2.3988,-2.4153,-2.4248,-2.4257,-2.433,-2.4491,-2.45,-2.45,-2.45,-2.45,-2.45,-2.45,-2.45,-2.45,-2.45,-2.45,-2.45,-2.45,-2.45,-2.45,-2.4508,-2.4613,-2.4776,-2.4972,-2.5194,-2.5265,-2.5234,-2.5423,-2.5507,-2.5507,-2.5507,-2.5507,-2.5507,-2.5507,-2.5507,-2.5507,-2.5507,-2.5507,-2.5507,-2.5507,-2.5499,-2.5508,-2.5503,-2.5547,-2.5607,-2.5603,-2.5593,-2.5629,-2.5682,-2.6209,-2.698,-2.805,-2.8303,-2.8752,-3.0449,-3.08,-3.08,-3.08,-3.08,-3.08,-3.08,-3.08,-3.08,-3.08,-3.08,-3.08,-3.08,-3.08,-3.08,-3.08,-3.08,-3.08,-3.08,-3.08,-3.08,-3.08,-3.08,-3.08,-3.08,-3.08,-3.08,-3.08,-3.08,-3.08,-3.08,-3.08,-3.08,-3.08,-3.08,-3.0798,-1.6573,-1.8375,-2.0199,-2.1733,-2.2423,-2.2699,-2.2699,-2.2699,-2.2846,-2.3336,-2.3731,-2.3967,-2.3837,-2.3829,-2.3754,-2.3542,-2.3505,-2.3505,-2.3505,-2.362,-2.3703,-2.3703,-2.3886,-2.4036,-2.4105,-2.4096,-2.4163,-2.4339,-2.4367,-2.4402,-2.45,-2.45,-2.45,-2.45,-2.45,-2.45,-2.45,-2.45,-2.45,-2.45,-2.45,-2.4525,-2.4549,-2.4653,-2.4753,-2.4875,-2.5143,-2.5234,-2.5222,-2.5415,-2.5507,-2.5507,-2.5507,-2.5507,-2.5507,-2.5507,-2.5507,-2.5507,-2.5507,-2.5507,-2.5507,-2.5507,-2.5507,-2.5499,-2.5496,-2.5518,-2.5567,-2.5581,-2.5593,-2.5629,-2.5683,-2.6343,-2.7211,-2.8088,-2.8615,-2.9279,-3.0527,-3.08,-3.08,-3.08,-3.08,-3.08,-3.08,-3.08,-3.08,-3.08,-3.08,-3.08,-3.08,-3.08,-3.08,-3.08,-3.08,-3.08,-3.08,-3.08,-3.08,-3.08,-3.08,-3.08,-3.08,-3.08,-3.08,-3.08,-3.08,-3.08,-3.08,-3.08,-3.08,-3.08,-3.08,-3.08,-1.5959,-1.825,-2.0584,-2.213,-2.2612,-2.2699,-2.2699,-2.2699,-2.2699,-2.2699,-2.2699,-2.2777,-2.3033,-2.307,-2.3156,-2.3383,-2.3436,-2.3436,-2.3436,-2.3542,-2.3635,-2.3635,-2.3803,-2.3925,-2.3955,-2.3955,-2.4008,-2.4154,-2.4192,-2.4257,-2.4437,-2.4482,-2.45,-2.45,-2.45,-2.45,-2.45,-2.45,-2.45,-2.45,-2.45,-2.4534,-2.459,-2.4645,-2.47,-2.4727,-2.505,-2.5182,-2.5222,-2.5415,-2.5507,-2.5507,-2.5507,-2.5507,-2.5507,-2.5507,-2.5507,-2.5507,-2.5507,-2.5507,-2.5507,-2.5507,-2.5507,-2.5507,-2.5507,-2.5507,-2.5518,-2.5573,-2.5607,-2.5641,-2.5879,-2.6577,-2.7445,-2.8323,-2.9181,-2.9982,-3.0664,-3.08,-3.08,-3.08,-3.08,-3.08,-3.08,-3.08,-3.08,-3.08,-3.08,-3.08,-3.08,-3.08,-3.08,-3.08,-3.0937,-3.1016,-3.1016,-3.1152,-3.1249,-3.1249,-3.1249,-3.1249,-3.1249,-3.1093,-3.1016,-3.1016,-3.0878,-3.08,-3.08,-3.08,-3.08,-3.08,-3.08,-3.0878,-1.3523,-1.6566,-1.982,-2.1354,-2.2233,-2.2699,-2.2699,-2.2699,-2.2699,-2.2699,-2.2699,-2.2751,-2.2906,-2.2932,-2.2982,-2.3132,-2.3139,-2.3139,-2.3139,-2.3277,-2.3342,-2.3342,-2.3487,-2.3605,-2.3732,-2.3735,-2.3816,-2.4016,-2.4135,-2.421,-2.4229,-2.4411,-2.45,-2.45,-2.45,-2.45,-2.45,-2.45,-2.45,-2.45,-2.45,-2.4508,-2.4517,-2.4582,-2.4676,-2.4794,-2.5025,-2.5149,-2.5222,-2.5415,-2.5507,-2.5507,-2.5507,-2.5507,-2.5507,-2.5507,-2.5507,-2.5507,-2.5507,-2.5507,-2.5507,-2.5507,-2.5507,-2.5507,-2.5507,-2.5507,-2.5506,-2.5583,-2.56,-2.5781,-2.662,-2.7468,-2.8342,-2.9221,-3.004,-3.0664,-3.0781,-3.08,-3.08,-3.08,-3.08,-3.08,-3.08,-3.08,-3.08,-3.08,-3.08,-3.08,-3.08,-3.08,-3.08,-3.08,-3.1485,-3.1934,-3.1934,-3.2617,-3.3045,-3.3045,-3.3045,-3.3045,-3.3045,-3.2324,-3.1934,-3.1934,-3.1172,-3.08,-3.08,-3.08,-3.08,-3.08,-3.08,-3.1192,-1.4539,-1.6915,-1.9115,-2.1096,-2.1837,-2.2181,-2.2612,-2.2699,-2.2699,-2.2699,-2.2699,-2.2738,-2.2881,-2.2906,-2.2927,-2.3082,-2.3107,-2.3107,-2.3107,-2.3156,-2.3193,-2.3193,-2.3241,-2.3319,-2.3463,-2.3474,-2.3569,-2.3806,-2.3988,-2.4115,-2.4201,-2.4393,-2.45,-2.45,-2.45,-2.45,-2.45,-2.45,-2.45,-2.45,-2.45,-2.45,-2.45,-2.4542,-2.4623,-2.4768,-2.5006,-2.5143,-2.5222,-2.5415,-2.5507,-2.5507,-2.5507,-2.5507,-2.5507,-2.5507,-2.5507,-2.5507,-2.5507,-2.5507,-2.5507,-2.5507,-2.5507,-2.5507,-2.5507,-2.5507,-2.5506,-2.558,-2.5595,-2.5814,-2.6757,-2.7647,-2.8521,-2.9397,-3.0216,-3.08,-3.08,-3.08,-3.08,-3.08,-3.08,-3.08,-3.08,-3.08,-3.08,-3.08,-3.08,-3.08,-3.08,-3.1231,-3.1524,-3.1524,-3.2304,-3.2831,-3.2831,-3.3182,-3.3396,-3.3396,-3.3396,-3.3396,-3.3396,-3.3025,-3.2597,-3.211,-3.1231,-3.08,-3.08,-3.1289,-3.1524,-3.1543,-3.203,-3.2459,-1.4766,-1.6309,-1.7462,-1.9996,-2.0931,-2.1454,-2.225,-2.2561,-2.2699,-2.2699,-2.2699,-2.2725,-2.2829,-2.2855,-2.2881,-2.2982,-2.3008,-2.3008,-2.3008,-2.3033,-2.3057,-2.3057,-2.3082,-2.3139,-2.3289,-2.3301,-2.34,-2.3624,-2.3865,-2.4046,-2.4144,-2.4375,-2.45,-2.45,-2.45,-2.45,-2.45,-2.45,-2.45,-2.45,-2.45,-2.45,-2.45,-2.45,-2.4557,-2.4692,-2.4968,-2.5126,-2.5222,-2.5415,-2.5507,-2.5507,-2.5507,-2.5507,-2.5507,-2.5507,-2.5507,-2.5507,-2.5507,-2.5507,-2.5507,-2.5507,-2.5507,-2.5492,-2.5495,-2.5503,-2.5511,-2.5593,-2.5779,-2.6149,-2.7089,-2.7981,-2.8855,-2.969,-3.0353,-3.08,-3.08,-3.08,-3.08,-3.08,-3.08,-3.08,-3.08,-3.08,-3.08,-3.08,-3.08,-3.0878,-3.1094,-3.1699,-3.2187,-3.2402,-3.3202,-3.3728,-3.3728,-3.3923,-3.406,-3.406,-3.406,-3.406,-3.406,-3.3845,-3.3417,-3.2774,-3.1895,-3.1347,-3.1133,-3.2012,-3.2422,-3.2441,-3.3103,-3.3513,-1.219,-1.3224,-1.4184,-1.7241,-1.9142,-2.0531,-2.1462,-2.2199,-2.2699,-2.2699,-2.2699,-2.2699,-2.2712,-2.2712,-2.2712,-2.2725,-2.2725,-2.2725,-2.2725,-2.2829,-2.2919,-2.2919,-2.3015,-2.3139,-2.3289,-2.3301,-2.336,-2.3505,-2.381,-2.4006,-2.4016,-2.4321,-2.45,-2.45,-2.45,-2.45,-2.45,-2.45,-2.45,-2.45,-2.45,-2.45,-2.45,-2.45,-2.4551,-2.4613,-2.4888,-2.508,-2.5222,-2.5415,-2.5507,-2.5507,-2.5507,-2.5507,-2.5507,-2.5507,-2.5507,-2.5507,-2.5507,-2.5507,-2.5507,-2.5507,-2.5507,-2.5503,-2.5496,-2.5498,-2.5524,-2.5651,-2.6236,-2.7045,-2.7987,-2.8879,-2.9734,-3.0549,-3.0761,-3.08,-3.08,-3.08,-3.08,-3.08,-3.08,-3.08,-3.08,-3.08,-3.08,-3.08,-3.08,-3.1094,-3.1934,-3.2071,-3.2422,-3.324,-3.412,-3.4627,-3.4627,-3.5387,-3.5856,-3.5856,-3.5856,-3.5856,-3.5856,-3.5076,-3.4608,-3.4569,-3.371,-3.2851,-3.2032,-3.291,-3.3338,-3.3338,-3.3377,-3.3846,-1.1124,-1.2593,-1.4215,-1.6061,-1.7659,-1.9019,-1.9918,-2.1096,-2.1992,-2.1992,-2.2371,-2.2699,-2.2699,-2.2699,-2.2699,-2.2699,-2.2699,-2.2699,-2.2699,-2.2738,-2.2777,-2.2777,-2.2816,-2.2932,-2.3156,-2.318,-2.3265,-2.3494,-2.381,-2.3996,-2.3996,-2.4321,-2.45,-2.45,-2.45,-2.45,-2.45,-2.45,-2.45,-2.45,-2.45,-2.45,-2.45,-2.45,-2.4542,-2.4615,-2.4792,-2.4962,-2.5154,-2.5406,-2.5507,-2.5507,-2.5507,-2.5507,-2.5507,-2.5507,-2.5507,-2.5507,-2.5507,-2.5507,-2.5507,-2.5507,-2.5507,-2.5496,-2.5503,-2.5506,-2.5518,-2.5607,-2.6243,-2.7121,-2.8066,-2.8941,-2.9797,-3.0607,-3.08,-3.08,-3.08,-3.08,-3.08,-3.08,-3.08,-3.08,-3.08,-3.08,-3.0995,-3.1543,-3.1621,-3.1953,-3.2812,-3.3417,-3.3886,-3.4198,-3.5018,-3.5524,-3.5524,-3.5817,-3.5992,-3.5992,-3.5992,-3.5992,-3.5992,-3.5699,-3.5271,-3.4705,-3.4938,-3.4353,-3.2949,-3.3807,-3.4237,-3.4256,-3.4802,-3.5231,-1.0127,-1.1472,-1.3205,-1.4836,-1.6007,-1.719,-1.8886,-2.0084,-2.0958,-2.1487,-2.1992,-2.2406,-2.2647,-2.2699,-2.2699,-2.2699,-2.2699,-2.2699,-2.2699,-2.2699,-2.2699,-2.2699,-2.2699,-2.2803,-2.3065,-2.3107,-2.3217,-2.3482,-2.3757,-2.3927,-2.3996,-2.4247,-2.4429,-2.45,-2.45,-2.45,-2.45,-2.45,-2.45,-2.45,-2.45,-2.45,-2.45,-2.45,-2.4515,-2.4582,-2.4778,-2.4968,-2.5126,-2.5336,-2.5452,-2.5507,-2.5507,-2.5507,-2.5507,-2.5507,-2.5507,-2.5507,-2.5507,-2.5507,-2.5507,-2.5507,-2.5507,-2.5499,-2.5534,-2.554,-2.5605,-2.5977,-2.6703,-2.7574,-2.8496,-2.9372,-3.0169,-3.0708,-3.0822,-3.08,-3.08,-3.08,-3.08,-3.08,-3.08,-3.08,-3.08,-3.1036,-3.1426,-3.2013,-3.2343,-3.2851,-3.3729,-3.4334,-3.4803,-3.5115,-3.5641,-3.5992,-3.5992,-3.5992,-3.5992,-3.5992,-3.5992,-3.5992,-3.5992,-3.5992,-3.5738,-3.5154,-3.5719,-3.5426,-3.4275,-3.4842,-3.5135,-3.5154,-3.5738,-3.5992,0.0,0.0,0.0,-1.3376,-1.411,-1.5078,-1.8294,-1.9121,-1.9619,-2.1165,-2.1509,-2.1751,-2.2492,-2.263,-2.263,-2.263,-2.2664,-2.2699,-2.2699,-2.2699,-2.2699,-2.2699,-2.2699,-2.2803,-2.3082,-2.3107,-2.3217,-2.3464,-2.3631,-2.3795,-2.3996,-2.4125,-2.4303,-2.4491,-2.45,-2.45,-2.45,-2.45,-2.45,-2.45,-2.45,-2.45,-2.45,-2.45,-2.45,-2.4525,-2.484,-2.5037,-2.5101,-2.5245,-2.5376,-2.5507,-2.5507,-2.5507,-2.5507,-2.5507,-2.5507,-2.5507,-2.5507,-2.5507,-2.5507,-2.5507,-2.5507,-2.5518,-2.5571,-2.56,-2.5793,-2.6736,-2.7637,-2.8516,-2.9413,-3.0269,-3.0908,-3.0907,-3.0845,-3.08,-3.08,-3.08,-3.08,-3.08,-3.08,-3.08,-3.0839,-3.1543,-3.213,-3.2169,-3.291,-3.3748,-3.4627,-3.4744,-3.5057,-3.5914,-3.5992,-3.5992,-3.5992,-3.5992,-3.5992,-3.5992,-3.5992,-3.5992,-3.5992,-3.5992,-3.5992,-3.5992,-3.5992,-3.5992,-3.5992,-3.5992,-3.5992,-3.5992,-3.5992,-3.5992,-0.9289,0.0,0.0,0.0,0.0,0.0,-1.4497,-1.5694,-1.6968,-1.8659,-1.9418,-2.0041,-2.0882,-2.1044,-2.1044,-2.1044,-2.1975,-2.2699,-2.2699,-2.2699,-2.2699,-2.2699,-2.2699,-2.2764,-2.2944,-2.3028,-2.318,-2.3336,-2.3569,-2.3795,-2.3996,-2.4275,-2.4437,-2.45,-2.45,-2.45,-2.45,-2.45,-2.45,-2.45,-2.45,-2.45,-2.45,-2.45,-2.45,-2.4508,-2.4653,-2.4825,-2.5056,-2.5322,-2.5476,-2.5507,-2.5507,-2.5507,-2.5507,-2.5507,-2.5507,-2.5507,-2.5507,-2.5507,-2.5507,-2.5507,-2.5507,-2.5511,-2.5523,-2.5554,-2.5788,-2.6685,-2.7596,-2.8652,-3.0155,-3.072,-3.0894,-3.0909,-3.0887,-3.0865,-3.0801,-3.08,-3.08,-3.08,-3.08,-3.0995,-3.1621,-3.1934,-3.254,-3.3788,-3.4198,-3.4666,-3.5524,-3.5641,-3.5738,-3.5973,-3.5992,-3.5992,-3.5992,-3.5992,-3.5992,-3.5992,-3.5992,-3.5992,-3.5992,-3.5992,-3.5992,-3.5992,-3.5992,-3.5992,-3.5992,-3.5992,-3.5992,-3.5992,-3.5992,-3.5992,-0.9753,-1.0382,-1.1184,-1.1055,0.0,0.0,-1.3333,-1.4179,-1.5269,-1.761,-1.843,-1.907,-2.0193,-2.0394,-2.0394,-2.0394,-2.1165,-2.1854,-2.2181,-2.2509,-2.2699,-2.2699,-2.2699,-2.2751,-2.2893,-2.2982,-2.3107,-2.3289,-2.3502,-2.3756,-2.4057,-2.4348,-2.45,-2.45,-2.45,-2.45,-2.45,-2.45,-2.45,-2.45,-2.45,-2.45,-2.45,-2.45,-2.4542,-2.459,-2.461,-2.4785,-2.5061,-2.5274,-2.5427,-2.5507,-2.5507,-2.5507,-2.5507,-2.5507,-2.5507,-2.5507,-2.5507,-2.5507,-2.5507,-2.5507,-2.5507,-2.5503,-2.5502,-2.5797,-2.6314,-2.7206,-2.8375,-2.9629,-3.0644,-3.0897,-3.0897,-3.0894,-3.089,-3.0887,-3.0845,-3.0822,-3.0917,-3.127,-3.1348,-3.1621,-3.25,-3.2949,-3.3534,-3.4549,-3.5018,-3.5428,-3.5934,-3.5992,-3.5992,-3.5992,-3.5992,-3.5992,-3.5992,-3.5992,-3.5992,-3.5992,-3.5992,-3.5992,-3.5992,-3.5992,-3.5992,-3.5992,-3.5992,-3.5992,-3.5992,-3.5992,-3.5992,-3.5992,-3.5992,-3.5992,-1.0365,-1.0703,-1.1277,-1.1492,-1.1151,0.0,-1.3466,-1.359,-1.4058,-1.6914,-1.757,-1.8061,-1.9493,-1.9832,-1.9883,-1.9895,-2.0033,-2.0458,-2.1337,-2.2026,-2.244,-2.244,-2.244,-2.2492,-2.2607,-2.2732,-2.2885,-2.3117,-2.338,-2.3717,-2.4154,-2.4384,-2.45,-2.45,-2.45,-2.45,-2.45,-2.45,-2.45,-2.45,-2.45,-2.45,-2.45,-2.45,-2.4574,-2.4707,-2.4678,-2.4843,-2.5097,-2.5154,-2.5293,-2.5488,-2.5507,-2.5507,-2.5507,-2.5507,-2.5507,-2.5507,-2.5507,-2.5507,-2.5507,-2.5507,-2.5507,-2.5503,-2.5502,-2.615,-2.7098,-2.8088,-2.9587,-3.0898,-3.0898,-3.0898,-3.0897,-3.0897,-3.0894,-3.0909,-3.0908,-3.0846,-3.1095,-3.2052,-3.2169,-3.2402,-3.3377,-3.4198,-3.4725,-3.4822,-3.5504,-3.5992,-3.5992,-3.5992,-3.5992,-3.5992,-3.5992,-3.5992,-3.5992,-3.5992,-3.5992,-3.5992,-3.5992,-3.5992,-3.5992,-3.5992,-3.5992,-3.5992,-3.5992,-3.5992,-3.5992,-3.5992,-3.5992,-3.5992,-3.5992,-3.5992,-1.0949,-1.1435,-1.1856,-1.1333,-1.1548,0.0,-1.1217,-1.1436,-1.2008,-1.2937,-1.3598,-1.4366,-1.5509,-1.6231,-1.6651,-1.6758,-1.7821,-1.9096,-2.0458,-2.0768,-2.0842,-2.0842,-2.0842,-2.0854,-2.0891,-2.1571,-2.2038,-2.2087,-2.3111,-2.3827,-2.4036,-2.4339,-2.45,-2.45,-2.45,-2.45,-2.45,-2.45,-2.45,-2.45,-2.45,-2.45,-2.45,-2.45,-2.4574,-2.47,-2.4599,-2.4749,-2.5105,-2.5061,-2.5198,-2.5429,-2.5484,-2.5507,-2.5507,-2.5507,-2.5507,-2.5507,-2.5507,-2.5507,-2.5507,-2.5507,-2.5507,-2.5503,-2.5502,-2.615,-2.724,-2.8863,-3.0097,-3.0898,-3.0898,-3.0898,-3.0898,-3.0897,-3.0897,-3.0895,-3.0894,-3.089,-3.1335,-3.2858,-3.2581,-3.2597,-3.4178,-3.4588,-3.494,-3.5641,-3.5895,-3.5992,-3.5992,-3.5992,-3.5992,-3.5992,-3.5992,-3.5992,-3.5992,-3.5992,-3.5992,-3.5992,-3.5992,-3.5992,-3.5992,-3.5992,-3.5992,-3.5992,-3.5992,-3.5992,-3.5992,-3.5992,-3.5992,-3.5992,-3.5992,-3.5992,-1.1743,-1.1923,-1.2107,-1.1743,-1.1696,0.0,0.0,-1.1166,-1.1327,-1.2678,-1.2736,-1.2949,-1.4215,-1.4831,-1.5169,-1.5241,-1.6276,-1.7311,-1.8052,-1.9447,-2.0394,-2.0394,-2.0394,-2.0394,-2.0394,-2.0828,-2.1173,-2.1341,-2.25,-2.326,-2.3434,-2.4127,-2.45,-2.45,-2.45,-2.45,-2.45,-2.45,-2.45,-2.45,-2.45,-2.45,-2.45,-2.45,-2.4604,-2.4801,-2.466,-2.4832,-2.5184,-2.5132,-2.5214,-2.5408,-2.548,-2.5507,-2.5507,-2.5507,-2.5507,-2.5507,-2.5507,-2.5507,-2.5507,-2.5507,-2.5507,-2.5496,-2.5498,-2.6462,-2.7847,-2.9217,-3.0234,-3.0898,-3.0898,-3.0898,-3.0898,-3.0898,-3.0897,-3.0897,-3.0896,-3.0894,-3.1262,-3.2511,-3.2742,-3.3304,-3.5057,-3.5349,-3.5504,-3.5934,-3.5992,-3.5992,-3.5992,-3.5992,-3.5992,-3.5992,-3.5992,-3.5992,-3.5992,-3.5992,-3.5992,-3.5992,-3.5992,-3.5992,-3.5992,-3.5992,-3.5992,-3.5992,-3.5992,-3.5992,-3.5992,-3.5992,-3.5992,-3.5992,-3.5992,-3.5992,-1.2724,-1.2677,-1.2724,-1.2462,-1.2226,-1.209,0.0,0.0,0.0,-1.2946,-1.2584,-1.2365,-1.3589,-1.3978,-1.4135,-1.4153,-1.4899,-1.546,-1.546,-1.7683,-1.9361,-1.9516,-1.9654,-1.974,-1.974,-1.9878,-2.0223,-2.0798,-2.1604,-2.2296,-2.2813,-2.3721,-2.4306,-2.45,-2.45,-2.45,-2.45,-2.45,-2.45,-2.45,-2.45,-2.45,-2.45,-2.45,-2.4653,-2.4895,-2.4757,-2.4929,-2.5284,-2.5208,-2.5274,-2.5415,-2.5476,-2.5507,-2.5507,-2.5507,-2.5507,-2.5507,-2.5507,-2.5507,-2.5507,-2.5507,-2.5507,-2.553,-2.5704,-2.6898,-2.8393,-2.9312,-3.0215,-3.0898,-3.0898,-3.0898,-3.0898,-3.0898,-3.0898,-3.0897,-3.0897,-3.0896,-3.1149,-3.1949,-3.2805,-3.3894,-3.5489,-3.5896,-3.5992,-3.5992,-3.5992,-3.5992,-3.5992,-3.5992,-3.5992,-3.5992,-3.5992,-3.5992,-3.5992,-3.5992,-3.5992,-3.5992,-3.5992,-3.5992,-3.5992,-3.5992,-3.5992,-3.5992,-3.5992,-3.5992,-3.5992,-3.5992,-3.5992,-3.5992,-3.5992,-3.5992,-1.399,-1.4421,-1.4563,-1.3375,-1.3941,-1.4141,-1.1789,0.0,-1.1755,-1.0827,0.0,-1.1674,-1.2021,0.0,0.0,-1.2539,-1.3287,-1.3856,-1.3856,-1.4762,-1.5668,-1.6329,-1.6984,-1.7397,-1.7397,-1.8017,-1.9059,-2.0523,-2.0367,-2.0917,-2.255,-2.2988,-2.3572,-2.4481,-2.45,-2.45,-2.45,-2.45,-2.45,-2.45,-2.45,-2.45,-2.45,-2.45,-2.4653,-2.4895,-2.4757,-2.4929,-2.5284,-2.5168,-2.5239,-2.5415,-2.5476,-2.5507,-2.5507,-2.5507,-2.5507,-2.5507,-2.5507,-2.5507,-2.5507,-2.5507,-2.5507,-2.5642,-2.6418,-2.7381,-2.8388,-2.9261,-3.0173,-3.0898,-3.0898,-3.0898,-3.0898,-3.0898,-3.0898,-3.0898,-3.0898,-3.0898,-3.1131,-3.1932,-3.2809,-3.3704,-3.4676,-3.5489,-3.5992,-3.5992,-3.5992,-3.5992,-3.5992,-3.5992,-3.5992,-3.5992,-3.5992,-3.5992,-3.5992,-3.5992,-3.5992,-3.5992,-3.5992,-3.5992,-3.5992,-3.5992,-3.5992,-3.5992,-3.5992,-3.5992,-3.5992,-3.5992,-3.5992,-3.5992,-3.5992,-3.5992,-1.4313,-1.4828,-1.5208,-1.4081,-1.4358,-1.4452,-1.271,-1.1928,-1.1522,-1.1397,0.0,0.0,0.0,0.0,0.0,0.0,-1.196,-1.2317,-1.2317,-1.2611,-1.3588,-1.5658,-1.5796,-1.6055,-1.6915,-1.7311,-1.798,-1.9122,-1.9285,-2.0064,-2.1756,-2.2648,-2.3541,-2.4481,-2.45,-2.45,-2.45,-2.45,-2.45,-2.45,-2.45,-2.45,-2.45,-2.45,-2.4653,-2.4902,-2.4832,-2.5,-2.5303,-2.5279,-2.5322,-2.5397,-2.5436,-2.548,-2.5507,-2.5507,-2.5507,-2.5507,-2.5507,-2.5507,-2.5507,-2.5507,-2.5507,-2.5662,-2.6534,-2.7459,-2.8386,-2.9255,-3.0171,-3.0898,-3.0898,-3.0898,-3.0898,-3.0898,-3.0898,-3.0898,-3.0898,-3.0898,-3.1152,-3.1992,-3.2831,-3.3688,-3.4547,-3.5419,-3.5998,-3.5992,-3.5992,-3.5992,-3.5992,-3.5992,-3.5992,-3.5992,-3.5992,-3.5992,-3.5992,-3.5992,-3.5992,-3.5992,-3.5992,-3.5992,-3.5992,-3.5992,-3.5992,-3.5992,-3.5992,-3.5992,-3.5992,-3.5992,-3.5992,-3.5992,-3.5992,-3.5992,-1.4932,-1.5414,-1.5804,-1.4513,-1.4378,-1.4282,-1.318,-1.242,-1.2041,-1.24,-1.202,0.0,0.0,0.0,-1.1621,-1.1208,0.0,-1.1537,-1.1125,-1.1073,-1.2034,-1.465,-1.4865,-1.5297,-1.657,-1.6519,-1.6804,-1.7804,-1.8063,-1.9004,-2.0868,-2.2144,-2.3216,-2.4119,-2.4388,-2.45,-2.45,-2.45,-2.45,-2.45,-2.45,-2.45,-2.45,-2.45,-2.4653,-2.4902,-2.4902,-2.5056,-2.5308,-2.5351,-2.5389,-2.5403,-2.54,-2.5425,-2.5464,-2.5488,-2.5507,-2.5507,-2.5507,-2.5507,-2.5507,-2.5507,-2.5642,-2.5944,-2.6578,-2.7587,-2.8658,-2.9297,-3.0144,-3.0878,-3.0898,-3.0898,-3.0898,-3.0898,-3.0898,-3.0898,-3.0898,-3.1094,-3.1445,-3.207,-3.3047,-3.3964,-3.4588,-3.5425,-3.6004,-3.6,-3.5999,-3.5999,-3.5999,-3.5999,-3.5999,-3.5999,-3.5999,-3.5999,-3.5999,-3.5999,-3.5998,-3.5996,-3.5996,-3.5996,-3.5996,-3.5998,-3.5998,-3.5996,-3.5998,-3.5998,-3.5996,-3.5998,-3.5999,-3.5999,-3.5994,-3.5992,-1.6331,-1.6639,-1.6669,-1.4686,-1.4206,-1.3864,-1.2549,-1.3201,-1.3929,-1.3298,-1.4275,-1.5018,-1.4322,-1.4047,-1.3432,0.0,-1.2101,0.0,0.0,-1.0238,-1.0825,-1.2414,-1.3906,-1.5107,-1.5864,-1.5288,-1.5461,-1.6932,-1.6633,-1.7486,-1.9993,-2.1214,-2.2265,-2.3213,-2.4063,-2.45,-2.45,-2.45,-2.45,-2.45,-2.45,-2.45,-2.45,-2.45,-2.4653,-2.4902,-2.4902,-2.5056,-2.5308,-2.5308,-2.5346,-2.5398,-2.5402,-2.5404,-2.5406,-2.5484,-2.5507,-2.5507,-2.5507,-2.5507,-2.5507,-2.5507,-2.6029,-2.6667,-2.6687,-2.7958,-2.9376,-2.9394,-3.0078,-3.0826,-3.0878,-3.0898,-3.0898,-3.0898,-3.0898,-3.0898,-3.0898,-3.1562,-3.2168,-3.2187,-3.3535,-3.4668,-3.4706,-3.5427,-3.5991,-3.5991,-3.5991,-3.5991,-3.5991,-3.5991,-3.5991,-3.5991,-3.5991,-3.5991,-3.5991,-3.5991,-3.6009,-3.6004,-3.6004,-3.6004,-3.6004,-3.6009,-3.6009,-3.6004,-3.6009,-3.6009,-3.6004,-3.6009,-3.5991,-3.5991,-3.5999,-3.5992,-1.7592,-1.8221,-1.8372,-1.6092,-1.5697,-1.5339,-1.3319,-1.3571,-1.4006,-1.334,-1.4292,-1.5108,-1.4597,-1.4012,-1.3394,0.0,0.0,-1.1128,0.0,-1.0197,-1.0583,-1.1643,-1.3094,-1.3916,-1.3666,-1.4347,-1.521,-1.6191,-1.6368,-1.7516,-1.9966,-2.122,-2.2278,-2.3157,-2.4045,-2.45,-2.45,-2.45,-2.45,-2.45,-2.45,-2.45,-2.45,-2.45,-2.4653,-2.4902,-2.4902,-2.5056,-2.5308,-2.5308,-2.5313,-2.5346,-2.5379,-2.5402,-2.5404,-2.5476,-2.5507,-2.5507,-2.5507,-2.5507,-2.5507,-2.5507,-2.6048,-2.6803,-2.7387,-2.8423,-2.9519,-3.0043,-3.0484,-3.0803,-3.0829,-3.0877,-3.0898,-3.0898,-3.0898,-3.1055,-3.1641,-3.1992,-3.2539,-3.3633,-3.4316,-3.4883,-3.5469,-3.58,-3.5995,-3.5992,-3.5991,-3.5991,-3.5991,-3.5991,-3.5991,-3.5991,-3.5991,-3.5991,-3.5991,-3.5991,-3.5991,-3.6009,-3.6009,-3.6009,-3.6009,-3.5991,-3.5991,-3.6009,-3.5991,-3.5991,-3.6009,-3.5991,-3.5991,-3.5991,-3.6008,-3.6006,-1.8268,-1.8905,-1.917,-1.7222,-1.6809,-1.6391,-1.4526,-1.4705,-1.507,-1.4406,-1.5222,-1.6013,-1.5903,-1.5086,-1.4186,0.0,0.0,0.0,0.0,-1.0013,-1.029,-1.0555,-1.1902,-1.2845,-1.288,-1.3319,-1.4226,-1.5778,-1.6003,-1.7126,-1.9534,-2.1091,-2.2165,-2.2757,-2.3896,-2.45,-2.45,-2.45,-2.45,-2.45,-2.45,-2.45,-2.45,-2.45,-2.4653,-2.4902,-2.4902,-2.5056,-2.5308,-2.5308,-2.5308,-2.5308,-2.5365,-2.5407,-2.5402,-2.5444,-2.5484,-2.5507,-2.5507,-2.5507,-2.5507,-2.5507,-2.6242,-2.7271,-2.7836,-2.8865,-2.9924,-3.0454,-3.0656,-3.0732,-3.0795,-3.0831,-3.0877,-3.0898,-3.0898,-3.1133,-3.2012,-3.2422,-3.3047,-3.4434,-3.4941,-3.5332,-3.5898,-3.5996,-3.5996,-3.5994,-3.5994,-3.5994,-3.5994,-3.5994,-3.5994,-3.5994,-3.5994,-3.5994,-3.5994,-3.5993,-3.5992,-3.5992,-3.5992,-3.5992,-3.5992,-3.5993,-3.5993,-3.5992,-3.5993,-3.5993,-3.5992,-3.5993,-3.5994,-3.5994,-3.5994,-3.5994]},{"header":{"parameterUnit":"m.s-1","parameterCategory":1,"la1":30.6,"la2":29.2853,"lo1":-89.7004,"lo2":-87.6739,"dy":0.0162,"dx":0.0183,"nx":112,"ny":82,"refTime":"2025-02-24T06:00:00:Z","depth":0,"parameterNumber":3,"parameterNumberName":"V-component_of_WINDS"},"data":[0.0,0.0,0.0,0.0,0.0,0.0,0.0,0.0,0.0,0.0,0.0,0.0,0.0,0.0,0.0,0.0,0.0,0.0,0.0,0.0,0.0,0.0,0.0,0.0,0.0,0.0,0.0,0.0,0.0,0.0,0.0,0.0,0.0,0.0,0.0,0.0,0.0,0.0,0.0,0.0,0.0,0.0,0.0,0.0,0.0,0.0,0.0,0.0,0.0,0.0,0.0,0.0,0.0,0.0,0.0,0.0,0.0,0.0,0.0,0.0,0.0,0.0,0.0,0.0,0.0,0.0,0.0,0.0,0.0,0.0,0.0,0.0,0.0,0.0,0.0,0.0,0.0,0.0,0.0,0.0,0.0,0.0,0.0,0.0,0.0,0.0,0.0,0.0,0.0,0.0,-0.0583,-0.0621,-0.0673,-0.073,-0.078,-0.0724,-0.063,-0.0509,0.0,0.0,0.0,0.0,0.0,0.0,0.0,0.0,0.0,0.0,0.0,0.0,0.0,0.0,0.0,0.0,0.0,0.0,0.0,0.0,0.0,0.0,0.0,0.0,0.0,0.0,0.0,0.0,0.0,0.0,0.0,0.0,0.0,0.0,0.0,0.0,0.0,0.0,0.0,0.0,0.0,0.0,0.0,0.0,0.0,0.0,0.0,0.0,0.0,0.0,0.0,0.0,0.0,0.0,0.0,0.0,0.0,0.0,0.0,0.0,0.0,0.0,0.0,0.0,0.0,0.0,0.0,0.0,0.0,0.0,0.0,0.0,0.0,0.0,0.0,0.0,0.0,0.0,0.0,0.0,0.0,0.0,0.0,0.0,0.0,0.0,0.0,0.0,0.0,0.0,0.0,0.0,0.0,0.0,0.0,0.0,0.0,0.0,0.0,0.0,0.0,0.0,0.0,0.0,-0.0566,-0.0666,-0.0689,-0.0699,-0.0703,-0.065,-0.0588,-0.0508,0.0,0.0,0.0,0.0,0.0,0.0,0.0,0.0,0.0,0.0,0.0,0.0,0.0,0.0,0.0,0.0,0.0,0.0,0.0,0.0,0.0,0.0,0.0,0.0,0.0,0.0,0.0,0.0,0.0,0.0,0.0,0.0,0.0,0.0,0.0,0.0,0.0,0.0,0.0,0.0,0.0,0.0,0.0,0.0,0.0,0.0,0.0,0.0,0.0,0.0,0.0,0.0,0.0,0.0,0.0,0.0,0.0,0.0,0.0,0.0,0.0,0.0,0.0,0.0,0.0,0.0,0.0,0.0,0.0,0.0,0.0,0.0,0.0,0.0,0.0,0.0,0.0,0.0,0.0,0.0,0.0,0.0,0.0,0.0,0.0,0.0,0.0,0.0,0.0,0.0,0.0,0.0,0.0,0.0,0.0,0.0,0.0,0.0,0.0,0.0,0.0,0.0,0.0,-0.0546,-0.0584,-0.0686,-0.0697,-0.0697,-0.0697,-0.0643,-0.0565,-0.0508,-0.0464,0.0,0.0,0.0,0.0,0.0,0.0,0.0,0.0,0.0,0.0,0.0,0.0,0.0,0.0,0.0,0.0,0.0,0.0,0.0,0.0,0.0,0.0,0.0,0.0,0.0,0.0,0.0,0.0,0.0,0.0,0.0,0.0,0.0,0.0,0.0,0.0,0.0,0.0,0.0,0.0,0.0,0.0,0.0,0.0,0.0,0.0,0.0,0.0,0.0,0.0,0.0,0.0,0.0,0.0,0.0,0.0,0.0,0.0,0.0,0.0,0.0,0.0,0.0,0.0,0.0,0.0,0.0,0.0,0.0,0.0,0.0,0.0,0.0,0.0,0.0,0.0,0.0,0.0,0.0,0.0,0.0,0.0,0.0,0.0,0.0,0.0,0.0,0.0,0.0,0.0,0.0,0.0,0.0,0.0,0.0,0.0,0.0,0.0,0.0,0.0,0.0,0.0,-0.0612,-0.0642,-0.069,-0.0697,-0.0697,-0.0697,-0.0637,-0.0576,-0.0507,-0.0431,0.0,0.0,0.0,0.0,0.0,0.0,0.0,0.0,0.0,0.0,0.0,0.0,0.0,0.0,0.0,0.0,0.0,0.0,0.0,0.0,0.0,0.0,0.0,0.0,0.0,0.0,0.0,0.0,0.0,0.0,0.0,0.0,0.0,0.0,0.0,0.0,0.0,0.0,0.0,0.0,0.0,0.0,0.0,0.0,0.0,0.0,0.0,0.0,0.0,0.0,0.0,0.0,0.0,0.0,0.0,0.0,0.0,0.0,0.0,0.0,0.0,0.0,0.0,0.0,0.0,0.0,0.0,0.0,0.0,0.0,0.0,0.0,0.0,0.0,0.0,0.0,0.0,0.0,0.0,0.0,0.0,0.0,0.0,0.0,0.0,0.0,0.0,0.0,0.0,0.0,0.0,0.0,0.0,0.0,0.0,0.0,0.0,0.0,0.0,0.0,0.0,0.0,-0.0621,-0.069,-0.0696,-0.0697,-0.0697,-0.0697,-0.0637,-0.0573,-0.0506,-0.0442,0.0,0.0,0.0,0.0,0.0,0.0,0.0,0.0,0.0,0.0,0.0,0.0,0.0,0.0,0.0,0.0,0.0,0.0,0.0,0.0,0.0,0.0,0.0,0.0,0.0,0.0,0.0,0.0,0.0,0.0,0.0,0.0,0.0,0.0,0.0,0.0,0.0,0.0,0.0,0.0,0.0,0.0,0.0,0.0,0.0,0.0,0.0,0.0,0.0,0.0,0.0,0.0,0.0,0.0,0.0,0.0,0.0,0.0,0.0,0.0,0.0,0.0,0.0,0.0,0.0,0.0,0.0,0.0,0.0,0.0,0.0,0.0,0.0,0.0,0.0,0.0,0.0,0.0,0.0,0.0,0.0,0.0,0.0,0.0,0.0,0.0,0.0,0.0,0.0,0.0,0.0,0.0,0.0,0.0,0.0,0.0,0.0,0.0,0.0,0.0,0.0,0.0,-0.0573,-0.0656,-0.0693,-0.0697,-0.0689,-0.0693,-0.0642,-0.0564,-0.0498,0.0,0.0,0.0,0.0,0.0,0.0,0.0,0.0,0.0,0.0,0.0,0.0,0.0,0.0,0.0,0.0,0.0,0.0,0.0,0.0,0.0,0.0,0.0,0.0,0.0,0.0,0.0,0.0,0.0,0.0,0.0,0.0,0.0,0.0,0.0,0.0,0.0,0.0,0.0,0.0,0.0,0.0,0.0,0.0,0.0,0.0,0.0,0.0,0.0,0.0,0.0,0.0,0.0,0.0,0.0,0.0,0.0,0.0,0.0,0.0,0.0,0.0,0.0,0.0,0.0,0.0,0.0,0.0,0.0,0.0,0.0,0.0,0.0,0.0,0.0,0.0,0.0,0.0,0.0,0.0,0.0,0.0,0.0,0.0,0.0,0.0,0.0,0.0,0.0,0.0,0.0,0.0,0.0,0.0,0.0,0.0,0.0,0.0,0.0,0.0,0.0,0.0,-0.0498,-0.058,-0.0642,-0.0691,-0.0697,-0.0707,-0.0697,-0.0637,-0.0579,-0.0498,0.0,0.0,0.0,0.0,0.0,0.0,0.0,0.0,0.0,0.0,0.0,0.0,0.0,0.0,0.0,0.0,0.0,0.0,0.0,0.0,0.0,0.0,0.0,0.0,0.0,0.0,0.0,0.0,0.0,0.0,0.0,0.0,0.0,0.0,0.0,0.0,0.0,0.0,0.0,0.0,0.0,0.0,0.0,0.0,0.0,0.0,0.0,0.0,0.0,0.0,0.0,0.0,0.0,0.0,0.0,0.0,0.0,0.0,0.0,0.0,0.0,0.0,0.0,0.0,0.0,0.0,0.0,0.0,0.0,0.0,0.0,0.0,0.0,0.0,0.0,0.0,0.0,0.0,0.0,0.0,0.0,0.0,0.0,0.0,0.0,0.0,0.0,0.0,0.0,0.0,0.0,0.0,0.0,0.0,0.0,0.0,0.0,0.0,0.0,0.0,0.0,0.0,-0.05,-0.0618,-0.0707,-0.0694,-0.0697,-0.0707,-0.0697,-0.0638,-0.0574,0.0,0.0,0.0,0.0,0.0,0.0,0.0,0.0,0.0,0.0,0.0,0.0,0.0,0.0,0.0,0.0,0.0,0.0,0.0,0.0,0.0,0.0,0.0,0.0,0.0,0.0,0.0,0.0,0.0,0.0,0.0,0.0,0.0,0.0,0.0,0.0,0.0,0.0,0.0,0.0,0.0,0.0,0.0,0.0,0.0,0.0,0.0,0.0,0.0,0.0,0.0,0.0,0.0,0.0,0.0,0.0,0.0,0.0,0.0,0.0,0.0,0.0,0.0,0.0,0.0,0.0,0.0,0.0,0.0,0.0,0.0,0.0,0.0,0.0,0.0,0.0,0.0,0.0,0.0,0.0,0.0,0.0,0.0,0.0,0.0,0.0,0.0,0.0,0.0,0.0,0.0,0.0,0.0,0.0,0.0,0.0,0.0,0.0,0.0,0.0,0.0,0.0,0.0,-0.05,-0.0618,-0.0707,-0.0694,-0.0697,-0.0677,-0.0626,-0.0606,-0.0549,-0.0438,0.0,0.0,0.0,0.0,0.0,0.0,0.0,0.0,0.0,0.0,0.0,0.0,0.0,0.0,0.0,0.0,0.0,0.0,0.0,0.0,0.0,0.0,0.0,0.0,0.0,0.0,0.0,0.0,0.0,0.0,0.0,0.0,0.0,0.0,0.0,0.0,0.0,0.0,0.0,0.0,0.0,0.0,0.0,0.0,0.0,0.0,0.0,0.0,0.0,0.0,0.0,0.0,0.0,0.0,0.0,0.0,0.0,0.0,0.0,0.0,0.0,0.0,0.0,0.0,0.0,0.0,0.0,0.0,0.0,0.0,0.0,0.0,0.0,0.0,0.0,0.0,0.0,0.0,0.0,0.0,0.0,0.0,0.0,0.0,0.0,0.0,0.0,0.0,0.0,0.0,0.0,0.0,0.0,0.0,0.0,0.0,0.0,0.0,0.0,0.0,0.0,0.0,-0.0499,-0.0588,-0.0672,-0.0693,-0.0697,-0.0673,-0.0614,-0.0593,-0.0541,-0.0414,0.0,0.0,0.0,0.0,0.0,0.0,0.0,0.0,0.0,0.0,0.0,0.0,0.0,0.0,0.0,0.0,0.0,0.0,0.0,0.0,0.0,0.0,0.0,0.0,0.0,0.0,0.0,0.0,0.0,0.0,0.0,0.0,0.0,0.0,0.0,0.0,0.0,0.0,0.0,0.0,0.0,0.0,0.0,0.0,0.0,0.0,0.0,0.0,0.0,0.0,0.0,0.0,0.0,0.0,0.0,0.0,0.0,0.0,0.0,0.0,0.0,0.0,0.0,0.0,0.0,0.0,0.0,0.0,0.0,0.0,0.0,0.0,0.0,0.0,0.0,0.0,0.0,0.0,0.0,0.0,0.0,0.0,0.0,0.0,0.0,0.0,0.0,0.0,0.0,0.0,0.0,0.0,0.0,0.0,0.0,0.0,0.0,0.0,0.0,0.0,0.0,0.0,-0.0497,-0.0554,-0.0631,-0.0691,-0.0697,-0.0673,-0.0614,-0.0607,-0.0539,-0.0415,0.0,0.0,0.0,0.0,0.0,0.0,0.0,0.0,0.0,0.0,0.0,0.0,0.0,0.0,0.0,0.0,0.0,0.0,0.0,0.0,0.0,0.0,0.0,0.0,0.0,0.0,0.0,0.0,0.0,0.0,0.0,0.0,0.0,0.0,0.0,0.0,0.0,0.0,0.0,0.0,0.0,0.0,0.0,0.0,0.0,0.0,0.0,0.0,0.0,0.0,0.0,0.0,0.0,0.0,0.0,0.0,0.0,0.0,0.0,0.0,0.1055,0.0977,0.0,0.0,0.0,0.0,0.0,0.0,0.0,0.0,0.0,0.0,0.0,0.0,0.0,0.0,0.0,0.0,0.0,0.0,0.0,0.0,0.0,0.0,0.0,0.0,0.0,0.0,0.0,0.0,0.0,0.0,0.0,0.0,0.0,0.0,0.0,0.0,0.0,0.0,0.0,0.0,-0.0497,-0.0554,-0.0631,-0.0691,-0.0697,-0.0673,-0.0614,-0.0607,-0.0535,-0.0414,-0.0406,0.0,0.0,0.0,0.0,0.0,0.0,0.0,0.0,0.0,0.0,0.0,0.0,0.0,0.0,0.0,0.0,0.0,0.0,0.0,0.0,0.0,0.0,0.0,0.0,0.0,0.0,0.0,0.0,0.0,0.0,0.0,0.0,0.0,0.0,0.0,0.0,0.0,0.0,0.0,0.0,0.0,0.0,0.0,0.0,0.0,0.0,0.0,0.0,0.0,0.0,0.0,0.0,0.0,0.0,0.0,0.0,0.0,0.0,0.0,0.1368,0.1156,0.0,0.0,0.0,0.0,0.0,0.0,0.0,0.0,0.0,0.0,0.0,0.0,0.0,0.0,0.0,0.0,0.0,0.0,0.0,0.0,0.0,0.0,0.0,0.0,0.0,0.0,0.0,0.0,0.0,0.0,0.0,0.0,0.0,0.0,0.0,0.0,0.0,0.0,0.0,0.0,-0.0533,-0.0581,-0.0631,-0.0691,-0.0697,-0.0673,-0.0614,-0.0595,-0.0549,-0.0462,-0.0415,0.0,0.0,0.0,0.0,0.0,0.0,0.0,0.0,0.0,0.0,0.0,0.0,0.0,0.0,0.0,0.0,0.0,0.0,0.0,0.0,0.0,0.0,0.0,0.0,0.0,0.0,0.0,0.0,0.0,0.0,0.0,0.0,0.0,0.0,0.0,0.0,0.0,0.0,0.0,0.0,0.0,0.0,0.0,0.0,0.0,0.0,0.0,0.0,0.0,0.0,0.0,0.0,0.0,0.1599,0.1777,0.2036,0.2036,0.219,0.2417,0.1807,0.1566,0.157,0.1439,0.0,0.0,0.0,0.0,0.0,0.0,0.0,0.0,0.0,0.0,0.0,0.0,0.0,0.0,0.0,0.0,0.0,0.0,0.0,0.0,0.0,0.0,0.1126,0.0896,0.0614,0.03,-0.0085,0.0,0.0,0.0,0.0,0.0,0.0,0.0,0.0,0.0,0.0,0.0,-0.059,-0.0614,-0.0637,-0.0691,-0.0697,-0.0673,-0.0614,-0.0609,-0.0571,-0.0498,-0.0442,-0.0417,0.0,0.0,0.0,0.0,0.0,0.0,0.0,0.0,0.0,0.0,0.0,0.0,0.0,0.0,0.0,0.0,0.0,0.0,0.0,0.0,0.0,0.0,0.0,0.0,0.0,0.0,0.0,0.0,0.0,0.0,0.0,0.0,0.354,0.3462,0.0,0.0,0.0,0.0,0.0,0.0,0.0,0.0,0.0,0.0,0.0,0.0,0.0,0.2158,0.2158,0.2298,0.2364,0.2342,0.2459,0.2565,0.2592,0.2592,0.2625,0.2663,0.2557,0.0,0.2256,0.2117,0.0,0.0,0.0,0.0,0.0,0.0,0.0,0.0,0.0,0.0,0.0,0.0,0.0,0.0,0.0,0.0,0.0,0.0,0.0,0.0,0.0,0.0,0.1437,0.1069,0.0668,0.0319,0.0044,-0.0246,-0.0473,-0.0487,-0.0484,-0.0468,0.0,0.0,0.0,0.0,0.0,0.0,-0.0593,-0.0652,-0.0682,-0.0693,-0.0697,-0.0673,-0.0614,-0.0609,-0.0571,-0.0498,-0.0489,-0.0461,-0.0401,-0.0397,0.0,0.0,0.0,0.0,0.0,0.0,0.0,0.0,0.0,0.0,0.0,0.0,0.0,0.0,0.0,0.0,0.0,0.0,0.0,0.0,0.0,0.0,0.0,0.0,0.0,0.0,0.0,0.0,0.0,0.3459,0.37,0.367,0.3788,0.3666,0.0,0.0,0.0,0.0,0.0,0.0,0.0,0.0,0.0,0.2742,0.2563,0.2473,0.2473,0.2631,0.2701,0.2628,0.2757,0.2849,0.2938,0.2938,0.3023,0.3193,0.3193,0.3167,0.3045,0.2554,0.2269,0.2097,0.0,0.0,0.0,0.0,0.2065,0.2034,0.2259,0.2303,0.2277,0.2264,0.0,0.0,0.0,0.0,0.0,0.0,0.0,0.1311,0.1396,0.1486,0.1517,0.1376,0.086,0.0367,0.0241,-0.025,-0.0639,-0.0562,-0.0558,-0.0522,-0.0419,-0.043,0.0,0.0,0.0,-0.0546,-0.0644,-0.0678,-0.0707,-0.0694,-0.0697,-0.0673,-0.0614,-0.0609,-0.0578,-0.0506,-0.0502,-0.0481,-0.0455,-0.0422,-0.0382,0.0,0.0,0.0,0.0,0.0,0.0,0.0,0.0,0.0,0.0,0.0,0.0,0.0,0.0,0.0,0.0,0.0,0.0,0.0,0.0,0.0,0.0,0.0,0.0,0.0,0.0,0.0,0.0,0.3832,0.3979,0.4056,0.4119,0.396,0.0,0.0,0.0,0.0,0.0,0.0,0.3463,0.3257,0.3139,0.3193,0.3026,0.2932,0.2932,0.3076,0.3114,0.3016,0.3114,0.3197,0.3297,0.3297,0.3442,0.3675,0.3675,0.3656,0.361,0.2973,0.2661,0.256,0.2651,0.2541,0.2385,0.2652,0.2647,0.2515,0.274,0.2769,0.2725,0.27,0.2649,0.2517,0.2275,0.0,0.0,0.0,0.0,0.1434,0.1524,0.1557,0.158,0.1651,0.1012,0.0414,0.041,-0.023,-0.0778,-0.0644,-0.0616,-0.0597,-0.0472,-0.0486,0.0,-0.0532,-0.0525,-0.057,-0.0685,-0.0702,-0.0694,-0.0695,-0.0697,-0.0673,-0.0614,-0.0609,-0.0565,-0.0508,-0.0501,-0.05,-0.0493,-0.043,-0.0402,-0.0395,0.0,0.0,0.0,0.0,0.0,0.0,0.0,0.0,0.0,0.0,0.0,0.0,0.0,0.0,0.0,0.0,0.0,0.0,0.0,0.0,0.0,0.0,0.0,0.0,0.0,0.0,0.0,0.0,0.0,0.4733,0.4642,0.0,0.0,0.0,0.0,0.3388,0.2984,0.2915,0.3389,0.3268,0.3378,0.3742,0.3811,0.3845,0.3845,0.3859,0.3831,0.3826,0.3831,0.3861,0.3856,0.3856,0.3856,0.3887,0.3887,0.3852,0.3756,0.3463,0.32,0.2973,0.2897,0.2732,0.253,0.2788,0.2924,0.3004,0.3261,0.3371,0.3385,0.3493,0.3271,0.2913,0.2571,0.2237,0.0,0.0,0.1573,0.1689,0.1696,0.174,0.1783,0.1788,0.1088,0.0415,0.0481,-0.0239,-0.0848,-0.0731,-0.0691,-0.0664,-0.0611,0.0,-0.0597,-0.0597,-0.0586,-0.0616,-0.0691,-0.0699,-0.0695,-0.0697,-0.0697,-0.0673,-0.0614,-0.0609,-0.0565,-0.0508,-0.0503,-0.0506,-0.0493,-0.0435,-0.0406,-0.0404,-0.0333,0.0,0.0,0.0,0.0,0.0,0.0,0.0,0.0,0.0,0.0,0.0,0.0,0.0,0.0,0.0,0.0,0.0,0.0,0.0,0.0,0.0,0.0,0.0,0.0,0.0,0.0,0.0,0.0,0.4737,0.4723,0.0,0.4221,0.3836,0.3642,0.3661,0.338,0.3372,0.3711,0.3666,0.3708,0.3868,0.3881,0.3903,0.3903,0.3981,0.3981,0.3905,0.3984,0.3978,0.3903,0.3903,0.3903,0.3903,0.3903,0.3878,0.3863,0.3749,0.3597,0.3376,0.3363,0.3294,0.3213,0.3321,0.3374,0.3408,0.349,0.352,0.3498,0.3345,0.3057,0.2756,0.2402,0.2222,0.2068,0.1778,0.1732,0.1764,0.1764,0.1781,0.1797,0.1797,0.1319,0.0783,0.0497,-0.0028,-0.0514,-0.0789,-0.0789,-0.0747,-0.0678,-0.0658,-0.0658,-0.0599,-0.0639,-0.0669,-0.0699,-0.0691,-0.0697,-0.0697,-0.0697,-0.0673,-0.0614,-0.0609,-0.0565,-0.0508,-0.0503,-0.0504,-0.0493,-0.0433,-0.0403,-0.0406,-0.0376,-0.0344,0.0,0.0,0.0,0.0,0.0,0.0,0.0,0.0,0.0,0.0,0.0,0.0,0.0,0.0,0.0,0.0,0.0,0.0,0.0,0.0,0.0,0.0,0.0,0.0,0.0,0.4667,0.4803,0.491,0.4816,0.4646,0.4397,0.4033,0.3843,0.3843,0.3709,0.3725,0.3903,0.3943,0.3965,0.3965,0.4005,0.4027,0.4027,0.414,0.414,0.4027,0.414,0.4105,0.4027,0.4027,0.4027,0.4027,0.4027,0.4003,0.3965,0.3965,0.3849,0.3697,0.3684,0.3646,0.3613,0.3613,0.3613,0.3613,0.3613,0.3527,0.3385,0.316,0.2912,0.2635,0.2296,0.2212,0.2156,0.188,0.1797,0.1797,0.1797,0.1797,0.1797,0.1797,0.1431,0.101,0.0701,0.0196,-0.0278,-0.0599,-0.0764,-0.0822,-0.0741,-0.0744,-0.0718,-0.0646,-0.0676,-0.0697,-0.0695,-0.0697,-0.0697,-0.0697,-0.0697,-0.0673,-0.0614,-0.0609,-0.0565,-0.0508,-0.0503,-0.0503,-0.0493,-0.0432,-0.0403,-0.0406,-0.0398,-0.0399,-0.0403,0.0,0.0,0.0,0.0,0.0,0.0,0.0,0.0,0.0,0.0,0.0,0.0,0.0,0.0,0.0,0.0,0.0,0.0,0.0,0.0,0.0,0.0,0.0,0.5578,0.5319,0.5192,0.5371,0.4914,0.4529,0.4335,0.4084,0.3916,0.3916,0.3916,0.3916,0.3916,0.4027,0.4092,0.4092,0.4238,0.43,0.43,0.43,0.43,0.43,0.43,0.43,0.43,0.43,0.43,0.43,0.43,0.4232,0.4092,0.4092,0.4019,0.3897,0.3835,0.372,0.3596,0.3591,0.3585,0.3583,0.3583,0.3357,0.3074,0.3074,0.2884,0.2607,0.2296,0.2183,0.2128,0.188,0.1797,0.1797,0.1797,0.1797,0.1797,0.1797,0.1459,0.1122,0.1094,0.0421,-0.0196,-0.0196,-0.0573,-0.0888,-0.0826,-0.0791,-0.078,-0.0703,-0.0697,0.0,-0.0697,-0.0697,-0.0697,-0.0697,-0.0697,-0.0674,-0.0615,-0.0609,-0.0566,-0.0509,-0.0504,-0.0506,-0.0493,-0.0436,-0.0395,-0.0406,-0.0412,-0.0477,-0.0603,0.0,0.0,0.0,0.0,0.0,0.0,0.0,0.0,0.0,0.0,0.0,0.0,0.0,0.0,0.0,0.0,0.0,0.0,0.0,0.0,0.0,0.5414,0.5354,0.5056,0.5325,0.5408,0.5063,0.4864,0.4785,0.4874,0.447,0.42,0.42,0.42,0.42,0.42,0.4232,0.4249,0.4249,0.4284,0.43,0.43,0.43,0.43,0.43,0.43,0.43,0.43,0.43,0.43,0.43,0.43,0.4281,0.4249,0.4249,0.4178,0.4024,0.3933,0.3835,0.3768,0.3481,0.3201,0.2942,0.2942,0.2717,0.2434,0.2434,0.227,0.202,0.1936,0.1908,0.1908,0.1825,0.1797,0.1797,0.1797,0.1797,0.1797,0.1797,0.1713,0.1515,0.1178,0.0645,0.014,-0.014,-0.0584,-0.09,-0.0887,-0.0835,-0.0785,-0.078,-0.0733,-0.0697,-0.0697,-0.0697,-0.0697,-0.0697,-0.0697,-0.0681,-0.0665,-0.0621,-0.0593,-0.0573,-0.053,-0.0501,-0.0493,-0.0436,-0.045,-0.0546,-0.0587,-0.066,0.0,0.0,0.0,0.0,0.0,0.0,0.0,0.0,0.0,0.0,0.0,0.0,0.0,0.0,0.0,0.0,0.0,0.0,0.0,0.0,0.0,0.0,0.6009,0.5997,0.5531,0.5385,0.5213,0.489,0.4707,0.4647,0.4752,0.4694,0.4631,0.4631,0.4631,0.4654,0.4707,0.4507,0.4395,0.4482,0.4484,0.4484,0.4484,0.4484,0.4484,0.4482,0.4395,0.4371,0.4371,0.4322,0.43,0.43,0.43,0.43,0.43,0.43,0.4259,0.4183,0.0,0.0,0.0,0.0,0.329,0.2945,0.2945,0.2635,0.2212,0.2212,0.2018,0.1797,0.1797,0.1797,0.1797,0.1797,0.1797,0.1797,0.1797,0.1797,0.1797,0.1797,0.1797,0.1685,0.1206,0.0729,0.028,-0.0112,-0.0589,0.0,-0.0901,-0.0835,-0.0797,-0.0791,-0.0738,-0.0697,-0.0697,-0.0697,-0.0697,-0.0697,-0.0697,-0.0707,-0.0697,-0.0658,0.0,0.0,0.0,-0.0535,-0.0509,-0.0436,0.0,0.0,0.0,0.0,0.0,0.0,0.0,0.0,-0.2054,-0.2215,0.0,0.0,0.0,0.0,0.0,0.0,0.0,0.0,0.0,0.0,0.0,0.0,0.0,0.0,0.0,0.0,0.6755,0.6948,0.6497,0.5591,0.4958,0.4942,0.4596,0.4439,0.4517,0.4882,0.5152,0.5169,0.5169,0.5193,0.5218,0.4769,0.0,0.0,0.0,0.469,0.469,0.469,0.469,0.4687,0.4577,0.4525,0.4523,0.4374,0.4319,0.4319,0.4306,0.43,0.43,0.43,0.43,0.4289,0.4181,0.4029,0.3863,0.3832,0.3547,0.3189,0.3148,0.0,0.0,0.2158,0.199,0.1797,0.1797,0.1797,0.1797,0.1797,0.1797,0.1797,0.1797,0.1797,0.1797,0.1797,0.1797,0.1685,0.1206,0.0729,0.028,-0.0112,-0.0589,-0.0898,-0.0898,-0.085,-0.0802,-0.0795,-0.0742,-0.0701,-0.0697,-0.0697,-0.0697,-0.0697,-0.0697,0.0,-0.0703,-0.0697,-0.0671,-0.0616,-0.0609,-0.058,-0.0521,-0.0449,-0.042,-0.0431,-0.0449,-0.0697,-0.1174,-0.1583,-0.1968,-0.232,-0.2404,-0.2523,0.0,0.0,0.0,0.0,0.0,0.0,0.0,0.0,0.0,0.0,0.0,0.0,0.0,0.0,0.0,0.6613,0.6607,0.6582,0.6636,0.6215,0.5884,0.5694,0.5239,0.5169,0.576,0.5535,0.5378,0.5489,0.5499,0.5299,0.483,0.4726,0.4665,0.4687,0.469,0.469,0.469,0.469,0.469,0.469,0.4665,0.0,0.4649,0.4528,0.4471,0.4465,0.4341,0.43,0.43,0.43,0.43,0.4298,0.4273,0.4059,0.3697,0.338,0.3007,0.2618,0.2283,0.2078,0.1944,0.1895,0.1853,0.1797,0.1797,0.1797,0.0,0.1797,0.1797,0.1797,0.1797,0.1797,0.1797,0.1797,0.1797,0.1685,0.1206,0.0729,0.028,-0.0112,-0.0589,-0.0898,-0.0898,-0.0895,-0.0859,-0.0802,-0.0798,-0.077,-0.07,-0.0697,-0.0697,-0.0697,-0.0697,-0.0695,-0.0711,-0.0709,-0.069,-0.0678,-0.0633,-0.0603,-0.0585,-0.056,-0.058,-0.0635,-0.075,-0.0888,-0.1045,-0.1922,-0.2384,-0.2464,-0.2649,-0.2845,0.0,0.0,0.0,0.0,0.0,0.0,0.0,0.0,0.0,0.0,0.0,0.5665,0.5857,0.0,0.6766,0.6969,0.6989,0.7025,0.7223,0.7098,0.675,0.612,0.5911,0.5956,0.6316,0.6078,0.5934,0.6008,0.5692,0.54,0.5176,0.4888,0.477,0.4833,0.4836,0.4836,0.4836,0.4836,0.4836,0.4836,0.4773,0.4743,0.4738,0.4654,0.4564,0.4501,0.4446,0.4352,0.43,0.43,0.43,0.43,0.43,0.4163,0.3944,0.3582,0.3166,0.273,0.2343,0.2056,0.1901,0.1815,0.1797,0.1797,0.1797,0.1797,0.1797,0.1797,0.1797,0.1797,0.1797,0.1797,0.1797,0.1797,0.1797,0.1685,0.1206,0.0729,0.028,-0.0112,-0.0589,-0.0898,-0.0898,-0.0912,-0.0886,-0.0814,-0.0808,-0.0777,-0.0701,-0.0697,-0.0697,-0.0697,-0.0697,-0.0697,-0.0697,-0.0691,-0.0695,-0.0695,-0.0646,-0.0602,-0.0607,-0.0606,-0.0618,-0.0656,-0.0711,-0.1021,-0.1548,-0.2046,-0.2556,-0.3056,-0.3161,-0.3286,0.0,0.0,0.0,0.0,0.0,0.0,0.0,0.5125,0.5287,0.5486,0.5831,0.613,0.6346,0.6848,0.7218,0.7299,0.7446,0.7626,0.784,0.7877,0.7584,0.6747,0.6526,0.6535,0.6677,0.6533,0.64,0.6324,0.5928,0.5648,0.5494,0.5092,0.4876,0.5015,0.5018,0.5018,0.5018,0.5018,0.5018,0.5015,0.4879,0.4831,0.4828,0.4743,0.4671,0.4539,0.4525,0.444,0.43,0.43,0.43,0.43,0.43,0.43,0.4267,0.3825,0.3443,0.3037,0.2559,0.2184,0.1916,0.182,0.1797,0.1797,0.1797,0.1797,0.1797,0.1797,0.1797,0.1797,0.1797,0.1797,0.1797,0.1797,0.1797,0.1685,0.1206,0.0813,0.0393,-0.0112,-0.0505,-0.0785,-0.0898,-0.0898,-0.0879,-0.0824,-0.0816,-0.0786,-0.0732,-0.07,-0.0697,-0.0697,-0.0697,-0.0697,-0.0697,-0.0697,-0.0704,-0.0704,-0.0639,-0.0623,-0.0617,-0.0617,-0.0637,-0.0677,-0.0637,-0.1059,-0.1965,-0.2105,-0.2623,-0.3462,-0.364,-0.3743,0.6823,0.6171,0.5685,0.5772,0.5528,0.5391,0.0,0.605,0.612,0.6323,0.6553,0.6779,0.7047,0.7142,0.7313,0.7683,0.7764,0.7849,0.8053,0.8212,0.8294,0.8184,0.7105,0.6653,0.7318,0.6958,0.6462,0.5998,0.6426,0.6245,0.511,0.4996,0.5004,0.5018,0.5018,0.5018,0.5018,0.5018,0.5018,0.5018,0.5004,0.4996,0.4955,0.4831,0.4769,0.4744,0.4564,0.444,0.43,0.43,0.43,0.43,0.43,0.43,0.42,0.3529,0.322,0.3088,0.2326,0.2029,0.1973,0.1832,0.1797,0.1797,0.1797,0.1797,0.1797,0.1797,0.1797,0.1797,0.1797,0.1797,0.1797,0.1797,0.1797,0.1685,0.1206,0.1066,0.0785,-0.0028,-0.0252,-0.0421,-0.0842,-0.0898,-0.0886,-0.0879,-0.0847,-0.0791,-0.0787,-0.0736,-0.0697,-0.0697,-0.0697,-0.0697,-0.0697,-0.0694,-0.0692,-0.0692,-0.0689,-0.0697,-0.0691,-0.069,-0.0773,-0.0962,-0.0773,-0.0958,-0.1479,-0.2133,-0.2633,-0.2988,-0.3843,-0.4134,0.7347,0.6972,0.6693,0.6435,0.6329,0.6294,0.6373,0.6473,0.6557,0.6641,0.6854,0.7054,0.7175,0.7285,0.746,0.7764,0.7816,0.7896,0.8222,0.8236,0.8259,0.8387,0.7492,0.7202,0.8131,0.7668,0.7239,0.7011,0.6938,0.6479,0.5553,0.5518,0.5362,0.5018,0.5018,0.5018,0.5018,0.5018,0.5018,0.5018,0.5018,0.5018,0.5015,0.4925,0.4863,0.4719,0.458,0.444,0.43,0.43,0.43,0.43,0.43,0.43,0.4233,0.3727,0.3393,0.3107,0.2537,0.219,0.1988,0.1903,0.1824,0.1797,0.1797,0.1797,0.1797,0.1797,0.1797,0.1797,0.1797,0.1797,0.1797,0.1797,0.1797,0.1741,0.1543,0.1291,0.0982,0.0617,0.014,-0.0252,-0.0449,-0.0729,-0.0894,-0.0908,-0.0879,-0.0848,-0.0793,-0.0763,-0.0739,-0.0699,-0.0697,-0.0697,-0.0697,-0.0697,-0.0697,-0.0697,-0.0697,-0.0691,-0.0701,-0.0701,-0.0744,-0.0832,-0.0744,-0.097,-0.1523,-0.2099,-0.2632,-0.3101,-0.3836,-0.4135,0.754,0.744,0.7334,0.6803,0.6814,0.6885,0.6649,0.6755,0.6906,0.6906,0.7097,0.727,0.727,0.7394,0.7579,0.7854,0.7897,0.8009,0.8429,0.8302,0.8226,0.8382,0.7852,0.7753,0.8548,0.809,0.7656,0.7548,0.7284,0.6861,0.6209,0.617,0.5902,0.5287,0.5246,0.5171,0.5018,0.5018,0.5018,0.5018,0.5018,0.5018,0.5018,0.5018,0.4885,0.4684,0.4594,0.4471,0.43,0.43,0.43,0.43,0.43,0.43,0.4267,0.4028,0.3694,0.3313,0.2897,0.2466,0.2116,0.205,0.193,0.1797,0.1797,0.1797,0.1797,0.1797,0.1797,0.1797,0.1797,0.1797,0.1797,0.1797,0.1797,0.1797,0.1797,0.1543,0.1262,0.1122,0.0477,-0.0056,-0.0168,-0.0589,-0.0898,-0.0898,-0.0906,-0.088,-0.0823,-0.0819,-0.0789,-0.0735,-0.0732,-0.0729,-0.0697,-0.0697,-0.0697,-0.0697,-0.0697,-0.0697,-0.0697,-0.0697,-0.0742,-0.0808,-0.0742,-0.0988,-0.1547,-0.2057,-0.2571,-0.3084,-0.3774,-0.4108,0.7255,0.7252,0.7274,0.6746,0.6711,0.6812,0.6782,0.7002,0.718,0.718,0.7342,0.7479,0.7479,0.7484,0.7626,0.8039,0.8106,0.8217,0.8633,0.8519,0.8396,0.8401,0.8212,0.817,0.8392,0.7857,0.7331,0.6969,0.7437,0.7514,0.6903,0.6865,0.6556,0.5899,0.5864,0.5595,0.5018,0.5018,0.5018,0.5018,0.5018,0.5018,0.5018,0.5018,0.4885,0.469,0.4684,0.455,0.43,0.43,0.43,0.43,0.43,0.43,0.43,0.43,0.4064,0.3711,0.3251,0.2811,0.2485,0.2408,0.2132,0.1797,0.1797,0.1797,0.1797,0.1797,0.1797,0.1797,0.1797,0.1797,0.1797,0.1797,0.1797,0.1797,0.1797,0.1797,0.1657,0.1178,0.0701,0.0252,-0.014,-0.0589,-0.0898,-0.0898,-0.0897,-0.0913,-0.0908,-0.085,-0.0795,-0.0791,-0.0787,-0.0775,-0.0699,-0.0697,-0.0697,-0.0697,-0.0697,-0.0697,-0.0697,-0.0697,-0.0831,-0.1074,-0.0831,-0.0943,-0.1411,-0.2012,-0.2437,-0.2729,-0.3663,-0.4108,0.7603,0.7576,0.7552,0.7305,0.7289,0.7309,0.7288,0.7337,0.7389,0.7389,0.7441,0.7489,0.7489,0.7489,0.7626,0.8049,0.8115,0.8226,0.8642,0.8529,0.8401,0.8401,0.8212,0.8165,0.8382,0.8217,0.811,0.8114,0.828,0.8127,0.7514,0.7514,0.7207,0.6595,0.6131,0.5786,0.5595,0.521,0.5018,0.5018,0.5018,0.5018,0.5018,0.5018,0.4885,0.469,0.469,0.4553,0.43,0.43,0.43,0.43,0.43,0.43,0.43,0.43,0.4233,0.4025,0.339,0.2859,0.2463,0.2223,0.1993,0.1797,0.1797,0.1797,0.1797,0.1797,0.1797,0.1797,0.1797,0.1797,0.1797,0.1797,0.1797,0.1797,0.1797,0.1797,0.1741,0.16,0.0926,0.0364,0.0224,-0.0421,-0.0898,-0.0898,-0.0898,-0.0887,-0.091,-0.087,-0.0851,-0.0796,-0.0793,-0.0781,-0.0775,-0.0773,-0.0741,-0.0698,-0.0697,-0.0697,-0.0697,-0.0697,-0.0742,-0.0831,-0.0742,-0.092,-0.1411,-0.1923,-0.239,-0.2857,-0.3615,-0.4032,0.7852,0.7846,0.7805,0.7654,0.7593,0.7555,0.7525,0.7437,0.7384,0.7384,0.7323,0.7239,0.7239,0.7239,0.7404,0.7925,0.8006,0.8146,0.8633,0.8529,0.8401,0.8401,0.8212,0.8165,0.8382,0.8401,0.8486,0.8685,0.8703,0.8579,0.8228,0.8166,0.7889,0.734,0.6856,0.636,0.5902,0.5518,0.521,0.5018,0.5018,0.5018,0.5018,0.5018,0.4885,0.469,0.469,0.4553,0.43,0.43,0.43,0.43,0.43,0.43,0.43,0.43,0.43,0.4233,0.3763,0.3195,0.2689,0.2443,0.2114,0.1824,0.1804,0.1797,0.1797,0.1797,0.1797,0.1797,0.1797,0.1797,0.1797,0.1797,0.1797,0.1797,0.1797,0.1797,0.1797,0.1797,0.1038,0.0393,0.0393,-0.0336,-0.0898,-0.0898,-0.0898,-0.089,-0.0898,-0.0896,-0.0884,-0.0852,-0.0848,-0.0836,-0.0807,-0.0795,-0.078,-0.0737,-0.0703,-0.0697,-0.0697,-0.0697,-0.0697,-0.0697,-0.0697,-0.0854,-0.1144,-0.1789,-0.2317,-0.2738,-0.3604,-0.4107,0.8011,0.8019,0.8068,0.7804,0.7639,0.7521,0.7521,0.7369,0.719,0.719,0.6998,0.6791,0.6791,0.6801,0.7038,0.7678,0.7821,0.8009,0.8618,0.8538,0.8415,0.8415,0.8236,0.8193,0.8396,0.8415,0.85,0.8703,0.8718,0.8807,0.8976,0.8831,0.8537,0.8145,0.7923,0.7207,0.6015,0.5938,0.5631,0.5057,0.5018,0.5018,0.5018,0.5018,0.4885,0.469,0.469,0.4553,0.43,0.43,0.43,0.43,0.43,0.43,0.43,0.43,0.43,0.43,0.43,0.3788,0.31,0.3014,0.2499,0.1896,0.1813,0.1797,0.1797,0.1797,0.1797,0.1797,0.1797,0.1797,0.1797,0.1797,0.1797,0.1797,0.1797,0.1797,0.1797,0.1797,0.1038,0.0393,0.0336,-0.0364,-0.0898,-0.0898,-0.0898,-0.0898,-0.0898,-0.0898,-0.0886,-0.0911,-0.0908,-0.0868,-0.0812,-0.0809,-0.0793,-0.0791,-0.074,-0.0701,-0.0699,-0.0699,-0.0699,-0.0699,-0.0699,-0.0722,-0.0747,-0.1666,-0.2226,-0.2455,-0.3667,-0.4275,0.8376,0.8406,0.8388,0.8329,0.8076,0.7889,0.7889,0.7528,0.719,0.719,0.6998,0.6791,0.6791,0.6979,0.7266,0.7735,0.794,0.8165,0.8637,0.8656,0.8623,0.8623,0.8576,0.8566,0.8618,0.8623,0.8713,0.8926,0.8944,0.8929,0.8981,0.8934,0.889,0.8783,0.8155,0.7629,0.7322,0.6363,0.5825,0.567,0.521,0.5018,0.5018,0.5018,0.4885,0.469,0.469,0.4553,0.43,0.43,0.43,0.43,0.43,0.43,0.43,0.43,0.43,0.43,0.43,0.3903,0.3299,0.278,0.2406,0.2095,0.1857,0.1797,0.1797,0.1797,0.1797,0.1797,0.1797,0.1797,0.1797,0.1797,0.1797,0.1797,0.1797,0.1797,0.1797,0.1797,0.1038,0.0196,-0.0449,-0.0757,-0.0898,-0.0898,-0.0898,-0.0898,-0.0898,-0.0898,-0.0894,-0.0887,-0.0914,-0.0901,-0.087,-0.0886,-0.0846,-0.0798,-0.0789,-0.0775,-0.0777,-0.0777,-0.0777,-0.0777,-0.0775,-0.0952,-0.13,-0.1982,-0.2531,-0.2948,-0.3909,-0.4442,0.879,0.8765,0.8732,0.8732,0.8344,0.8021,0.8052,0.7512,0.709,0.724,0.69,0.6577,0.6716,0.6831,0.705,0.7588,0.7849,0.8122,0.8628,0.8703,0.8703,0.8703,0.8703,0.8737,0.8831,0.8845,0.893,0.9098,0.9032,0.9065,0.9249,0.9164,0.9117,0.9117,0.8596,0.8138,0.7821,0.6556,0.5902,0.5899,0.5287,0.5018,0.5015,0.4922,0.4833,0.4687,0.4632,0.4503,0.43,0.43,0.43,0.43,0.43,0.43,0.43,0.43,0.43,0.43,0.43,0.4078,0.3636,0.294,0.2559,0.2269,0.1897,0.1797,0.1797,0.1797,0.1797,0.1797,0.1797,0.1797,0.1797,0.1797,0.1797,0.1797,0.1797,0.1797,0.1685,0.1262,0.0757,0.0112,-0.0757,-0.0898,-0.0898,-0.0898,-0.0898,-0.0898,-0.0898,-0.0898,-0.0898,-0.0898,-0.0898,-0.089,-0.09,-0.0886,-0.0871,-0.0853,-0.0814,-0.08,-0.0808,-0.0808,-0.0808,-0.0808,-0.0806,-0.0938,-0.1185,-0.2015,-0.2612,-0.3039,-0.406,-0.4665,0.9143,0.9103,0.9055,0.9055,0.8576,0.8084,0.8157,0.7487,0.6964,0.7323,0.6819,0.6413,0.6707,0.6639,0.6792,0.7453,0.7707,0.7995,0.8614,0.8703,0.8703,0.8703,0.8703,0.8774,0.8963,0.8966,0.9065,0.9268,0.9122,0.9192,0.9583,0.9399,0.9258,0.9202,0.9032,0.8615,0.7936,0.6745,0.6093,0.6018,0.5401,0.5093,0.5012,0.4852,0.4768,0.4681,0.4558,0.444,0.43,0.43,0.43,0.43,0.43,0.43,0.43,0.43,0.43,0.43,0.43,0.4221,0.3969,0.323,0.2795,0.2456,0.1945,0.1797,0.1797,0.1797,0.1797,0.1797,0.1797,0.1797,0.1797,0.1797,0.1797,0.1797,0.1797,0.1797,0.1515,0.0589,0.0393,0.0112,-0.0757,-0.0898,-0.0898,-0.0898,-0.0898,-0.0898,-0.0898,-0.0898,-0.0898,-0.0898,-0.0898,-0.0898,-0.0898,-0.09,-0.0912,-0.0912,-0.0833,-0.0817,-0.0813,-0.0813,-0.0813,-0.0813,-0.0813,-0.0815,-0.0819,-0.184,-0.2517,-0.2939,-0.4082,-0.4797,0.9378,0.941,0.942,0.942,0.8963,0.8516,0.8502,0.7876,0.7328,0.7376,0.7147,0.695,0.7031,0.6973,0.712,0.7742,0.7807,0.7995,0.8614,0.8703,0.8703,0.8703,0.8703,0.8718,0.8755,0.8921,0.9065,0.9268,0.9249,0.9338,0.9592,0.9399,0.9167,0.8822,0.8774,0.8698,0.8551,0.7821,0.7207,0.671,0.6054,0.5479,0.5012,0.4852,0.4768,0.4681,0.4558,0.444,0.43,0.43,0.43,0.43,0.43,0.43,0.43,0.43,0.43,0.43,0.43,0.4221,0.3969,0.323,0.2933,0.2706,0.2016,0.1797,0.1797,0.1797,0.1797,0.1797,0.1797,0.1797,0.1797,0.1797,0.1797,0.1797,0.1797,0.1797,0.1515,0.0589,0.0393,0.0112,-0.0757,-0.0898,-0.0898,-0.0898,-0.0898,-0.0898,-0.0898,-0.0898,-0.0898,-0.0898,-0.0898,-0.0898,-0.0898,-0.0892,-0.089,-0.089,-0.0885,-0.087,-0.0872,-0.087,-0.087,-0.087,-0.087,-0.0884,-0.0882,-0.1568,-0.2259,-0.2906,-0.3728,-0.4484,0.948,0.9516,0.9516,0.9516,0.906,0.8611,0.8631,0.7991,0.7441,0.7621,0.7356,0.7139,0.7273,0.7256,0.7336,0.7721,0.773,0.7908,0.851,0.8487,0.8458,0.8675,0.8703,0.8784,0.9006,0.9025,0.9112,0.9428,0.9348,0.9376,0.9592,0.9301,0.9037,0.8874,0.876,0.8703,0.8703,0.8089,0.7668,0.7361,0.6363,0.5747,0.547,0.4972,0.4744,0.4679,0.4495,0.4352,0.43,0.43,0.43,0.43,0.43,0.43,0.43,0.43,0.43,0.4292,0.4227,0.4167,0.3959,0.3201,0.2913,0.2772,0.2011,0.1797,0.1797,0.1797,0.1797,0.1797,0.1797,0.1797,0.1797,0.1797,0.1797,0.1797,0.1797,0.1797,0.1515,0.0589,0.0393,0.0112,-0.0757,-0.0898,-0.0898,-0.0898,-0.0898,-0.0898,-0.0898,-0.0898,-0.0898,-0.0898,-0.0898,-0.0898,-0.0898,-0.0898,-0.0898,-0.0898,-0.0898,-0.0891,-0.0903,-0.0903,-0.0903,-0.0903,-0.0903,-0.091,-0.0898,-0.1512,-0.2207,-0.3012,-0.3677,-0.4426,0.9498,0.9516,0.9516,0.9516,0.9045,0.8636,0.8699,0.8092,0.7572,0.7836,0.7574,0.7327,0.7547,0.7494,0.749,0.7747,0.7751,0.7871,0.8349,0.8337,0.8372,0.86,0.8675,0.8831,0.9157,0.9051,0.9122,0.9446,0.9315,0.9291,0.946,0.9164,0.8962,0.8919,0.8789,0.8703,0.8703,0.8241,0.7936,0.7783,0.6784,0.6153,0.5845,0.5191,0.4817,0.4638,0.4393,0.43,0.43,0.43,0.43,0.43,0.43,0.43,0.4298,0.427,0.4262,0.4243,0.4089,0.4061,0.3913,0.3161,0.2905,0.2772,0.2011,0.1797,0.1797,0.1797,0.1797,0.1797,0.1797,0.1797,0.1797,0.1797,0.1797,0.1797,0.1797,0.1797,0.1515,0.0589,0.0393,0.0112,-0.0757,-0.0898,-0.0898,-0.0898,-0.0898,-0.0898,-0.0898,-0.0898,-0.0898,-0.0898,-0.0898,-0.0898,-0.0898,-0.0898,-0.0898,-0.0898,-0.0898,-0.0898,-0.0898,-0.0898,-0.0898,-0.0898,-0.0898,-0.0898,-0.0898,-0.1372,-0.2124,-0.3118,-0.3591,-0.4343,0.9444,0.9516,0.9516,0.9516,0.9094,0.8681,0.871,0.8269,0.7878,0.7907,0.7875,0.7821,0.7848,0.7651,0.7626,0.7984,0.805,0.8096,0.8218,0.8583,0.8739,0.8462,0.859,0.8718,0.8755,0.8921,0.8999,0.9037,0.9023,0.9023,0.9042,0.9004,0.8935,0.8737,0.8713,0.8703,0.8703,0.8661,0.8356,0.7783,0.7668,0.6973,0.5816,0.5616,0.5154,0.4514,0.4355,0.43,0.43,0.43,0.43,0.43,0.43,0.43,0.4287,0.4175,0.4102,0.4083,0.3962,0.3879,0.3722,0.3116,0.2905,0.2772,0.2011,0.1797,0.1797,0.1797,0.1797,0.1797,0.1797,0.1797,0.1797,0.1797,0.1797,0.1797,0.1797,0.1797,0.1515,0.0589,0.0393,0.0112,-0.0757,-0.0898,-0.0898,-0.0898,-0.0898,-0.0898,-0.0898,-0.0898,-0.0898,-0.0898,-0.0898,-0.0898,-0.0898,-0.0898,-0.0898,-0.0898,-0.0898,-0.0898,-0.0898,-0.0898,-0.0898,-0.0898,-0.0898,-0.0898,-0.0898,-0.0953,-0.1705,-0.309,-0.3146,-0.3953,0.9233,0.9384,0.9516,0.9516,0.9107,0.871,0.871,0.8279,0.7901,0.7901,0.7901,0.7901,0.7901,0.7821,0.7805,0.7956,0.7847,0.7823,0.8094,0.8306,0.8524,0.8796,0.9046,0.929,0.9555,0.955,0.9525,0.9525,0.9525,0.9525,0.9525,0.9101,0.8789,0.8703,0.8703,0.8703,0.8703,0.8703,0.8589,0.8318,0.7513,0.6862,0.6311,0.5379,0.4795,0.4498,0.4349,0.43,0.43,0.43,0.43,0.43,0.43,0.43,0.4284,0.4162,0.4086,0.4088,0.3892,0.3824,0.3682,0.3016,0.277,0.2651,0.2001,0.1797,0.1797,0.1797,0.1797,0.1797,0.1797,0.1797,0.1797,0.1797,0.1797,0.1797,0.1797,0.1797,0.1515,0.0589,0.0393,0.0112,-0.0757,-0.0898,-0.0898,-0.0898,-0.0898,-0.0898,-0.0898,-0.0898,-0.0898,-0.0898,-0.0898,-0.0898,-0.0898,-0.0898,-0.0898,-0.0898,-0.0898,-0.0898,-0.0898,-0.0898,-0.0898,-0.0898,-0.0898,-0.0898,-0.0898,-0.0898,-0.1649,-0.309,-0.3012,-0.3763,0.9053,0.9239,0.9396,0.9396,0.9047,0.8686,0.8608,0.8219,0.7901,0.7901,0.7901,0.7901,0.7901,0.7901,0.7901,0.7901,0.78,0.7833,0.8094,0.8237,0.8463,0.8863,0.92,0.9515,0.9841,0.9889,0.9884,0.9884,0.9884,0.9884,0.9884,0.9349,0.9008,0.8894,0.878,0.8703,0.8703,0.8703,0.8703,0.8699,0.7667,0.6995,0.6606,0.5515,0.4795,0.4449,0.4336,0.43,0.43,0.43,0.43,0.43,0.43,0.4278,0.4232,0.4078,0.4039,0.3979,0.3802,0.3734,0.3631,0.2934,0.2691,0.2579,0.1993,0.1797,0.1797,0.1797,0.1797,0.1797,0.1797,0.1797,0.1797,0.1797,0.1797,0.1797,0.1797,0.1797,0.1515,0.0589,0.0393,0.0112,-0.0757,-0.0898,-0.0898,-0.0898,-0.0898,-0.0898,-0.0898,-0.0898,-0.0898,-0.0898,-0.0898,-0.0898,-0.0898,-0.0898,-0.0898,-0.0898,-0.0898,-0.0898,-0.0898,-0.0898,-0.0898,-0.0898,-0.0898,-0.0898,-0.0898,-0.0898,-0.1539,-0.2788,-0.2847,-0.368,0.8957,0.9101,0.9101,0.9101,0.8903,0.8638,0.8351,0.8087,0.7901,0.7901,0.7901,0.7901,0.7901,0.7901,0.7901,0.7901,0.8117,0.8267,0.8211,0.8604,0.8786,0.8447,0.8819,0.9095,0.9101,0.96,0.9884,0.9884,0.9884,0.9884,0.9884,0.9879,0.9695,0.9322,0.8899,0.8703,0.8703,0.8703,0.8703,0.8699,0.85,0.7711,0.6484,0.6275,0.5498,0.4303,0.43,0.43,0.43,0.43,0.43,0.43,0.43,0.4227,0.4073,0.3951,0.386,0.3769,0.3654,0.3613,0.3502,0.2886,0.2691,0.2579,0.1993,0.1797,0.1797,0.1797,0.1797,0.1797,0.1797,0.1797,0.1797,0.1797,0.1797,0.1797,0.1797,0.1797,0.1515,0.0589,0.0393,0.0112,-0.0757,-0.0898,-0.0898,-0.0898,-0.0898,-0.0898,-0.0898,-0.0898,-0.0898,-0.0898,-0.0898,-0.0898,-0.0898,-0.0898,-0.0898,-0.0898,-0.0898,-0.0898,-0.0898,-0.0898,-0.0898,-0.0898,-0.0898,-0.0898,-0.0898,-0.0898,-0.1288,-0.2015,-0.2627,-0.3624,0.8518,0.8692,0.883,0.883,0.8632,0.8393,0.8309,0.8087,0.7901,0.7901,0.7901,0.7901,0.7901,0.7901,0.7961,0.8135,0.8237,0.8293,0.8263,0.8711,0.9074,0.9134,0.9939,1.0456,1.0456,1.0607,1.07,1.07,1.07,1.07,1.07,1.0475,1.0143,0.9733,0.9576,0.9387,0.9127,0.8973,0.8751,0.8491,0.7785,0.7246,0.68,0.5864,0.5229,0.4827,0.4464,0.43,0.43,0.43,0.43,0.43,0.43,0.4227,0.407,0.3949,0.3857,0.3796,0.3652,0.3613,0.3499,0.2886,0.2691,0.2579,0.1993,0.1797,0.1797,0.1797,0.1797,0.1797,0.1797,0.1797,0.1797,0.1797,0.1797,0.1797,0.1797,0.1797,0.1515,0.0589,0.0673,0.0589,-0.028,-0.0421,-0.0421,-0.0421,-0.0701,-0.0898,-0.0898,-0.0898,-0.0898,-0.0898,-0.0898,-0.0898,-0.0898,-0.0898,-0.0898,-0.0898,-0.0898,-0.0898,-0.0898,-0.0898,-0.0898,-0.0898,-0.0898,-0.0898,-0.0898,-0.0898,-0.1456,-0.2486,-0.3183,-0.3904,0.8674,0.877,0.8813,0.8813,0.8547,0.8261,0.8165,0.8015,0.7901,0.7901,0.7901,0.7901,0.7901,0.7901,0.7955,0.8117,0.8141,0.8213,0.8411,0.8746,0.9131,0.9606,1.0322,1.0852,1.0954,1.1051,1.1111,1.1111,1.1111,1.1069,1.0966,1.0708,1.0404,1.0056,0.9855,0.9644,0.9382,0.915,0.8851,0.8459,0.7799,0.7198,0.6676,0.5792,0.519,0.4794,0.4431,0.43,0.0,0.43,0.43,0.4298,0.4249,0.4156,0.4003,0.3912,0.3792,0.3709,0.3635,0.3613,0.3527,0.3023,0.2689,0.241,0.1937,0.1797,0.1797,0.1797,0.1797,0.1797,0.1797,0.1797,0.1797,0.1797,0.1797,0.1797,0.1797,0.1657,0.1319,0.0561,0.0505,0.0393,-0.0336,-0.0477,-0.0477,-0.0477,-0.0701,-0.0898,-0.0898,-0.0898,-0.0898,-0.0898,-0.0898,-0.0898,-0.0898,-0.0898,-0.0898,-0.0898,-0.0898,-0.0898,-0.0898,-0.0898,-0.0898,-0.0898,-0.0898,-0.0898,-0.0898,-0.0898,-0.1512,-0.2708,-0.3183,-0.3793,0.0,0.9217,0.8982,0.8961,0.861,0.8224,0.7955,0.7874,0.0,0.7841,0.7841,0.7853,0.7871,0.7871,0.7883,0.7925,0.7931,0.8105,0.8638,0.8758,0.9077,0.9841,1.0178,1.0442,1.0689,1.0966,1.1105,1.1087,1.1081,1.0966,1.0707,1.0653,1.0545,1.0304,0.9804,0.9529,0.9509,0.9262,0.8969,0.8624,0.8396,0.7604,0.6306,0.6022,0.5359,0.44,0.4334,0.43,0.43,0.43,0.4295,0.4276,0.4162,0.4005,0.3878,0.3824,0.3709,0.3613,0.3613,0.3613,0.3555,0.3188,0.2657,0.2128,0.188,0.1797,0.1797,0.1797,0.1797,0.1797,0.1797,0.1797,0.1797,0.1797,0.1797,0.1797,0.1769,0.1403,0.0954,0.0449,0.0084,-0.0308,-0.0757,-0.0842,-0.0842,-0.0844,-0.0871,-0.0899,-0.0903,-0.0902,-0.0902,-0.0904,-0.0904,-0.0903,-0.0901,-0.0899,-0.0898,-0.0898,-0.0898,-0.0898,-0.0898,-0.0898,-0.0898,-0.0898,-0.0898,-0.0898,-0.0898,-0.0898,-0.1512,-0.2708,-0.2708,-0.3347,0.9648,0.0,0.8807,0.8651,0.8339,0.8006,0.0,0.7561,0.737,0.737,0.737,0.743,0.763,0.7667,0.7774,0.8157,0.8201,0.8309,0.8662,0.9233,0.9769,1.016,1.0611,1.0954,1.1015,1.1075,1.1027,1.0828,1.0773,1.0695,1.04,1.0382,1.0358,1.0298,0.9988,0.9771,0.965,0.9433,0.914,0.8732,0.8302,0.7894,0.7532,0.6399,0.576,0.5495,0.4664,0.43,0.43,0.43,0.4246,0.4159,0.4097,0.3985,0.3821,0.3794,0.3709,0.3613,0.3613,0.3613,0.3499,0.2968,0.2382,0.188,0.1825,0.1797,0.1797,0.1797,0.1797,0.1797,0.1797,0.1797,0.1797,0.1797,0.1797,0.1713,0.1347,0.1178,0.087,0.0084,0.0112,0.014,-0.028,-0.0364,-0.0396,-0.0435,-0.0713,-0.0914,-0.0961,-0.0917,-0.0912,-0.0965,-0.0967,-0.0958,-0.0905,-0.0911,-0.0898,-0.0898,-0.0898,-0.0898,-0.0898,-0.0898,-0.0898,-0.0898,-0.0898,-0.0898,-0.0898,-0.0898,-0.1512,-0.2708,-0.2708,-0.3347,0.9748,0.9587,0.9337,0.9226,0.8923,0.8587,0.8394,0.8051,0.7767,0.7672,0.7648,0.7684,0.7816,0.7816,0.7883,0.8072,0.8111,0.8243,0.865,0.9498,1.0136,1.028,1.0647,1.093,1.093,1.0828,1.0659,1.0515,1.0509,1.0394,1.013,1.0118,1.0063,0.9943,0.9799,0.9653,0.9559,0.9481,0.9195,0.8661,0.8533,0.8242,0.7814,0.6666,0.598,0.5719,0.4731,0.4268,0.4216,0.4216,0.4145,0.3997,0.3971,0.3901,0.3807,0.3725,0.3665,0.3613,0.3613,0.3613,0.3499,0.2886,0.2467,0.216,0.1881,0.1797,0.1797,0.1797,0.1797,0.1797,0.1797,0.1797,0.1797,0.1797,0.1797,0.1741,0.1487,0.1277,0.0947,0.0201,0.0116,-0.0029,-0.0499,-0.0557,-0.059,-0.0601,-0.0801,-0.0951,-0.0984,-0.0974,-0.097,-0.0986,-0.0988,-0.0982,-0.0935,-0.0907,-0.0913,-0.0898,-0.0898,-0.0898,-0.0898,-0.0898,-0.0898,-0.0898,-0.0898,-0.0898,-0.0898,-0.0898,-0.1512,-0.2708,-0.2708,-0.3347,0.9684,0.9926,1.0106,0.9929,0.9652,0.936,0.9089,0.0,0.0,0.0,0.0,0.8204,0.8141,0.8201,0.8204,0.7994,0.8027,0.8237,0.8704,0.9612,1.0238,1.0238,1.0466,1.0623,1.0623,1.0424,1.028,1.0238,1.0238,1.0124,0.9859,0.9847,0.9745,0.9522,0.9516,0.9456,0.9331,0.9391,0.9125,0.8576,0.8765,0.8463,0.7712,0.6761,0.6075,0.5583,0.4674,0.4213,0.4083,0.4067,0.3986,0.3868,0.3824,0.3801,0.3745,0.3649,0.3613,0.3613,0.3613,0.3555,0.3444,0.2886,0.2663,0.2523,0.1965,0.1797,0.1797,0.1797,0.1797,0.1797,0.1797,0.1797,0.1797,0.1797,0.1797,0.1772,0.161,0.1329,0.0915,0.0296,-0.0091,-0.0463,-0.0927,-0.0988,-0.099,-0.0994,-0.0991,-0.0991,-0.1001,-0.0998,-0.0997,-0.1001,-0.1001,-0.1,-0.0996,-0.0941,-0.0915,-0.0913,-0.0902,-0.0898,-0.0898,-0.0898,-0.0898,-0.0898,-0.0898,-0.0898,-0.0898,-0.0898,-0.1543,-0.2729,-0.2729,-0.3383,0.9602,1.0213,1.053,0.9628,0.9495,0.9436,0.8873,0.8579,0.0,0.0,0.0,0.0,0.8197,0.8697,0.891,0.8349,0.8632,0.8945,0.9023,0.957,0.9961,0.9961,1.0196,1.0352,1.0352,1.0316,1.0202,0.9985,0.9961,0.9853,0.9588,0.9576,0.9558,0.9516,0.9516,0.9367,0.9074,0.9072,0.9022,0.892,0.8404,0.8079,0.7917,0.6576,0.5921,0.5782,0.4643,0.4134,0.4078,0.3973,0.3892,0.381,0.3788,0.3723,0.3635,0.3619,0.3613,0.3613,0.3613,0.3413,0.3132,0.2802,0.2521,0.2212,0.1908,0.1797,0.1797,0.1797,0.1797,0.1797,0.1797,0.1797,0.1797,0.1797,0.1797,0.1585,0.0785,0.0558,0.0267,-0.061,-0.0831,-0.0896,-0.0988,-0.0988,-0.0997,-0.0991,-0.1005,-0.1006,-0.1089,-0.1042,-0.1035,-0.1092,-0.1095,-0.1052,-0.0996,-0.0991,-0.0975,-0.0976,-0.0926,-0.0898,-0.0898,-0.0898,-0.0898,-0.0898,-0.0898,-0.0898,-0.0898,-0.0898,-0.1591,-0.2855,-0.2855,-0.3573,0.9327,0.9815,1.0187,0.9919,1.0241,1.0487,0.9908,0.9552,0.0,0.0,0.0,0.0,0.8538,0.8866,0.9031,0.86,0.8848,0.9095,0.9095,0.9564,0.9907,0.9907,1.0009,1.0081,1.0081,0.9955,0.9823,0.9703,0.9697,0.9642,0.9522,0.9516,0.9516,0.9516,0.9516,0.9414,0.9285,0.9087,0.8926,0.8738,0.8603,0.8441,0.8214,0.6989,0.6294,0.5993,0.4854,0.4198,0.3947,0.386,0.3797,0.369,0.369,0.366,0.3613,0.3613,0.3613,0.3613,0.3613,0.3499,0.3302,0.2858,0.2605,0.2382,0.1937,0.1797,0.1797,0.1797,0.1797,0.1797,0.1797,0.1797,0.1797,0.1797,0.1797,0.1615,0.0936,0.0805,0.0548,-0.0472,-0.064,-0.0712,-0.1003,-0.1068,-0.104,-0.1054,-0.1044,-0.1078,-0.1106,-0.1065,-0.1061,-0.1108,-0.1109,-0.1104,-0.1057,-0.101,-0.0989,-0.099,-0.0962,-0.0946,-0.0946,-0.0946,-0.0946,-0.0946,-0.0946,-0.0946,-0.0946,-0.0946,-0.1636,-0.2891,-0.2951,-0.364,0.9327,0.9548,0.9822,1.033,1.0853,1.1174,1.0867,1.0495,1.0176,0.991,0.9786,0.9604,0.913,0.911,0.9158,0.9132,0.9175,0.9191,0.9191,0.9552,0.9817,0.9817,0.9817,0.9817,0.9817,0.963,0.9516,0.9516,0.9516,0.9486,0.942,0.942,0.939,0.933,0.9324,0.9324,0.9324,0.9066,0.8747,0.8425,0.8617,0.8489,0.8058,0.7149,0.6444,0.5961,0.4979,0.4255,0.3809,0.3753,0.3693,0.3613,0.3613,0.3613,0.3613,0.3613,0.3613,0.3613,0.3613,0.3613,0.3499,0.2886,0.2691,0.2579,0.1993,0.1797,0.1797,0.1797,0.1797,0.1797,0.1797,0.1797,0.1769,0.1657,0.1639,0.149,0.0888,0.0793,0.0534,-0.0389,-0.053,-0.0605,-0.1042,-0.1109,-0.1109,-0.1109,-0.1109,-0.1109,-0.1109,-0.1109,-0.1109,-0.1109,-0.1109,-0.1109,-0.1109,-0.1056,-0.1033,-0.101,-0.0996,-0.0988,-0.0988,-0.0988,-0.0988,-0.0988,-0.0988,-0.0988,-0.0988,-0.0988,-0.1578,-0.2704,-0.2952,-0.3649,1.0017,0.996,0.9886,1.0649,1.07,1.0663,1.0989,1.087,1.0755,1.1097,1.0965,1.0662,1.0179,0.9707,0.9596,1.026,0.9862,0.9486,0.9486,0.9516,0.9546,0.9546,0.9546,0.9546,0.9546,0.9528,0.9516,0.9516,0.9516,0.9402,0.9143,0.9125,0.9017,0.877,0.8764,0.8764,0.8764,0.8735,0.8555,0.8203,0.7934,0.7485,0.6899,0.6388,0.5892,0.5423,0.4732,0.417,0.3804,0.3668,0.3619,0.3613,0.3613,0.3613,0.3613,0.3613,0.3613,0.3613,0.3613,0.3613,0.3499,0.2886,0.2691,0.2579,0.1993,0.1797,0.1797,0.1797,0.1797,0.1797,0.1797,0.1797,0.1685,0.1262,0.1149,0.0889,0.0,-0.0252,-0.0422,-0.0933,-0.1041,-0.1042,-0.1109,-0.1109,-0.1109,-0.1109,-0.1109,-0.1109,-0.1109,-0.1109,-0.1109,-0.1109,-0.1109,-0.1109,-0.1109,-0.1107,-0.1105,-0.1103,-0.1018,-0.0988,-0.0988,-0.0988,-0.0988,-0.0988,-0.0988,-0.0988,-0.0988,-0.0988,-0.1408,-0.2177,-0.2879,-0.3602,0.9106,0.9253,0.952,1.0339,1.0629,0.0,0.0,1.14,1.1703,1.1688,1.1622,1.1377,1.0708,0.9939,0.9626,1.0384,1.0236,0.9989,0.9989,0.9989,0.9862,0.9548,0.936,0.9257,0.9257,0.9107,0.9017,0.9017,0.9017,0.8969,0.886,0.8854,0.8806,0.871,0.871,0.871,0.871,0.871,0.8469,0.8002,0.8015,0.7707,0.7106,0.6798,0.6148,0.5262,0.4866,0.432,0.3673,0.363,0.3613,0.3613,0.3613,0.3613,0.3613,0.3613,0.3613,0.3613,0.3613,0.3613,0.3499,0.2886,0.2691,0.2579,0.1993,0.1797,0.1797,0.1797,0.1797,0.1797,0.1797,0.1797,0.1685,0.1206,0.1093,0.0832,-0.0092,-0.0348,-0.0553,-0.1003,-0.1109,-0.1109,-0.1109,-0.1109,-0.1109,-0.1109,-0.1109,-0.1109,-0.1109,-0.1109,-0.1109,-0.1109,-0.1109,-0.1109,-0.1109,-0.1109,-0.1109,-0.1109,-0.1088,-0.1075,-0.1075,-0.1075,-0.1075,-0.1075,-0.1075,-0.1075,-0.1075,-0.1075,-0.1408,-0.2113,-0.2869,-0.3581,0.8885,0.8986,0.929,1.0109,0.0,0.0,1.1178,1.1756,1.2207,1.2044,1.1903,1.1613,1.0974,1.0294,1.0002,1.0519,1.054,1.0426,1.0209,1.0158,0.9944,0.9332,0.9089,0.8975,0.8975,0.8812,0.871,0.871,0.871,0.8674,0.859,0.8584,0.8548,0.8463,0.8463,0.8463,0.8463,0.8463,0.8254,0.7888,0.804,0.7805,0.7213,0.7007,0.629,0.5207,0.5005,0.4405,0.3613,0.3613,0.3613,0.3613,0.3613,0.3613,0.3613,0.3613,0.3613,0.3613,0.3613,0.3613,0.3527,0.2996,0.2772,0.2635,0.2216,0.1965,0.1825,0.1908,0.1852,0.1797,0.1797,0.1685,0.1435,0.0796,0.0672,0.0453,-0.0342,-0.0577,-0.0724,-0.1038,-0.1109,-0.1109,-0.1109,-0.1109,-0.1109,-0.1109,-0.1109,-0.1109,-0.1109,-0.1109,-0.1109,-0.1109,-0.1109,-0.1109,-0.1109,-0.1109,-0.1109,-0.1109,-0.1109,-0.1109,-0.1109,-0.1109,-0.1109,-0.1109,-0.1109,-0.1109,-0.1109,-0.1109,-0.1344,-0.1812,-0.2514,-0.3251,0.9693,0.9409,0.929,1.0109,0.0,0.0,1.1421,1.1825,1.212,1.2192,1.177,1.1325,1.1056,1.0877,1.0808,1.0808,1.0911,1.0739,1.0012,0.9912,0.9597,0.8799,0.8704,0.8704,0.8704,0.8698,0.8698,0.8698,0.8698,0.859,0.8297,0.8285,0.8165,0.7913,0.7901,0.7901,0.7901,0.7901,0.7901,0.7901,0.7901,0.7628,0.7085,0.6837,0.6182,0.5277,0.5034,0.4405,0.3613,0.3613,0.3613,0.3613,0.3613,0.3613,0.3613,0.3613,0.3613,0.3613,0.3613,0.3613,0.3555,0.3216,0.2912,0.2691,0.2691,0.2272,0.1853,0.2128,0.199,0.1797,0.1797,0.1431,0.0849,-0.0088,-0.0302,-0.0436,-0.0898,-0.1056,-0.1109,-0.1109,-0.1109,-0.1109,-0.1109,-0.1109,-0.1109,-0.1109,-0.1109,-0.1109,-0.1109,-0.1109,-0.1109,-0.1109,-0.1109,-0.1109,-0.1109,-0.1109,-0.1109,-0.1109,-0.1109,-0.1109,-0.1109,-0.1109,-0.1109,-0.1109,-0.1109,-0.1109,-0.1109,-0.1109,-0.1109,-0.1109,-0.1779,-0.248,0.8857,0.9189,0.9638,1.0162,1.1026,1.177,1.1899,1.2229,0.0,1.2659,1.2609,1.227,1.1503,1.1059,1.0818,1.093,1.0887,1.077,1.0559,1.0261,0.9825,0.9249,0.8749,0.8405,0.8405,0.8237,0.8129,0.8129,0.8129,0.8099,0.8021,0.8015,0.7979,0.7907,0.7901,0.7901,0.7901,0.7901,0.7901,0.7901,0.7901,0.7714,0.7381,0.7112,0.6372,0.5304,0.5367,0.4712,0.3613,0.3613,0.3613,0.3613,0.3613,0.3613,0.3613,0.3613,0.3613,0.3613,0.3613,0.3613,0.3555,0.3216,0.2912,0.2691,0.2691,0.2272,0.1853,0.2128,0.1765,0.1234,0.0898,0.0505,0.0198,0.0205,-0.006,-0.0436,-0.0898,-0.1056,-0.1109,-0.1109,-0.1109,-0.1109,-0.1109,-0.1109,-0.1109,-0.1109,-0.1109,-0.1109,-0.1109,-0.1109,-0.1109,-0.1109,-0.1109,-0.1109,-0.1109,-0.1109,-0.1109,-0.1109,-0.1109,-0.1109,-0.1109,-0.1109,-0.1109,-0.1109,-0.1109,-0.1109,-0.1109,-0.1109,-0.1109,-0.1109,-0.1779,-0.2213,0.8755,0.9327,1.0024,1.045,1.12,1.1908,1.2064,1.2311,1.2564,1.2809,1.2677,1.231,1.1577,1.1233,1.1032,1.0999,1.1051,1.0989,1.0692,1.0228,0.9735,0.9143,0.8537,0.8135,0.8135,0.7991,0.7901,0.7901,0.7901,0.7901,0.7901,0.7901,0.7901,0.7901,0.7901,0.7901,0.7901,0.7901,0.7901,0.7901,0.7901,0.7821,0.7655,0.7381,0.6696,0.571,0.5254,0.4598,0.3827,0.3666,0.3613,0.3613,0.3613,0.3613,0.3613,0.3613,0.3613,0.3613,0.3613,0.3613,0.3555,0.3357,0.3107,0.2884,0.3026,0.2635,0.2188,0.2354,0.1877,0.1205,0.0785,0.0252,-0.0199,-0.0148,-0.0366,-0.0656,-0.0976,-0.1064,-0.1109,-0.1109,-0.1109,-0.1109,-0.1109,-0.1109,-0.1109,-0.1109,-0.1109,-0.1109,-0.1109,-0.1109,-0.1109,-0.1109,-0.1109,-0.1109,-0.1109,-0.1109,-0.1109,-0.1109,-0.1109,-0.1109,-0.1109,-0.1109,-0.1109,-0.1109,-0.1109,-0.1109,-0.1109,-0.1109,-0.1109,-0.1109,-0.1511,-0.1846,0.9115,0.9695,1.0413,1.0855,1.1255,1.166,1.2018,1.2157,1.229,1.267,1.2287,1.1778,1.1451,1.1397,1.1301,1.1009,1.1201,1.1178,1.0485,1.0013,0.9472,0.8791,0.8289,0.8008,0.7981,0.7955,0.7955,0.7901,0.7901,0.7901,0.7901,0.7901,0.7901,0.7901,0.7901,0.7901,0.7901,0.7901,0.7901,0.7901,0.7901,0.7901,0.7901,0.7601,0.7079,0.6308,0.4835,0.4233,0.4233,0.3774,0.3613,0.3613,0.3613,0.3613,0.3613,0.3613,0.3613,0.3613,0.3613,0.3613,0.3613,0.3613,0.3385,0.316,0.3499,0.3165,0.2691,0.2635,0.2099,0.1455,0.1065,0.0365,-0.0401,-0.0883,-0.0988,-0.1004,-0.1097,-0.1109,-0.1109,-0.1109,-0.1109,-0.1109,-0.1109,-0.1109,-0.1109,-0.1109,-0.1109,-0.1109,-0.1109,-0.1109,-0.1109,-0.1109,-0.1109,-0.1109,-0.1109,-0.1109,-0.1109,-0.1109,-0.1109,-0.1109,-0.1109,-0.1109,-0.1109,-0.1109,-0.1109,-0.1109,-0.1109,-0.1109,-0.1109,-0.1109,-0.1109,-0.1411,0.9004,0.9715,1.0465,1.1191,1.1678,1.1991,1.2082,1.2124,1.2172,1.2307,1.2475,1.2347,1.1554,1.1397,1.1219,1.0681,1.0671,1.0661,1.0512,1.0064,0.9713,0.9562,0.9178,0.8791,0.8468,0.8441,0.8289,0.7928,0.7901,0.7901,0.7901,0.7901,0.7901,0.7901,0.7901,0.7901,0.7901,0.7901,0.7901,0.7901,0.7901,0.7901,0.7875,0.7408,0.6842,0.6168,0.4783,0.4398,0.4677,0.3913,0.3613,0.3613,0.3613,0.3613,0.3613,0.3613,0.3613,0.3613,0.3613,0.3613,0.3613,0.3613,0.3385,0.316,0.3499,0.3165,0.2635,0.2268,0.1621,0.0895,0.0252,-0.0343,-0.0795,-0.0949,-0.0988,-0.1004,-0.1097,-0.1109,-0.1109,-0.1109,-0.1109,-0.1109,-0.1109,-0.1109,-0.1109,-0.1109,-0.1109,-0.1109,-0.1109,-0.1109,-0.1109,-0.1109,-0.1109,-0.1109,-0.1109,-0.1109,-0.1109,-0.1109,-0.1109,-0.1109,-0.1109,-0.1109,-0.1109,-0.1109,-0.1109,-0.1109,-0.1109,-0.1109,-0.1109,-0.1109,-0.1109,-0.1176,0.8975,0.9873,1.0769,1.1586,1.1954,1.2101,1.2101,1.2101,1.2115,1.2148,1.232,1.2245,1.1498,1.1334,1.1171,1.0605,1.0496,1.0496,1.0496,1.0087,0.9788,0.9788,0.9439,0.9106,0.8923,0.889,0.8705,0.8262,0.8242,0.8135,0.7901,0.7901,0.7901,0.7901,0.7901,0.7901,0.7901,0.7901,0.7901,0.7901,0.7901,0.7821,0.7681,0.7273,0.6923,0.6549,0.5144,0.4677,0.4846,0.3968,0.3613,0.3613,0.3613,0.3613,0.3613,0.3613,0.3613,0.3613,0.3613,0.3613,0.3613,0.3613,0.3471,0.3385,0.3555,0.3388,0.2998,0.2294,0.1621,0.0895,0.0112,-0.0489,-0.0921,-0.0981,-0.0999,-0.1022,-0.1099,-0.1109,-0.1109,-0.1109,-0.1109,-0.1109,-0.1109,-0.1109,-0.1109,-0.1109,-0.1109,-0.1109,-0.1109,-0.1109,-0.1109,-0.1109,-0.1109,-0.1109,-0.1109,-0.1109,-0.1109,-0.1109,-0.1109,-0.1109,-0.1109,-0.1109,-0.1109,-0.1109,-0.1109,-0.1109,-0.1109,-0.1109,-0.1109,-0.1109,-0.1109,-0.1109,0.8755,0.9858,1.1002,1.1798,1.2055,1.2101,1.2101,1.2101,1.2101,1.2101,1.2101,1.1952,1.1452,1.1377,1.12,1.0718,1.065,1.065,1.065,1.0267,1.0002,1.0002,0.9647,0.9394,0.9316,0.9316,0.9126,0.8732,0.8626,0.8441,0.8029,0.7955,0.7901,0.7901,0.7901,0.7901,0.7901,0.7901,0.7901,0.7901,0.7901,0.7794,0.7547,0.73,0.7112,0.6945,0.5582,0.4952,0.4846,0.3968,0.3613,0.3613,0.3613,0.3613,0.3613,0.3613,0.3613,0.3613,0.3613,0.3613,0.3613,0.3613,0.3613,0.3613,0.3613,0.3613,0.3388,0.2378,0.1706,0.1091,0.0113,-0.0522,-0.0928,-0.0989,-0.1019,-0.1047,-0.1104,-0.1109,-0.1109,-0.1109,-0.1109,-0.1109,-0.1109,-0.1109,-0.1109,-0.1109,-0.1109,-0.1109,-0.1109,-0.1109,-0.1109,-0.1109,-0.1114,-0.1083,-0.1083,-0.1122,-0.1125,-0.1125,-0.1125,-0.1125,-0.1125,-0.112,-0.1083,-0.1083,-0.1112,-0.1109,-0.1109,-0.1109,-0.1109,-0.1109,-0.1109,-0.1112,0.7827,0.9112,1.0566,1.1384,1.1853,1.2101,1.2101,1.2101,1.2101,1.2101,1.2101,1.2002,1.1703,1.1653,1.1553,1.1251,1.1192,1.1192,1.1192,1.0947,1.0761,1.0761,1.0488,1.0172,0.9769,0.971,0.9562,0.9159,0.8784,0.8573,0.8521,0.8109,0.7901,0.7901,0.7901,0.7901,0.7901,0.7901,0.7901,0.7901,0.7901,0.7875,0.7848,0.7574,0.7192,0.6701,0.5691,0.5117,0.4846,0.3968,0.3613,0.3613,0.3613,0.3613,0.3613,0.3613,0.3613,0.3613,0.3613,0.3613,0.3613,0.3613,0.3613,0.3613,0.3613,0.3613,0.333,0.2041,0.151,0.1013,-0.0261,-0.0809,-0.099,-0.0989,-0.1049,-0.1104,-0.1109,-0.1109,-0.1109,-0.1109,-0.1109,-0.1109,-0.1109,-0.1109,-0.1109,-0.1109,-0.1109,-0.1109,-0.1109,-0.1109,-0.1109,-0.1109,-0.1099,-0.1115,-0.1115,-0.1139,-0.119,-0.119,-0.119,-0.119,-0.119,-0.1129,-0.1115,-0.1115,-0.1089,-0.1109,-0.1109,-0.1109,-0.1109,-0.1109,-0.1109,-0.1089,0.8373,0.9328,1.0271,1.1246,1.1641,1.1825,1.2055,1.2101,1.2101,1.2101,1.2101,1.2026,1.1753,1.1703,1.1619,1.1352,1.1301,1.1301,1.1301,1.12,1.1124,1.1124,1.1023,1.0812,1.0446,1.0421,1.0156,0.9588,0.9178,0.8837,0.86,0.8162,0.7901,0.7901,0.7901,0.7901,0.7901,0.7901,0.7901,0.7901,0.7901,0.7901,0.7901,0.7768,0.744,0.6869,0.5773,0.5144,0.4846,0.3968,0.3613,0.3613,0.3613,0.3613,0.3613,0.3613,0.3613,0.3613,0.3613,0.3613,0.3613,0.3613,0.3613,0.3613,0.3613,0.3613,0.333,0.2069,0.1593,0.1155,-0.0234,-0.0724,-0.0903,-0.0994,-0.1055,-0.1109,-0.1109,-0.1109,-0.1109,-0.1109,-0.1109,-0.1109,-0.1109,-0.1109,-0.1109,-0.1109,-0.1109,-0.1109,-0.1109,-0.1091,-0.1101,-0.1101,-0.1128,-0.1147,-0.1147,-0.1195,-0.1203,-0.1203,-0.1203,-0.1203,-0.1203,-0.1189,-0.1138,-0.1086,-0.1091,-0.1109,-0.1109,-0.1093,-0.1101,-0.1102,-0.1153,-0.1169,0.872,0.9251,0.963,1.0857,1.1305,1.1528,1.1862,1.2027,1.2101,1.2101,1.2101,1.2051,1.1852,1.1803,1.1753,1.1553,1.1502,1.1502,1.1502,1.1452,1.1402,1.1402,1.1352,1.1192,1.0922,1.0896,1.0633,1.0028,0.9491,0.908,0.8758,0.8215,0.7901,0.7901,0.7901,0.7901,0.7901,0.7901,0.7901,0.7901,0.7901,0.7901,0.7901,0.7901,0.7655,0.7139,0.5937,0.5226,0.4846,0.3968,0.3613,0.3613,0.3613,0.3613,0.3613,0.3613,0.3613,0.3613,0.3613,0.3613,0.3613,0.3613,0.3613,0.3583,0.3413,0.3357,0.3132,0.1902,0.1464,0.1085,-0.0177,-0.0641,-0.085,-0.1004,-0.106,-0.1109,-0.1109,-0.1109,-0.1109,-0.1109,-0.1109,-0.1109,-0.1109,-0.1109,-0.1109,-0.1109,-0.1109,-0.1112,-0.1086,-0.1107,-0.1124,-0.1132,-0.1159,-0.1215,-0.1215,-0.1222,-0.1227,-0.1227,-0.1227,-0.1227,-0.1227,-0.1219,-0.1167,-0.1109,-0.1114,-0.1129,-0.1087,-0.1118,-0.1132,-0.1133,-0.1192,-0.1207,0.8088,0.8323,0.8438,0.9904,1.0748,1.1264,1.1472,1.1834,1.2101,1.2101,1.2101,1.2101,1.2076,1.2076,1.2076,1.2051,1.2051,1.2051,1.2051,1.1852,1.1678,1.1678,1.1444,1.1192,1.0922,1.0896,1.0769,1.0496,0.9681,0.9185,0.9159,0.8374,0.7901,0.7901,0.7901,0.7901,0.7901,0.7901,0.7901,0.7901,0.7901,0.7901,0.7901,0.7901,0.7741,0.7408,0.6263,0.5445,0.4846,0.3968,0.3613,0.3613,0.3613,0.3613,0.3613,0.3613,0.3613,0.3613,0.3613,0.3613,0.3613,0.3613,0.3613,0.3499,0.2933,0.2736,0.2486,0.1288,0.0859,0.0561,-0.0275,-0.0662,-0.0844,-0.1033,-0.1108,-0.1109,-0.1109,-0.1109,-0.1109,-0.1109,-0.1109,-0.1109,-0.1109,-0.1109,-0.1109,-0.1109,-0.1109,-0.1086,-0.1115,-0.1085,-0.1132,-0.1197,-0.1191,-0.1209,-0.1209,-0.1274,-0.1291,-0.1291,-0.1291,-0.1291,-0.1291,-0.1225,-0.1209,-0.1207,-0.1177,-0.1147,-0.1084,-0.1149,-0.1201,-0.1201,-0.1202,-0.1182,0.7433,0.8042,0.8689,0.9133,0.9839,1.0488,1.0674,1.1246,1.1724,1.1724,1.1926,1.2101,1.2101,1.2101,1.2101,1.2101,1.2101,1.2101,1.2101,1.2026,1.1952,1.1952,1.1877,1.1653,1.12,1.115,1.0972,1.0522,0.9681,0.9211,0.9211,0.8374,0.7901,0.7901,0.7901,0.7901,0.7901,0.7901,0.7901,0.7901,0.7901,0.7901,0.7901,0.7901,0.7768,0.7467,0.6556,0.5792,0.5089,0.4024,0.3613,0.3613,0.3613,0.3613,0.3613,0.3613,0.3613,0.3613,0.3613,0.3613,0.3613,0.3613,0.3613,0.3555,0.3357,0.3019,0.2541,0.1706,0.1174,0.0651,-0.0153,-0.0474,-0.0683,-0.1035,-0.1109,-0.1109,-0.1109,-0.1109,-0.1109,-0.1109,-0.1109,-0.1109,-0.1109,-0.1109,-0.1116,-0.1102,-0.1104,-0.1116,-0.1146,-0.1167,-0.1183,-0.1194,-0.1223,-0.1279,-0.1279,-0.129,-0.1296,-0.1296,-0.1296,-0.1296,-0.1296,-0.1286,-0.1232,-0.1212,-0.1258,-0.1237,-0.1151,-0.1181,-0.1196,-0.1196,-0.1253,-0.1269,0.7091,0.7756,0.8534,0.8717,0.9149,0.9676,1.0201,1.0735,1.1173,1.1425,1.1724,1.1945,1.2073,1.2101,1.2101,1.2101,1.2101,1.2101,1.2101,1.2101,1.2101,1.2101,1.2101,1.1902,1.1343,1.1301,1.1074,1.0547,0.981,0.9335,0.9211,0.8527,0.8055,0.7901,0.7901,0.7901,0.7901,0.7901,0.7901,0.7901,0.7901,0.7901,0.7901,0.7901,0.7788,0.7574,0.661,0.585,0.5226,0.4211,0.3719,0.3613,0.3613,0.3613,0.3613,0.3613,0.3613,0.3613,0.3613,0.3613,0.3613,0.3613,0.3613,0.3527,0.3107,0.2713,0.224,0.1418,0.0903,0.0451,-0.0155,-0.0449,-0.0658,-0.0938,-0.1043,-0.1109,-0.1109,-0.1109,-0.1109,-0.1109,-0.1109,-0.1109,-0.1109,-0.1084,-0.1097,-0.1083,-0.1129,-0.1147,-0.1178,-0.1199,-0.1215,-0.1226,-0.1284,-0.1296,-0.1296,-0.1296,-0.1296,-0.1296,-0.1296,-0.1296,-0.1296,-0.1296,-0.1287,-0.1228,-0.1286,-0.1276,-0.1234,-0.1217,-0.1227,-0.1228,-0.1287,-0.1296,0.0,0.0,0.0,0.8666,0.871,0.8882,1.0062,1.0301,1.0487,1.1283,1.1467,1.1595,1.1991,1.2064,1.2064,1.2064,1.2082,1.2101,1.2101,1.2101,1.2101,1.2101,1.2101,1.1902,1.1352,1.1301,1.1074,1.0539,1.0061,0.9614,0.9211,0.8811,0.8368,0.7928,0.7901,0.7901,0.7901,0.7901,0.7901,0.7901,0.7901,0.7901,0.7901,0.7901,0.7901,0.7821,0.6453,0.5637,0.525,0.4508,0.3962,0.3613,0.3613,0.3613,0.3613,0.3613,0.3613,0.3613,0.3613,0.3613,0.3613,0.3613,0.3613,0.3388,0.2181,0.1818,0.1549,0.035,0.0,-0.0031,-0.0257,-0.0528,-0.0776,-0.0809,-0.0942,-0.1109,-0.1109,-0.1109,-0.1109,-0.1109,-0.1109,-0.1109,-0.1111,-0.1102,-0.1087,-0.1088,-0.1149,-0.1215,-0.1209,-0.1213,-0.1224,-0.1293,-0.1296,-0.1296,-0.1296,-0.1296,-0.1296,-0.1296,-0.1296,-0.1296,-0.1296,-0.1296,-0.1296,-0.1296,-0.1296,-0.1296,-0.1296,-0.1296,-0.1296,-0.1296,-0.1296,-0.1296,0.7144,0.0,0.0,0.0,0.0,0.0,0.8561,0.9107,0.9673,1.029,1.0653,1.0938,1.1191,1.1219,1.1219,1.1219,1.1715,1.2101,1.2101,1.2101,1.2101,1.2101,1.2101,1.1977,1.1628,1.1418,1.115,1.082,1.0156,0.9614,0.9211,0.8507,0.8029,0.7901,0.7901,0.7901,0.7901,0.7901,0.7901,0.7901,0.7901,0.7901,0.7901,0.7901,0.7901,0.7875,0.7273,0.6507,0.5555,0.4294,0.3694,0.3613,0.3613,0.3613,0.3613,0.3613,0.3613,0.3613,0.3613,0.3613,0.3613,0.3613,0.3613,0.3444,0.2683,0.2151,0.1634,0.0874,0.0331,-0.0031,-0.0263,-0.0369,-0.0506,-0.0742,-0.0843,-0.0909,-0.1076,-0.1109,-0.1109,-0.1109,-0.1109,-0.1116,-0.1104,-0.1115,-0.1101,-0.118,-0.1194,-0.1211,-0.1279,-0.1284,-0.1287,-0.1295,-0.1296,-0.1296,-0.1296,-0.1296,-0.1296,-0.1296,-0.1296,-0.1296,-0.1296,-0.1296,-0.1296,-0.1296,-0.1296,-0.1296,-0.1296,-0.1296,-0.1296,-0.1296,-0.1296,-0.1296,0.7534,0.7966,0.8428,0.7741,0.0,0.0,0.8071,0.8331,0.8749,0.9686,1.0059,1.0354,1.0822,1.0901,1.0901,1.0901,1.1283,1.1651,1.1825,1.2,1.2101,1.2101,1.2101,1.2002,1.1728,1.1553,1.1301,1.0922,1.031,0.9658,0.8995,0.8295,0.7901,0.7901,0.7901,0.7901,0.7901,0.7901,0.7901,0.7901,0.7901,0.7901,0.7901,0.7901,0.7768,0.7547,0.7348,0.6583,0.5441,0.4457,0.3885,0.3613,0.3613,0.3613,0.3613,0.3613,0.3613,0.3613,0.3613,0.3613,0.3613,0.3613,0.3613,0.3499,0.2877,0.2285,0.1667,0.1069,0.0464,-0.0032,-0.0134,-0.0236,-0.0337,-0.0539,-0.0708,-0.0843,-0.0942,-0.1043,-0.1113,-0.1092,-0.1095,-0.1104,-0.1135,-0.1151,-0.1171,-0.1206,-0.1223,-0.1237,-0.1294,-0.1296,-0.1296,-0.1296,-0.1296,-0.1296,-0.1296,-0.1296,-0.1296,-0.1296,-0.1296,-0.1296,-0.1296,-0.1296,-0.1296,-0.1296,-0.1296,-0.1296,-0.1296,-0.1296,-0.1296,-0.1296,-0.1296,-0.1296,0.8116,0.8381,0.8692,0.8273,0.7808,0.0,0.8191,0.7945,0.7954,0.9207,0.9515,0.9755,1.0474,1.0628,1.0656,1.0634,1.0708,1.0906,1.1375,1.1742,1.1963,1.1963,1.1963,1.1865,1.1644,1.1614,1.1441,1.0965,1.044,0.9703,0.8732,0.8189,0.7901,0.7901,0.7901,0.7901,0.7901,0.7901,0.7901,0.7901,0.7901,0.7901,0.7901,0.7901,0.7601,0.7085,0.7047,0.6281,0.5078,0.4889,0.4346,0.361,0.3613,0.3613,0.3613,0.3613,0.3613,0.3613,0.3613,0.3613,0.3613,0.3613,0.3613,0.3499,0.2877,0.2288,0.1657,0.0981,0.042,0.0,0.0,-0.0135,-0.027,-0.0303,-0.0539,-0.0742,-0.0776,-0.0909,-0.1052,-0.1084,-0.1088,-0.1132,-0.1202,-0.1194,-0.1213,-0.1216,-0.1279,-0.1296,-0.1296,-0.1296,-0.1296,-0.1296,-0.1296,-0.1296,-0.1296,-0.1296,-0.1296,-0.1296,-0.1296,-0.1296,-0.1296,-0.1296,-0.1296,-0.1296,-0.1296,-0.1296,-0.1296,-0.1296,-0.1296,-0.1296,-0.1296,-0.1296,0.8573,0.8934,0.9221,0.8716,0.8821,0.0,0.802,0.8082,0.8253,0.8045,0.8312,0.859,0.8641,0.8951,0.9159,0.9004,0.9501,1.018,1.0906,1.1072,1.114,1.114,1.114,1.1118,1.1049,1.1139,1.1169,1.1072,1.0229,0.9536,0.9106,0.8321,0.7901,0.7901,0.7901,0.7901,0.7901,0.7901,0.7901,0.7901,0.7901,0.7901,0.7901,0.7901,0.7601,0.7112,0.7521,0.6718,0.5136,0.5441,0.4869,0.3744,0.3638,0.3613,0.3613,0.3613,0.3613,0.3613,0.3613,0.3613,0.3613,0.3613,0.3613,0.3499,0.2877,0.2288,0.1577,0.0472,0.0098,0.0,0.0,-0.0034,-0.0101,-0.027,-0.0337,-0.0438,-0.0539,-0.0708,-0.0889,-0.0932,-0.1031,-0.1138,-0.1194,-0.1208,-0.122,-0.1284,-0.1293,-0.1296,-0.1296,-0.1296,-0.1296,-0.1296,-0.1296,-0.1296,-0.1296,-0.1296,-0.1296,-0.1296,-0.1296,-0.1296,-0.1296,-0.1296,-0.1296,-0.1296,-0.1296,-0.1296,-0.1296,-0.1296,-0.1296,-0.1296,-0.1296,-0.1296,0.9175,0.9294,0.9438,0.9175,0.9076,0.0,0.0,0.8057,0.7931,0.8233,0.7997,0.7877,0.8269,0.8412,0.8408,0.8318,0.8745,0.9253,0.9649,1.0395,1.0901,1.0901,1.0901,1.0901,1.0901,1.0958,1.0846,1.0466,0.9725,0.9163,0.882,0.8219,0.7901,0.7901,0.7901,0.7901,0.7901,0.7901,0.7901,0.7901,0.7901,0.7901,0.7901,0.7901,0.7434,0.6674,0.7246,0.648,0.4838,0.5199,0.4787,0.3882,0.3666,0.3613,0.3613,0.3613,0.3613,0.3613,0.3613,0.3613,0.3613,0.3613,0.3613,0.3555,0.3244,0.2519,0.1551,0.0351,0.0,0.0,0.0,0.0,-0.0034,-0.0135,-0.0236,-0.0303,-0.0371,-0.0539,-0.0682,-0.0745,-0.0893,-0.1054,-0.1224,-0.1234,-0.1279,-0.1294,-0.1296,-0.1296,-0.1296,-0.1296,-0.1296,-0.1296,-0.1296,-0.1296,-0.1296,-0.1296,-0.1296,-0.1296,-0.1296,-0.1296,-0.1296,-0.1296,-0.1296,-0.1296,-0.1296,-0.1296,-0.1296,-0.1296,-0.1296,-0.1296,-0.1296,-0.1296,0.9918,0.9882,0.9918,0.9714,0.9445,0.9173,0.0,0.0,0.0,0.8609,0.8055,0.7633,0.8327,0.8172,0.7936,0.7906,0.8089,0.8242,0.8242,0.9427,1.0349,1.0431,1.0505,1.0551,1.0551,1.0625,1.0471,0.9976,0.9337,0.8839,0.8529,0.8139,0.7927,0.7901,0.7901,0.7901,0.7901,0.7901,0.7901,0.7901,0.7901,0.7901,0.7901,0.7901,0.7273,0.6236,0.6837,0.61,0.4515,0.4814,0.457,0.3968,0.3694,0.3613,0.3613,0.3613,0.3613,0.3613,0.3613,0.3613,0.3613,0.3613,0.3613,0.3588,0.347,0.2679,0.1581,0.048,0.0099,0.0,0.0,0.0,0.0,0.0,-0.0135,-0.0236,-0.0236,-0.0371,-0.0476,-0.0523,-0.0716,-0.0925,-0.1162,-0.1254,-0.1296,-0.1296,-0.1296,-0.1296,-0.1296,-0.1296,-0.1296,-0.1296,-0.1296,-0.1296,-0.1296,-0.1296,-0.1296,-0.1296,-0.1296,-0.1296,-0.1296,-0.1296,-0.1296,-0.1296,-0.1296,-0.1296,-0.1296,-0.1296,-0.1296,-0.1296,-0.1296,-0.1296,1.093,1.1267,1.1403,1.0449,1.0867,1.1023,0.9148,0.0,0.9,0.8122,0.0,0.8117,0.7919,0.0,0.0,0.7148,0.7252,0.7348,0.7348,0.7808,0.8309,0.8728,0.9078,0.9299,0.9299,0.963,1.0001,1.0401,0.947,0.8906,0.894,0.8395,0.803,0.7895,0.7901,0.7901,0.7901,0.7901,0.7901,0.7901,0.7901,0.7901,0.7901,0.7901,0.7273,0.6236,0.6837,0.61,0.4515,0.4921,0.4649,0.3968,0.3694,0.3613,0.3613,0.3613,0.3613,0.3613,0.3613,0.3613,0.3613,0.3613,0.3613,0.349,0.2952,0.2335,0.1674,0.099,0.0428,0.0,0.0,0.0,0.0,0.0,-0.0034,-0.0034,-0.0034,-0.0202,-0.034,-0.0348,-0.0501,-0.0699,-0.0908,-0.1162,-0.1296,-0.1296,-0.1296,-0.1296,-0.1296,-0.1296,-0.1296,-0.1296,-0.1296,-0.1296,-0.1296,-0.1296,-0.1296,-0.1296,-0.1296,-0.1296,-0.1296,-0.1296,-0.1296,-0.1296,-0.1296,-0.1296,-0.1296,-0.1296,-0.1296,-0.1296,-0.1296,-0.1296,1.1183,1.125,1.1331,1.0878,1.0869,1.0743,0.9841,0.9319,0.8982,0.8825,0.0,0.0,0.0,0.0,0.0,0.0,0.6664,0.6497,0.6497,0.6652,0.7187,0.8369,0.8399,0.8537,0.9041,0.9253,0.9535,1.0007,0.9018,0.8517,0.8873,0.8243,0.7877,0.7895,0.7901,0.7901,0.7901,0.7901,0.7901,0.7901,0.7901,0.7901,0.7901,0.7901,0.7273,0.6209,0.648,0.58,0.4519,0.4543,0.4408,0.4079,0.383,0.3666,0.3613,0.3613,0.3613,0.3613,0.3613,0.3613,0.3613,0.3613,0.3613,0.3492,0.2965,0.2342,0.1705,0.1149,0.0527,0.0,0.0,0.0,0.0,0.0,0.0,0.0,0.0,-0.0067,-0.0136,-0.014,-0.0287,-0.0441,-0.0528,-0.085,-0.1139,-0.1296,-0.1296,-0.1296,-0.1296,-0.1296,-0.1296,-0.1296,-0.1296,-0.1296,-0.1296,-0.1296,-0.1296,-0.1296,-0.1296,-0.1296,-0.1296,-0.1296,-0.1296,-0.1296,-0.1296,-0.1296,-0.1296,-0.1296,-0.1296,-0.1296,-0.1296,-0.1296,1.1692,1.1642,1.1641,1.1212,1.081,1.0448,1.0159,0.9704,0.9428,0.9666,0.9265,0.0,0.0,0.0,0.735,0.7089,0.0,0.6134,0.5869,0.5841,0.6365,0.781,0.7862,0.8091,0.8857,0.8829,0.8958,0.9491,0.8495,0.8116,0.867,0.8087,0.774,0.7808,0.7865,0.7901,0.7901,0.7901,0.7901,0.7901,0.7901,0.7901,0.7901,0.7901,0.7273,0.6209,0.6209,0.5555,0.4491,0.4356,0.4249,0.4166,0.3938,0.3771,0.3635,0.361,0.3613,0.3613,0.3613,0.3613,0.3613,0.3613,0.3632,0.3589,0.3263,0.2656,0.2035,0.1503,0.0855,0.0269,0.0067,0.0,0.0,0.0,0.0,0.0,0.0,0.0,0.0,0.0,-0.0108,-0.0222,-0.0302,-0.058,-0.0904,-0.1061,-0.11,-0.11,-0.11,-0.11,-0.11,-0.11,-0.11,-0.11,-0.11,-0.11,-0.1139,-0.1178,-0.1178,-0.1178,-0.1178,-0.1139,-0.1139,-0.1178,-0.1139,-0.1139,-0.1178,-0.1139,-0.11,-0.11,-0.1257,-0.1296,1.2788,1.3029,1.3053,1.15,1.1099,1.0807,0.9761,1.0291,1.0882,1.0389,1.0978,1.142,1.0916,0.9836,0.8723,0.0,0.7164,0.0,0.0,0.5415,0.5726,0.6566,0.7336,0.799,0.848,0.8107,0.8199,0.905,0.8135,0.7785,0.8384,0.8011,0.7748,0.7626,0.779,0.7901,0.7901,0.7901,0.7901,0.7901,0.7901,0.7901,0.7901,0.7901,0.7273,0.6209,0.6209,0.5555,0.4491,0.4491,0.4384,0.4193,0.4052,0.391,0.3769,0.3638,0.3613,0.3613,0.3613,0.3613,0.3613,0.3613,0.3687,0.3778,0.378,0.3402,0.2829,0.2152,0.1543,0.0908,0.0202,0.0,0.0,0.0,0.0,0.0,0.0,0.0,0.0,0.0,0.0,-0.0076,-0.0265,-0.0464,-0.0628,-0.0628,-0.0628,-0.0628,-0.0628,-0.0628,-0.0628,-0.0628,-0.0628,-0.0628,-0.0628,-0.0628,-0.0707,-0.0904,-0.0904,-0.0904,-0.0904,-0.0707,-0.0707,-0.0904,-0.0707,-0.0707,-0.0904,-0.0707,-0.0628,-0.0628,-0.11,-0.1296,1.3807,1.3887,1.3719,1.246,1.1882,1.135,1.0266,1.0579,1.0942,1.0399,1.1116,1.1593,1.0777,1.0087,0.927,0.0,0.0,0.6506,0.0,0.5451,0.5598,0.6142,0.6908,0.736,0.7247,0.7588,0.8045,0.8655,0.7785,0.7571,0.8347,0.7881,0.7589,0.7608,0.7784,0.7901,0.7901,0.7901,0.7901,0.7901,0.7901,0.7901,0.7901,0.7901,0.7273,0.6209,0.6209,0.5555,0.4491,0.4491,0.4463,0.4384,0.419,0.4052,0.391,0.3694,0.3613,0.3613,0.3613,0.3613,0.3613,0.3613,0.369,0.3797,0.3849,0.3458,0.2972,0.2827,0.1965,0.1042,0.0807,0.0371,0.0,0.0,0.0,0.0,0.0,0.0,0.0,0.0,0.0,-0.0038,-0.0077,-0.0156,-0.0275,-0.055,-0.0589,-0.0589,-0.0589,-0.0589,-0.0589,-0.0589,-0.0589,-0.0589,-0.0589,-0.0589,-0.0628,-0.0707,-0.0707,-0.0707,-0.0707,-0.0628,-0.0628,-0.0707,-0.0628,-0.0628,-0.0707,-0.0628,-0.0589,-0.0589,-0.0746,-0.0825,1.4337,1.4408,1.425,1.3007,1.2581,1.2129,1.0872,1.1283,1.1801,1.1255,1.1733,1.2177,1.1902,1.0836,0.9704,0.0,0.0,0.0,0.0,0.538,0.5442,0.5568,0.6279,0.6794,0.6812,0.7026,0.7525,0.8434,0.7505,0.7291,0.8216,0.7781,0.7497,0.7449,0.7736,0.7901,0.7901,0.7901,0.7901,0.7901,0.7901,0.7901,0.7901,0.7901,0.7273,0.6209,0.6209,0.5555,0.4491,0.4491,0.4491,0.4491,0.4273,0.4138,0.4052,0.3774,0.3638,0.3613,0.3613,0.3613,0.3613,0.3613,0.3717,0.3833,0.3881,0.3704,0.3409,0.3234,0.2547,0.1745,0.1244,0.074,0.0337,0.0067,0.0,0.0,0.0,0.0,0.0,0.0,0.0,0.0,0.0,0.0,-0.0079,-0.0353,-0.0393,-0.0393,-0.0393,-0.0393,-0.0393,-0.0393,-0.0393,-0.0393,-0.0393,-0.0471,-0.051,-0.051,-0.051,-0.051,-0.051,-0.0432,-0.0432,-0.051,-0.0432,-0.0432,-0.051,-0.0432,-0.0393,-0.0393,-0.0393,-0.0393]}]]